<?xml version="1.0" encoding="UTF-8" standalone="no" ?>
<gpx xmlns="http://www.topografix.com/GPX/1/1" xmlns:xsi="http://www.w3.org/2001/XMLSchema-instance" xsi:schemaLocation="http://www.topografix.com/GPX/1/1 http://www.topografix.com/GPX/1/1/gpx.xsd" version="1.1" creator="VisuGPX - https://www.visugpx.com">
  <metadata>
    <name>Tournefeuille Gravel bike</name>
  </metadata>
  <trk>
    <name><![CDATA[Tournefeuille Gravel bike_1]]></name>
    <trkseg>
      <trkpt lat="43.58663" lon="1.32221">
        <ele>172.2</ele>
        <time>2022-07-12T04:43:57Z</time>
      </trkpt>
      <trkpt lat="43.58663" lon="1.32221">
        <ele>185.2</ele>
        <time>2022-07-12T04:43:58Z</time>
      </trkpt>
      <trkpt lat="43.58664" lon="1.32242">
        <ele>188.6</ele>
        <time>2022-07-12T04:44:14Z</time>
      </trkpt>
      <trkpt lat="43.58668" lon="1.3225">
        <ele>189</ele>
        <time>2022-07-12T04:44:16Z</time>
      </trkpt>
      <trkpt lat="43.58677" lon="1.3227">
        <ele>189.8</ele>
        <time>2022-07-12T04:44:20Z</time>
      </trkpt>
      <trkpt lat="43.58677" lon="1.32275">
        <ele>190.2</ele>
        <time>2022-07-12T04:44:21Z</time>
      </trkpt>
      <trkpt lat="43.58678" lon="1.3228">
        <ele>190.2</ele>
        <time>2022-07-12T04:44:22Z</time>
      </trkpt>
      <trkpt lat="43.58683" lon="1.32285">
        <ele>190.4</ele>
        <time>2022-07-12T04:44:24Z</time>
      </trkpt>
      <trkpt lat="43.5869" lon="1.32281">
        <ele>191</ele>
        <time>2022-07-12T04:44:26Z</time>
      </trkpt>
      <trkpt lat="43.58693" lon="1.32279">
        <ele>191</ele>
        <time>2022-07-12T04:44:27Z</time>
      </trkpt>
      <trkpt lat="43.58712" lon="1.3226">
        <ele>192.4</ele>
        <time>2022-07-12T04:44:33Z</time>
      </trkpt>
      <trkpt lat="43.5872" lon="1.32253">
        <ele>192.6</ele>
        <time>2022-07-12T04:44:35Z</time>
      </trkpt>
      <trkpt lat="43.58733" lon="1.32242">
        <ele>193.4</ele>
        <time>2022-07-12T04:44:38Z</time>
      </trkpt>
      <trkpt lat="43.58737" lon="1.32238">
        <ele>193.6</ele>
        <time>2022-07-12T04:44:39Z</time>
      </trkpt>
      <trkpt lat="43.58748" lon="1.32226">
        <ele>194.4</ele>
        <time>2022-07-12T04:44:42Z</time>
      </trkpt>
      <trkpt lat="43.58767" lon="1.32204">
        <ele>195.6</ele>
        <time>2022-07-12T04:44:47Z</time>
      </trkpt>
      <trkpt lat="43.58781" lon="1.32189">
        <ele>196.2</ele>
        <time>2022-07-12T04:45:05Z</time>
      </trkpt>
      <trkpt lat="43.58785" lon="1.32185">
        <ele>196.4</ele>
        <time>2022-07-12T04:45:06Z</time>
      </trkpt>
      <trkpt lat="43.58793" lon="1.32176">
        <ele>196.8</ele>
        <time>2022-07-12T04:45:08Z</time>
      </trkpt>
      <trkpt lat="43.58809" lon="1.32155">
        <ele>197</ele>
        <time>2022-07-12T04:45:13Z</time>
      </trkpt>
      <trkpt lat="43.58811" lon="1.32151">
        <ele>197.2</ele>
        <time>2022-07-12T04:45:14Z</time>
      </trkpt>
      <trkpt lat="43.58817" lon="1.32124">
        <ele>198</ele>
        <time>2022-07-12T04:45:20Z</time>
      </trkpt>
      <trkpt lat="43.58825" lon="1.32111">
        <ele>198.2</ele>
        <time>2022-07-12T04:45:23Z</time>
      </trkpt>
      <trkpt lat="43.58829" lon="1.32106">
        <ele>198.4</ele>
        <time>2022-07-12T04:45:24Z</time>
      </trkpt>
      <trkpt lat="43.58864" lon="1.3207">
        <ele>198.8</ele>
        <time>2022-07-12T04:45:33Z</time>
      </trkpt>
      <trkpt lat="43.58868" lon="1.32065">
        <ele>199</ele>
        <time>2022-07-12T04:45:34Z</time>
      </trkpt>
      <trkpt lat="43.589" lon="1.32034">
        <ele>200</ele>
        <time>2022-07-12T04:45:42Z</time>
      </trkpt>
      <trkpt lat="43.58906" lon="1.32029">
        <ele>200.2</ele>
        <time>2022-07-12T04:45:44Z</time>
      </trkpt>
      <trkpt lat="43.58908" lon="1.32027">
        <ele>200.2</ele>
        <time>2022-07-12T04:45:46Z</time>
      </trkpt>
      <trkpt lat="43.58906" lon="1.32028">
        <ele>200.4</ele>
        <time>2022-07-12T04:45:49Z</time>
      </trkpt>
      <trkpt lat="43.58904" lon="1.3203">
        <ele>200.4</ele>
        <time>2022-07-12T04:45:50Z</time>
      </trkpt>
      <trkpt lat="43.5889" lon="1.32044">
        <ele>200.4</ele>
        <time>2022-07-12T04:45:55Z</time>
      </trkpt>
      <trkpt lat="43.58868" lon="1.32067">
        <ele>200.4</ele>
        <time>2022-07-12T04:46:01Z</time>
      </trkpt>
      <trkpt lat="43.58833" lon="1.32102">
        <ele>200.6</ele>
        <time>2022-07-12T04:46:09Z</time>
      </trkpt>
      <trkpt lat="43.58814" lon="1.3212">
        <ele>201</ele>
        <time>2022-07-12T04:46:13Z</time>
      </trkpt>
      <trkpt lat="43.58807" lon="1.32134">
        <ele>201</ele>
        <time>2022-07-12T04:46:15Z</time>
      </trkpt>
      <trkpt lat="43.58805" lon="1.32152">
        <ele>200.8</ele>
        <time>2022-07-12T04:46:18Z</time>
      </trkpt>
      <trkpt lat="43.58803" lon="1.32157">
        <ele>200.8</ele>
        <time>2022-07-12T04:46:19Z</time>
      </trkpt>
      <trkpt lat="43.58798" lon="1.32166">
        <ele>200.8</ele>
        <time>2022-07-12T04:46:21Z</time>
      </trkpt>
      <trkpt lat="43.58794" lon="1.3217">
        <ele>200.8</ele>
        <time>2022-07-12T04:46:22Z</time>
      </trkpt>
      <trkpt lat="43.58762" lon="1.32201">
        <ele>200.6</ele>
        <time>2022-07-12T04:46:29Z</time>
      </trkpt>
      <trkpt lat="43.58753" lon="1.3221">
        <ele>200.6</ele>
        <time>2022-07-12T04:46:31Z</time>
      </trkpt>
      <trkpt lat="43.58726" lon="1.3224">
        <ele>200.4</ele>
        <time>2022-07-12T04:46:37Z</time>
      </trkpt>
      <trkpt lat="43.58705" lon="1.3226">
        <ele>200.6</ele>
        <time>2022-07-12T04:46:41Z</time>
      </trkpt>
      <trkpt lat="43.58682" lon="1.32284">
        <ele>200.4</ele>
        <time>2022-07-12T04:46:46Z</time>
      </trkpt>
      <trkpt lat="43.58676" lon="1.32279">
        <ele>200.4</ele>
        <time>2022-07-12T04:46:48Z</time>
      </trkpt>
      <trkpt lat="43.58679" lon="1.32255">
        <ele>199.6</ele>
        <time>2022-07-12T04:46:53Z</time>
      </trkpt>
      <trkpt lat="43.58679" lon="1.3224">
        <ele>199</ele>
        <time>2022-07-12T04:46:58Z</time>
      </trkpt>
      <trkpt lat="43.58679" lon="1.32236">
        <ele>198.8</ele>
        <time>2022-07-12T04:47:00Z</time>
      </trkpt>
      <trkpt lat="43.58679" lon="1.32233">
        <ele>198.6</ele>
        <time>2022-07-12T04:47:02Z</time>
      </trkpt>
      <trkpt lat="43.58679" lon="1.32232">
        <ele>198.6</ele>
        <time>2022-07-12T04:47:03Z</time>
      </trkpt>
      <trkpt lat="43.58679" lon="1.32232">
        <ele>198.4</ele>
        <time>2022-07-12T04:47:04Z</time>
      </trkpt>
      <trkpt lat="43.58679" lon="1.32232">
        <ele>198.4</ele>
        <time>2022-07-12T04:47:05Z</time>
      </trkpt>
      <trkpt lat="43.58679" lon="1.32235">
        <ele>195.6</ele>
        <time>2022-07-12T04:47:47Z</time>
      </trkpt>
      <trkpt lat="43.58679" lon="1.32237">
        <ele>195.6</ele>
        <time>2022-07-12T04:47:48Z</time>
      </trkpt>
      <trkpt lat="43.58676" lon="1.32259">
        <ele>195.4</ele>
        <time>2022-07-12T04:47:54Z</time>
      </trkpt>
      <trkpt lat="43.58675" lon="1.32282">
        <ele>195.2</ele>
        <time>2022-07-12T04:47:58Z</time>
      </trkpt>
      <trkpt lat="43.58676" lon="1.32286">
        <ele>195.2</ele>
        <time>2022-07-12T04:47:59Z</time>
      </trkpt>
      <trkpt lat="43.5868" lon="1.32288">
        <ele>195.2</ele>
        <time>2022-07-12T04:48:00Z</time>
      </trkpt>
      <trkpt lat="43.58683" lon="1.32286">
        <ele>195.2</ele>
        <time>2022-07-12T04:48:01Z</time>
      </trkpt>
      <trkpt lat="43.58711" lon="1.3226">
        <ele>195.8</ele>
        <time>2022-07-12T04:48:08Z</time>
      </trkpt>
      <trkpt lat="43.58738" lon="1.32231">
        <ele>196.4</ele>
        <time>2022-07-12T04:48:15Z</time>
      </trkpt>
      <trkpt lat="43.58754" lon="1.32214">
        <ele>196.8</ele>
        <time>2022-07-12T04:48:19Z</time>
      </trkpt>
      <trkpt lat="43.58764" lon="1.32205">
        <ele>197</ele>
        <time>2022-07-12T04:48:21Z</time>
      </trkpt>
      <trkpt lat="43.58772" lon="1.32196">
        <ele>197.2</ele>
        <time>2022-07-12T04:48:23Z</time>
      </trkpt>
      <trkpt lat="43.58801" lon="1.32167">
        <ele>197.8</ele>
        <time>2022-07-12T04:48:30Z</time>
      </trkpt>
      <trkpt lat="43.58804" lon="1.32162">
        <ele>197.8</ele>
        <time>2022-07-12T04:48:31Z</time>
      </trkpt>
      <trkpt lat="43.58808" lon="1.32158">
        <ele>198</ele>
        <time>2022-07-12T04:48:32Z</time>
      </trkpt>
      <trkpt lat="43.58811" lon="1.32149">
        <ele>198</ele>
        <time>2022-07-12T04:48:34Z</time>
      </trkpt>
      <trkpt lat="43.5882" lon="1.32127">
        <ele>198.6</ele>
        <time>2022-07-12T04:48:38Z</time>
      </trkpt>
      <trkpt lat="43.58823" lon="1.32116">
        <ele>198.6</ele>
        <time>2022-07-12T04:48:40Z</time>
      </trkpt>
      <trkpt lat="43.5884" lon="1.32097">
        <ele>198.8</ele>
        <time>2022-07-12T04:48:44Z</time>
      </trkpt>
      <trkpt lat="43.5887" lon="1.32068">
        <ele>199</ele>
        <time>2022-07-12T04:48:50Z</time>
      </trkpt>
      <trkpt lat="43.58875" lon="1.32064">
        <ele>199.2</ele>
        <time>2022-07-12T04:48:51Z</time>
      </trkpt>
      <trkpt lat="43.58919" lon="1.32019">
        <ele>199.2</ele>
        <time>2022-07-12T04:49:00Z</time>
      </trkpt>
      <trkpt lat="43.58932" lon="1.32006">
        <ele>199</ele>
        <time>2022-07-12T04:49:03Z</time>
      </trkpt>
      <trkpt lat="43.5894" lon="1.32003">
        <ele>199</ele>
        <time>2022-07-12T04:49:05Z</time>
      </trkpt>
      <trkpt lat="43.58948" lon="1.32003">
        <ele>199</ele>
        <time>2022-07-12T04:49:07Z</time>
      </trkpt>
      <trkpt lat="43.58957" lon="1.31999">
        <ele>199</ele>
        <time>2022-07-12T04:49:09Z</time>
      </trkpt>
      <trkpt lat="43.58966" lon="1.31994">
        <ele>199</ele>
        <time>2022-07-12T04:49:11Z</time>
      </trkpt>
      <trkpt lat="43.58977" lon="1.31989">
        <ele>198.8</ele>
        <time>2022-07-12T04:49:13Z</time>
      </trkpt>
      <trkpt lat="43.58986" lon="1.3198">
        <ele>198.8</ele>
        <time>2022-07-12T04:49:15Z</time>
      </trkpt>
      <trkpt lat="43.59019" lon="1.31946">
        <ele>198.8</ele>
        <time>2022-07-12T04:49:22Z</time>
      </trkpt>
      <trkpt lat="43.59038" lon="1.31925">
        <ele>198.8</ele>
        <time>2022-07-12T04:49:26Z</time>
      </trkpt>
      <trkpt lat="43.59047" lon="1.31912">
        <ele>198.8</ele>
        <time>2022-07-12T04:49:28Z</time>
      </trkpt>
      <trkpt lat="43.59056" lon="1.31901">
        <ele>198.8</ele>
        <time>2022-07-12T04:49:30Z</time>
      </trkpt>
      <trkpt lat="43.59065" lon="1.31893">
        <ele>198.8</ele>
        <time>2022-07-12T04:49:32Z</time>
      </trkpt>
      <trkpt lat="43.5907" lon="1.31889">
        <ele>198.8</ele>
        <time>2022-07-12T04:49:33Z</time>
      </trkpt>
      <trkpt lat="43.59077" lon="1.31878">
        <ele>199</ele>
        <time>2022-07-12T04:49:35Z</time>
      </trkpt>
      <trkpt lat="43.59081" lon="1.31871">
        <ele>199</ele>
        <time>2022-07-12T04:49:36Z</time>
      </trkpt>
      <trkpt lat="43.59086" lon="1.31865">
        <ele>199</ele>
        <time>2022-07-12T04:49:37Z</time>
      </trkpt>
      <trkpt lat="43.59106" lon="1.31845">
        <ele>198.8</ele>
        <time>2022-07-12T04:49:41Z</time>
      </trkpt>
      <trkpt lat="43.5911" lon="1.3184">
        <ele>198.8</ele>
        <time>2022-07-12T04:49:42Z</time>
      </trkpt>
      <trkpt lat="43.59135" lon="1.31815">
        <ele>198.8</ele>
        <time>2022-07-12T04:49:47Z</time>
      </trkpt>
      <trkpt lat="43.59152" lon="1.31802">
        <ele>198.8</ele>
        <time>2022-07-12T04:49:51Z</time>
      </trkpt>
      <trkpt lat="43.59153" lon="1.31801">
        <ele>198.8</ele>
        <time>2022-07-12T04:49:52Z</time>
      </trkpt>
      <trkpt lat="43.59172" lon="1.31789">
        <ele>198.8</ele>
        <time>2022-07-12T04:49:58Z</time>
      </trkpt>
      <trkpt lat="43.59197" lon="1.31777">
        <ele>198.6</ele>
        <time>2022-07-12T04:50:03Z</time>
      </trkpt>
      <trkpt lat="43.59206" lon="1.31774">
        <ele>198.6</ele>
        <time>2022-07-12T04:50:05Z</time>
      </trkpt>
      <trkpt lat="43.59217" lon="1.31771">
        <ele>198.8</ele>
        <time>2022-07-12T04:50:08Z</time>
      </trkpt>
      <trkpt lat="43.59244" lon="1.3176">
        <ele>198.6</ele>
        <time>2022-07-12T04:50:15Z</time>
      </trkpt>
      <trkpt lat="43.59249" lon="1.31761">
        <ele>198.6</ele>
        <time>2022-07-12T04:50:16Z</time>
      </trkpt>
      <trkpt lat="43.59257" lon="1.31765">
        <ele>198.4</ele>
        <time>2022-07-12T04:50:18Z</time>
      </trkpt>
      <trkpt lat="43.59262" lon="1.31767">
        <ele>198.4</ele>
        <time>2022-07-12T04:50:19Z</time>
      </trkpt>
      <trkpt lat="43.59284" lon="1.3177">
        <ele>198.4</ele>
        <time>2022-07-12T04:50:23Z</time>
      </trkpt>
      <trkpt lat="43.59307" lon="1.31782">
        <ele>198.4</ele>
        <time>2022-07-12T04:50:27Z</time>
      </trkpt>
      <trkpt lat="43.59319" lon="1.31786">
        <ele>198.2</ele>
        <time>2022-07-12T04:50:29Z</time>
      </trkpt>
      <trkpt lat="43.59331" lon="1.31787">
        <ele>198</ele>
        <time>2022-07-12T04:50:31Z</time>
      </trkpt>
      <trkpt lat="43.59335" lon="1.31785">
        <ele>198</ele>
        <time>2022-07-12T04:50:32Z</time>
      </trkpt>
      <trkpt lat="43.59344" lon="1.31778">
        <ele>198.2</ele>
        <time>2022-07-12T04:50:35Z</time>
      </trkpt>
      <trkpt lat="43.59362" lon="1.31762">
        <ele>198.2</ele>
        <time>2022-07-12T04:50:40Z</time>
      </trkpt>
      <trkpt lat="43.5938" lon="1.31748">
        <ele>198.4</ele>
        <time>2022-07-12T04:50:44Z</time>
      </trkpt>
      <trkpt lat="43.59384" lon="1.31743">
        <ele>198.4</ele>
        <time>2022-07-12T04:50:45Z</time>
      </trkpt>
      <trkpt lat="43.59389" lon="1.31739">
        <ele>198.4</ele>
        <time>2022-07-12T04:50:46Z</time>
      </trkpt>
      <trkpt lat="43.59399" lon="1.31735">
        <ele>198.4</ele>
        <time>2022-07-12T04:50:48Z</time>
      </trkpt>
      <trkpt lat="43.59405" lon="1.31734">
        <ele>198.4</ele>
        <time>2022-07-12T04:50:49Z</time>
      </trkpt>
      <trkpt lat="43.59411" lon="1.31734">
        <ele>198.4</ele>
        <time>2022-07-12T04:50:50Z</time>
      </trkpt>
      <trkpt lat="43.59422" lon="1.31732">
        <ele>198.4</ele>
        <time>2022-07-12T04:50:52Z</time>
      </trkpt>
      <trkpt lat="43.59427" lon="1.3173">
        <ele>198.4</ele>
        <time>2022-07-12T04:50:53Z</time>
      </trkpt>
      <trkpt lat="43.59433" lon="1.31729">
        <ele>198.6</ele>
        <time>2022-07-12T04:50:54Z</time>
      </trkpt>
      <trkpt lat="43.5945" lon="1.3173">
        <ele>198.6</ele>
        <time>2022-07-12T04:50:57Z</time>
      </trkpt>
      <trkpt lat="43.59472" lon="1.31733">
        <ele>198.6</ele>
        <time>2022-07-12T04:51:01Z</time>
      </trkpt>
      <trkpt lat="43.59483" lon="1.31732">
        <ele>198.6</ele>
        <time>2022-07-12T04:51:03Z</time>
      </trkpt>
      <trkpt lat="43.59488" lon="1.31734">
        <ele>198.8</ele>
        <time>2022-07-12T04:51:04Z</time>
      </trkpt>
      <trkpt lat="43.59491" lon="1.31738">
        <ele>199</ele>
        <time>2022-07-12T04:51:05Z</time>
      </trkpt>
      <trkpt lat="43.59493" lon="1.31744">
        <ele>198.8</ele>
        <time>2022-07-12T04:51:06Z</time>
      </trkpt>
      <trkpt lat="43.59493" lon="1.31751">
        <ele>198.8</ele>
        <time>2022-07-12T04:51:07Z</time>
      </trkpt>
      <trkpt lat="43.59492" lon="1.31772">
        <ele>198.8</ele>
        <time>2022-07-12T04:51:10Z</time>
      </trkpt>
      <trkpt lat="43.5949" lon="1.31834">
        <ele>198.4</ele>
        <time>2022-07-12T04:51:18Z</time>
      </trkpt>
      <trkpt lat="43.59488" lon="1.31865">
        <ele>198.4</ele>
        <time>2022-07-12T04:51:22Z</time>
      </trkpt>
      <trkpt lat="43.59489" lon="1.31888">
        <ele>198.4</ele>
        <time>2022-07-12T04:51:25Z</time>
      </trkpt>
      <trkpt lat="43.5949" lon="1.31896">
        <ele>198.4</ele>
        <time>2022-07-12T04:51:26Z</time>
      </trkpt>
      <trkpt lat="43.59496" lon="1.31918">
        <ele>198.4</ele>
        <time>2022-07-12T04:51:29Z</time>
      </trkpt>
      <trkpt lat="43.59504" lon="1.31938">
        <ele>198.6</ele>
        <time>2022-07-12T04:51:32Z</time>
      </trkpt>
      <trkpt lat="43.59518" lon="1.31963">
        <ele>198.8</ele>
        <time>2022-07-12T04:51:36Z</time>
      </trkpt>
      <trkpt lat="43.59525" lon="1.31974">
        <ele>198.8</ele>
        <time>2022-07-12T04:51:38Z</time>
      </trkpt>
      <trkpt lat="43.59551" lon="1.3199">
        <ele>198.2</ele>
        <time>2022-07-12T04:51:43Z</time>
      </trkpt>
      <trkpt lat="43.59557" lon="1.31993">
        <ele>198</ele>
        <time>2022-07-12T04:51:44Z</time>
      </trkpt>
      <trkpt lat="43.59567" lon="1.31993">
        <ele>198</ele>
        <time>2022-07-12T04:51:46Z</time>
      </trkpt>
      <trkpt lat="43.59572" lon="1.31993">
        <ele>198</ele>
        <time>2022-07-12T04:51:47Z</time>
      </trkpt>
      <trkpt lat="43.59578" lon="1.31994">
        <ele>198</ele>
        <time>2022-07-12T04:51:48Z</time>
      </trkpt>
      <trkpt lat="43.59586" lon="1.32001">
        <ele>198</ele>
        <time>2022-07-12T04:51:50Z</time>
      </trkpt>
      <trkpt lat="43.59594" lon="1.32021">
        <ele>197.8</ele>
        <time>2022-07-12T04:51:53Z</time>
      </trkpt>
      <trkpt lat="43.59597" lon="1.32027">
        <ele>197.8</ele>
        <time>2022-07-12T04:51:54Z</time>
      </trkpt>
      <trkpt lat="43.59602" lon="1.32031">
        <ele>197.8</ele>
        <time>2022-07-12T04:51:55Z</time>
      </trkpt>
      <trkpt lat="43.59618" lon="1.32042">
        <ele>197.8</ele>
        <time>2022-07-12T04:51:58Z</time>
      </trkpt>
      <trkpt lat="43.59655" lon="1.32067">
        <ele>197.6</ele>
        <time>2022-07-12T04:52:05Z</time>
      </trkpt>
      <trkpt lat="43.59677" lon="1.32083">
        <ele>197.6</ele>
        <time>2022-07-12T04:52:09Z</time>
      </trkpt>
      <trkpt lat="43.59688" lon="1.32092">
        <ele>197.6</ele>
        <time>2022-07-12T04:52:11Z</time>
      </trkpt>
      <trkpt lat="43.59733" lon="1.32124">
        <ele>197.6</ele>
        <time>2022-07-12T04:52:19Z</time>
      </trkpt>
      <trkpt lat="43.59766" lon="1.32147">
        <ele>197.4</ele>
        <time>2022-07-12T04:52:25Z</time>
      </trkpt>
      <trkpt lat="43.59772" lon="1.32147">
        <ele>197.4</ele>
        <time>2022-07-12T04:52:26Z</time>
      </trkpt>
      <trkpt lat="43.59776" lon="1.32146">
        <ele>197.2</ele>
        <time>2022-07-12T04:52:27Z</time>
      </trkpt>
      <trkpt lat="43.5978" lon="1.32146">
        <ele>197.2</ele>
        <time>2022-07-12T04:52:28Z</time>
      </trkpt>
      <trkpt lat="43.59783" lon="1.32147">
        <ele>197.2</ele>
        <time>2022-07-12T04:52:29Z</time>
      </trkpt>
      <trkpt lat="43.59789" lon="1.32162">
        <ele>197</ele>
        <time>2022-07-12T04:52:32Z</time>
      </trkpt>
      <trkpt lat="43.59792" lon="1.32168">
        <ele>197</ele>
        <time>2022-07-12T04:52:33Z</time>
      </trkpt>
      <trkpt lat="43.598" lon="1.32176">
        <ele>197</ele>
        <time>2022-07-12T04:52:35Z</time>
      </trkpt>
      <trkpt lat="43.59804" lon="1.3218">
        <ele>197</ele>
        <time>2022-07-12T04:52:36Z</time>
      </trkpt>
      <trkpt lat="43.59809" lon="1.32185">
        <ele>197</ele>
        <time>2022-07-12T04:52:37Z</time>
      </trkpt>
      <trkpt lat="43.59826" lon="1.32205">
        <ele>196.8</ele>
        <time>2022-07-12T04:52:41Z</time>
      </trkpt>
      <trkpt lat="43.59837" lon="1.32211">
        <ele>196.8</ele>
        <time>2022-07-12T04:52:43Z</time>
      </trkpt>
      <trkpt lat="43.5985" lon="1.32214">
        <ele>196.8</ele>
        <time>2022-07-12T04:52:45Z</time>
      </trkpt>
      <trkpt lat="43.59901" lon="1.32222">
        <ele>196.6</ele>
        <time>2022-07-12T04:52:53Z</time>
      </trkpt>
      <trkpt lat="43.59957" lon="1.3223">
        <ele>196.4</ele>
        <time>2022-07-12T04:53:02Z</time>
      </trkpt>
      <trkpt lat="43.59962" lon="1.32233">
        <ele>196.4</ele>
        <time>2022-07-12T04:53:03Z</time>
      </trkpt>
      <trkpt lat="43.59977" lon="1.32245">
        <ele>196.4</ele>
        <time>2022-07-12T04:53:06Z</time>
      </trkpt>
      <trkpt lat="43.59982" lon="1.3225">
        <ele>196.4</ele>
        <time>2022-07-12T04:53:07Z</time>
      </trkpt>
      <trkpt lat="43.59997" lon="1.32268">
        <ele>196.2</ele>
        <time>2022-07-12T04:53:11Z</time>
      </trkpt>
      <trkpt lat="43.60006" lon="1.32272">
        <ele>196.2</ele>
        <time>2022-07-12T04:53:13Z</time>
      </trkpt>
      <trkpt lat="43.60012" lon="1.32272">
        <ele>196.2</ele>
        <time>2022-07-12T04:53:14Z</time>
      </trkpt>
      <trkpt lat="43.60028" lon="1.32267">
        <ele>196</ele>
        <time>2022-07-12T04:53:17Z</time>
      </trkpt>
      <trkpt lat="43.60037" lon="1.32262">
        <ele>195.8</ele>
        <time>2022-07-12T04:53:19Z</time>
      </trkpt>
      <trkpt lat="43.60044" lon="1.32261">
        <ele>195.8</ele>
        <time>2022-07-12T04:53:21Z</time>
      </trkpt>
      <trkpt lat="43.60047" lon="1.32264">
        <ele>195.8</ele>
        <time>2022-07-12T04:53:22Z</time>
      </trkpt>
      <trkpt lat="43.60048" lon="1.32269">
        <ele>195.8</ele>
        <time>2022-07-12T04:53:23Z</time>
      </trkpt>
      <trkpt lat="43.60048" lon="1.32275">
        <ele>195.8</ele>
        <time>2022-07-12T04:53:24Z</time>
      </trkpt>
      <trkpt lat="43.6005" lon="1.32308">
        <ele>196</ele>
        <time>2022-07-12T04:53:29Z</time>
      </trkpt>
      <trkpt lat="43.60055" lon="1.32329">
        <ele>196</ele>
        <time>2022-07-12T04:53:32Z</time>
      </trkpt>
      <trkpt lat="43.60061" lon="1.3234">
        <ele>196</ele>
        <time>2022-07-12T04:53:34Z</time>
      </trkpt>
      <trkpt lat="43.60088" lon="1.32371">
        <ele>195.8</ele>
        <time>2022-07-12T04:53:40Z</time>
      </trkpt>
      <trkpt lat="43.60093" lon="1.32376">
        <ele>195.8</ele>
        <time>2022-07-12T04:53:41Z</time>
      </trkpt>
      <trkpt lat="43.60115" lon="1.32405">
        <ele>195.8</ele>
        <time>2022-07-12T04:53:46Z</time>
      </trkpt>
      <trkpt lat="43.60134" lon="1.32428">
        <ele>195.8</ele>
        <time>2022-07-12T04:53:50Z</time>
      </trkpt>
      <trkpt lat="43.60143" lon="1.32439">
        <ele>195.8</ele>
        <time>2022-07-12T04:53:52Z</time>
      </trkpt>
      <trkpt lat="43.60148" lon="1.32445">
        <ele>195.6</ele>
        <time>2022-07-12T04:53:53Z</time>
      </trkpt>
      <trkpt lat="43.60191" lon="1.32494">
        <ele>195.2</ele>
        <time>2022-07-12T04:54:02Z</time>
      </trkpt>
      <trkpt lat="43.60234" lon="1.32543">
        <ele>195</ele>
        <time>2022-07-12T04:54:11Z</time>
      </trkpt>
      <trkpt lat="43.6027" lon="1.32585">
        <ele>195</ele>
        <time>2022-07-12T04:54:19Z</time>
      </trkpt>
      <trkpt lat="43.60298" lon="1.32617">
        <ele>195</ele>
        <time>2022-07-12T04:54:25Z</time>
      </trkpt>
      <trkpt lat="43.60303" lon="1.32619">
        <ele>195</ele>
        <time>2022-07-12T04:54:26Z</time>
      </trkpt>
      <trkpt lat="43.60309" lon="1.32619">
        <ele>194.8</ele>
        <time>2022-07-12T04:54:27Z</time>
      </trkpt>
      <trkpt lat="43.60328" lon="1.32615">
        <ele>194.8</ele>
        <time>2022-07-12T04:54:30Z</time>
      </trkpt>
      <trkpt lat="43.6036" lon="1.32605">
        <ele>195.2</ele>
        <time>2022-07-12T04:54:35Z</time>
      </trkpt>
      <trkpt lat="43.60366" lon="1.326">
        <ele>195.2</ele>
        <time>2022-07-12T04:54:36Z</time>
      </trkpt>
      <trkpt lat="43.60371" lon="1.32594">
        <ele>195.2</ele>
        <time>2022-07-12T04:54:37Z</time>
      </trkpt>
      <trkpt lat="43.60382" lon="1.32572">
        <ele>195.2</ele>
        <time>2022-07-12T04:54:40Z</time>
      </trkpt>
      <trkpt lat="43.60388" lon="1.32558">
        <ele>195.4</ele>
        <time>2022-07-12T04:54:42Z</time>
      </trkpt>
      <trkpt lat="43.60395" lon="1.32544">
        <ele>195.4</ele>
        <time>2022-07-12T04:54:44Z</time>
      </trkpt>
      <trkpt lat="43.60417" lon="1.325">
        <ele>195.2</ele>
        <time>2022-07-12T04:54:50Z</time>
      </trkpt>
      <trkpt lat="43.60424" lon="1.32486">
        <ele>195</ele>
        <time>2022-07-12T04:54:52Z</time>
      </trkpt>
      <trkpt lat="43.60439" lon="1.32459">
        <ele>194.8</ele>
        <time>2022-07-12T04:54:56Z</time>
      </trkpt>
      <trkpt lat="43.60468" lon="1.32403">
        <ele>194.4</ele>
        <time>2022-07-12T04:55:04Z</time>
      </trkpt>
      <trkpt lat="43.60473" lon="1.32397">
        <ele>194.4</ele>
        <time>2022-07-12T04:55:05Z</time>
      </trkpt>
      <trkpt lat="43.60478" lon="1.32391">
        <ele>194.4</ele>
        <time>2022-07-12T04:55:06Z</time>
      </trkpt>
      <trkpt lat="43.60488" lon="1.32383">
        <ele>194.4</ele>
        <time>2022-07-12T04:55:08Z</time>
      </trkpt>
      <trkpt lat="43.60493" lon="1.3238">
        <ele>194.4</ele>
        <time>2022-07-12T04:55:09Z</time>
      </trkpt>
      <trkpt lat="43.60507" lon="1.32376">
        <ele>194.4</ele>
        <time>2022-07-12T04:55:13Z</time>
      </trkpt>
      <trkpt lat="43.6051" lon="1.32376">
        <ele>194.4</ele>
        <time>2022-07-12T04:55:14Z</time>
      </trkpt>
      <trkpt lat="43.60516" lon="1.32381">
        <ele>194.6</ele>
        <time>2022-07-12T04:55:17Z</time>
      </trkpt>
      <trkpt lat="43.60529" lon="1.32391">
        <ele>194.4</ele>
        <time>2022-07-12T04:55:21Z</time>
      </trkpt>
      <trkpt lat="43.60533" lon="1.32392">
        <ele>194.4</ele>
        <time>2022-07-12T04:55:22Z</time>
      </trkpt>
      <trkpt lat="43.60537" lon="1.32391">
        <ele>194.4</ele>
        <time>2022-07-12T04:55:23Z</time>
      </trkpt>
      <trkpt lat="43.60545" lon="1.32381">
        <ele>194.4</ele>
        <time>2022-07-12T04:55:25Z</time>
      </trkpt>
      <trkpt lat="43.60552" lon="1.32373">
        <ele>194.4</ele>
        <time>2022-07-12T04:55:27Z</time>
      </trkpt>
      <trkpt lat="43.60564" lon="1.32368">
        <ele>194.4</ele>
        <time>2022-07-12T04:55:29Z</time>
      </trkpt>
      <trkpt lat="43.60583" lon="1.32366">
        <ele>194.4</ele>
        <time>2022-07-12T04:55:32Z</time>
      </trkpt>
      <trkpt lat="43.60596" lon="1.32371">
        <ele>194.4</ele>
        <time>2022-07-12T04:55:34Z</time>
      </trkpt>
      <trkpt lat="43.60623" lon="1.32398">
        <ele>194.2</ele>
        <time>2022-07-12T04:55:39Z</time>
      </trkpt>
      <trkpt lat="43.60634" lon="1.32409">
        <ele>194</ele>
        <time>2022-07-12T04:55:41Z</time>
      </trkpt>
      <trkpt lat="43.60645" lon="1.3242">
        <ele>194</ele>
        <time>2022-07-12T04:55:43Z</time>
      </trkpt>
      <trkpt lat="43.60656" lon="1.3243">
        <ele>194</ele>
        <time>2022-07-12T04:55:45Z</time>
      </trkpt>
      <trkpt lat="43.60669" lon="1.32434">
        <ele>194</ele>
        <time>2022-07-12T04:55:47Z</time>
      </trkpt>
      <trkpt lat="43.60686" lon="1.32431">
        <ele>194</ele>
        <time>2022-07-12T04:55:50Z</time>
      </trkpt>
      <trkpt lat="43.6069" lon="1.32428">
        <ele>194</ele>
        <time>2022-07-12T04:55:51Z</time>
      </trkpt>
      <trkpt lat="43.60733" lon="1.32406">
        <ele>193.8</ele>
        <time>2022-07-12T04:55:58Z</time>
      </trkpt>
      <trkpt lat="43.60744" lon="1.32397">
        <ele>193.8</ele>
        <time>2022-07-12T04:56:00Z</time>
      </trkpt>
      <trkpt lat="43.60753" lon="1.32374">
        <ele>193.8</ele>
        <time>2022-07-12T04:56:03Z</time>
      </trkpt>
      <trkpt lat="43.60757" lon="1.32367">
        <ele>193.8</ele>
        <time>2022-07-12T04:56:04Z</time>
      </trkpt>
      <trkpt lat="43.60778" lon="1.32343">
        <ele>193.6</ele>
        <time>2022-07-12T04:56:09Z</time>
      </trkpt>
      <trkpt lat="43.60781" lon="1.32341">
        <ele>193.6</ele>
        <time>2022-07-12T04:56:10Z</time>
      </trkpt>
      <trkpt lat="43.60784" lon="1.32341">
        <ele>193.6</ele>
        <time>2022-07-12T04:56:11Z</time>
      </trkpt>
      <trkpt lat="43.60791" lon="1.32344">
        <ele>193.8</ele>
        <time>2022-07-12T04:56:13Z</time>
      </trkpt>
      <trkpt lat="43.60796" lon="1.32345">
        <ele>193.8</ele>
        <time>2022-07-12T04:56:14Z</time>
      </trkpt>
      <trkpt lat="43.60807" lon="1.32346">
        <ele>193.6</ele>
        <time>2022-07-12T04:56:16Z</time>
      </trkpt>
      <trkpt lat="43.60813" lon="1.32346">
        <ele>193.6</ele>
        <time>2022-07-12T04:56:17Z</time>
      </trkpt>
      <trkpt lat="43.60845" lon="1.32333">
        <ele>193.6</ele>
        <time>2022-07-12T04:56:23Z</time>
      </trkpt>
      <trkpt lat="43.60865" lon="1.3232">
        <ele>193.8</ele>
        <time>2022-07-12T04:56:27Z</time>
      </trkpt>
      <trkpt lat="43.60877" lon="1.32317">
        <ele>194</ele>
        <time>2022-07-12T04:56:29Z</time>
      </trkpt>
      <trkpt lat="43.60889" lon="1.32319">
        <ele>194</ele>
        <time>2022-07-12T04:56:31Z</time>
      </trkpt>
      <trkpt lat="43.60902" lon="1.32317">
        <ele>194</ele>
        <time>2022-07-12T04:56:33Z</time>
      </trkpt>
      <trkpt lat="43.60923" lon="1.32308">
        <ele>194</ele>
        <time>2022-07-12T04:56:37Z</time>
      </trkpt>
      <trkpt lat="43.60938" lon="1.323">
        <ele>194.2</ele>
        <time>2022-07-12T04:56:42Z</time>
      </trkpt>
      <trkpt lat="43.6094" lon="1.323">
        <ele>194.4</ele>
        <time>2022-07-12T04:56:43Z</time>
      </trkpt>
      <trkpt lat="43.60942" lon="1.32305">
        <ele>194.8</ele>
        <time>2022-07-12T04:56:45Z</time>
      </trkpt>
      <trkpt lat="43.60945" lon="1.32318">
        <ele>195.4</ele>
        <time>2022-07-12T04:56:48Z</time>
      </trkpt>
      <trkpt lat="43.60945" lon="1.32322">
        <ele>195.6</ele>
        <time>2022-07-12T04:56:49Z</time>
      </trkpt>
      <trkpt lat="43.60944" lon="1.32325">
        <ele>195.6</ele>
        <time>2022-07-12T04:56:50Z</time>
      </trkpt>
      <trkpt lat="43.60936" lon="1.32329">
        <ele>195.8</ele>
        <time>2022-07-12T04:56:52Z</time>
      </trkpt>
      <trkpt lat="43.60913" lon="1.32339">
        <ele>196</ele>
        <time>2022-07-12T04:56:56Z</time>
      </trkpt>
      <trkpt lat="43.60894" lon="1.32349">
        <ele>195.6</ele>
        <time>2022-07-12T04:57:00Z</time>
      </trkpt>
      <trkpt lat="43.60893" lon="1.3235">
        <ele>195.6</ele>
        <time>2022-07-12T04:57:01Z</time>
      </trkpt>
      <trkpt lat="43.60891" lon="1.32352">
        <ele>195.4</ele>
        <time>2022-07-12T04:57:03Z</time>
      </trkpt>
      <trkpt lat="43.60887" lon="1.32353">
        <ele>195</ele>
        <time>2022-07-12T04:57:05Z</time>
      </trkpt>
      <trkpt lat="43.60875" lon="1.32361">
        <ele>194.8</ele>
        <time>2022-07-12T04:57:09Z</time>
      </trkpt>
      <trkpt lat="43.60873" lon="1.32372">
        <ele>194.6</ele>
        <time>2022-07-12T04:57:11Z</time>
      </trkpt>
      <trkpt lat="43.60873" lon="1.32378">
        <ele>194.4</ele>
        <time>2022-07-12T04:57:12Z</time>
      </trkpt>
      <trkpt lat="43.60874" lon="1.32385">
        <ele>194.4</ele>
        <time>2022-07-12T04:57:13Z</time>
      </trkpt>
      <trkpt lat="43.60882" lon="1.32416">
        <ele>193.8</ele>
        <time>2022-07-12T04:57:18Z</time>
      </trkpt>
      <trkpt lat="43.60884" lon="1.32422">
        <ele>193.8</ele>
        <time>2022-07-12T04:57:19Z</time>
      </trkpt>
      <trkpt lat="43.6089" lon="1.3244">
        <ele>193.6</ele>
        <time>2022-07-12T04:57:22Z</time>
      </trkpt>
      <trkpt lat="43.6089" lon="1.32447">
        <ele>193.4</ele>
        <time>2022-07-12T04:57:23Z</time>
      </trkpt>
      <trkpt lat="43.60892" lon="1.32461">
        <ele>193.4</ele>
        <time>2022-07-12T04:57:25Z</time>
      </trkpt>
      <trkpt lat="43.60894" lon="1.32468">
        <ele>193.2</ele>
        <time>2022-07-12T04:57:26Z</time>
      </trkpt>
      <trkpt lat="43.60898" lon="1.32473">
        <ele>193.2</ele>
        <time>2022-07-12T04:57:27Z</time>
      </trkpt>
      <trkpt lat="43.60911" lon="1.32489">
        <ele>193</ele>
        <time>2022-07-12T04:57:30Z</time>
      </trkpt>
      <trkpt lat="43.60915" lon="1.32494">
        <ele>193</ele>
        <time>2022-07-12T04:57:31Z</time>
      </trkpt>
      <trkpt lat="43.60918" lon="1.32505">
        <ele>193</ele>
        <time>2022-07-12T04:57:33Z</time>
      </trkpt>
      <trkpt lat="43.60915" lon="1.32517">
        <ele>193</ele>
        <time>2022-07-12T04:57:35Z</time>
      </trkpt>
      <trkpt lat="43.60913" lon="1.32523">
        <ele>192.8</ele>
        <time>2022-07-12T04:57:36Z</time>
      </trkpt>
      <trkpt lat="43.60911" lon="1.32529">
        <ele>192.8</ele>
        <time>2022-07-12T04:57:37Z</time>
      </trkpt>
      <trkpt lat="43.60915" lon="1.32542">
        <ele>192.8</ele>
        <time>2022-07-12T04:57:39Z</time>
      </trkpt>
      <trkpt lat="43.60931" lon="1.3256">
        <ele>192.6</ele>
        <time>2022-07-12T04:57:43Z</time>
      </trkpt>
      <trkpt lat="43.60935" lon="1.32562">
        <ele>192.6</ele>
        <time>2022-07-12T04:57:44Z</time>
      </trkpt>
      <trkpt lat="43.60944" lon="1.32565">
        <ele>192.4</ele>
        <time>2022-07-12T04:57:46Z</time>
      </trkpt>
      <trkpt lat="43.60946" lon="1.32567">
        <ele>192.4</ele>
        <time>2022-07-12T04:57:47Z</time>
      </trkpt>
      <trkpt lat="43.60947" lon="1.32573">
        <ele>192.2</ele>
        <time>2022-07-12T04:57:49Z</time>
      </trkpt>
      <trkpt lat="43.60941" lon="1.32586">
        <ele>192.2</ele>
        <time>2022-07-12T04:57:52Z</time>
      </trkpt>
      <trkpt lat="43.60932" lon="1.32599">
        <ele>192</ele>
        <time>2022-07-12T04:57:55Z</time>
      </trkpt>
      <trkpt lat="43.60924" lon="1.32609">
        <ele>192</ele>
        <time>2022-07-12T04:57:57Z</time>
      </trkpt>
      <trkpt lat="43.60911" lon="1.3263">
        <ele>192</ele>
        <time>2022-07-12T04:58:01Z</time>
      </trkpt>
      <trkpt lat="43.60906" lon="1.32633">
        <ele>192</ele>
        <time>2022-07-12T04:58:02Z</time>
      </trkpt>
      <trkpt lat="43.60875" lon="1.32653">
        <ele>192</ele>
        <time>2022-07-12T04:58:08Z</time>
      </trkpt>
      <trkpt lat="43.60871" lon="1.32658">
        <ele>192</ele>
        <time>2022-07-12T04:58:09Z</time>
      </trkpt>
      <trkpt lat="43.60862" lon="1.32677">
        <ele>191.8</ele>
        <time>2022-07-12T04:58:12Z</time>
      </trkpt>
      <trkpt lat="43.60859" lon="1.32693">
        <ele>191.8</ele>
        <time>2022-07-12T04:58:14Z</time>
      </trkpt>
      <trkpt lat="43.60858" lon="1.3271">
        <ele>191.8</ele>
        <time>2022-07-12T04:58:16Z</time>
      </trkpt>
      <trkpt lat="43.60862" lon="1.32727">
        <ele>191.8</ele>
        <time>2022-07-12T04:58:18Z</time>
      </trkpt>
      <trkpt lat="43.60866" lon="1.32734">
        <ele>191.8</ele>
        <time>2022-07-12T04:58:19Z</time>
      </trkpt>
      <trkpt lat="43.6087" lon="1.3274">
        <ele>191.8</ele>
        <time>2022-07-12T04:58:20Z</time>
      </trkpt>
      <trkpt lat="43.60882" lon="1.32748">
        <ele>192</ele>
        <time>2022-07-12T04:58:22Z</time>
      </trkpt>
      <trkpt lat="43.60895" lon="1.32751">
        <ele>192</ele>
        <time>2022-07-12T04:58:24Z</time>
      </trkpt>
      <trkpt lat="43.60909" lon="1.3275">
        <ele>192</ele>
        <time>2022-07-12T04:58:26Z</time>
      </trkpt>
      <trkpt lat="43.60922" lon="1.3275">
        <ele>192</ele>
        <time>2022-07-12T04:58:28Z</time>
      </trkpt>
      <trkpt lat="43.60934" lon="1.32757">
        <ele>192</ele>
        <time>2022-07-12T04:58:30Z</time>
      </trkpt>
      <trkpt lat="43.60963" lon="1.32793">
        <ele>192</ele>
        <time>2022-07-12T04:58:36Z</time>
      </trkpt>
      <trkpt lat="43.61005" lon="1.32848">
        <ele>192.4</ele>
        <time>2022-07-12T04:58:45Z</time>
      </trkpt>
      <trkpt lat="43.61015" lon="1.32859">
        <ele>192.4</ele>
        <time>2022-07-12T04:58:47Z</time>
      </trkpt>
      <trkpt lat="43.61034" lon="1.32883">
        <ele>192.4</ele>
        <time>2022-07-12T04:58:51Z</time>
      </trkpt>
      <trkpt lat="43.61063" lon="1.32917">
        <ele>192.8</ele>
        <time>2022-07-12T04:58:57Z</time>
      </trkpt>
      <trkpt lat="43.61073" lon="1.32937">
        <ele>192.8</ele>
        <time>2022-07-12T04:59:00Z</time>
      </trkpt>
      <trkpt lat="43.61078" lon="1.32942">
        <ele>192.8</ele>
        <time>2022-07-12T04:59:01Z</time>
      </trkpt>
      <trkpt lat="43.61083" lon="1.32945">
        <ele>192.8</ele>
        <time>2022-07-12T04:59:02Z</time>
      </trkpt>
      <trkpt lat="43.61089" lon="1.32944">
        <ele>192.8</ele>
        <time>2022-07-12T04:59:03Z</time>
      </trkpt>
      <trkpt lat="43.61094" lon="1.32942">
        <ele>192.8</ele>
        <time>2022-07-12T04:59:04Z</time>
      </trkpt>
      <trkpt lat="43.61099" lon="1.32937">
        <ele>192.8</ele>
        <time>2022-07-12T04:59:06Z</time>
      </trkpt>
      <trkpt lat="43.61101" lon="1.32936">
        <ele>192.8</ele>
        <time>2022-07-12T04:59:07Z</time>
      </trkpt>
      <trkpt lat="43.61103" lon="1.32938">
        <ele>192.8</ele>
        <time>2022-07-12T04:59:09Z</time>
      </trkpt>
      <trkpt lat="43.61104" lon="1.32941">
        <ele>192.8</ele>
        <time>2022-07-12T04:59:11Z</time>
      </trkpt>
      <trkpt lat="43.61106" lon="1.3294">
        <ele>192.8</ele>
        <time>2022-07-12T04:59:13Z</time>
      </trkpt>
      <trkpt lat="43.61105" lon="1.32936">
        <ele>192.8</ele>
        <time>2022-07-12T04:59:15Z</time>
      </trkpt>
      <trkpt lat="43.61104" lon="1.32935">
        <ele>192.8</ele>
        <time>2022-07-12T04:59:16Z</time>
      </trkpt>
      <trkpt lat="43.61095" lon="1.32941">
        <ele>192.6</ele>
        <time>2022-07-12T04:59:20Z</time>
      </trkpt>
      <trkpt lat="43.61084" lon="1.32946">
        <ele>192.4</ele>
        <time>2022-07-12T04:59:24Z</time>
      </trkpt>
      <trkpt lat="43.61067" lon="1.32946">
        <ele>192.6</ele>
        <time>2022-07-12T04:59:28Z</time>
      </trkpt>
      <trkpt lat="43.61062" lon="1.32947">
        <ele>192.6</ele>
        <time>2022-07-12T04:59:29Z</time>
      </trkpt>
      <trkpt lat="43.61046" lon="1.32954">
        <ele>192.6</ele>
        <time>2022-07-12T04:59:34Z</time>
      </trkpt>
      <trkpt lat="43.61053" lon="1.32961">
        <ele>192.6</ele>
        <time>2022-07-12T04:59:37Z</time>
      </trkpt>
      <trkpt lat="43.61061" lon="1.32964">
        <ele>192.6</ele>
        <time>2022-07-12T04:59:39Z</time>
      </trkpt>
      <trkpt lat="43.61069" lon="1.32967">
        <ele>192.8</ele>
        <time>2022-07-12T04:59:41Z</time>
      </trkpt>
      <trkpt lat="43.61093" lon="1.32976">
        <ele>192.8</ele>
        <time>2022-07-12T04:59:47Z</time>
      </trkpt>
      <trkpt lat="43.6111" lon="1.32984">
        <ele>192.8</ele>
        <time>2022-07-12T04:59:51Z</time>
      </trkpt>
      <trkpt lat="43.61116" lon="1.32988">
        <ele>193.2</ele>
        <time>2022-07-12T04:59:56Z</time>
      </trkpt>
      <trkpt lat="43.61116" lon="1.32988">
        <ele>193.4</ele>
        <time>2022-07-12T04:59:57Z</time>
      </trkpt>
      <trkpt lat="43.61109" lon="1.3299">
        <ele>194.4</ele>
        <time>2022-07-12T05:00:05Z</time>
      </trkpt>
      <trkpt lat="43.61106" lon="1.32989">
        <ele>194.4</ele>
        <time>2022-07-12T05:00:06Z</time>
      </trkpt>
      <trkpt lat="43.61093" lon="1.32985">
        <ele>194.4</ele>
        <time>2022-07-12T05:00:09Z</time>
      </trkpt>
      <trkpt lat="43.61083" lon="1.32982">
        <ele>194.2</ele>
        <time>2022-07-12T05:00:11Z</time>
      </trkpt>
      <trkpt lat="43.61072" lon="1.3298">
        <ele>193.8</ele>
        <time>2022-07-12T05:00:13Z</time>
      </trkpt>
      <trkpt lat="43.61055" lon="1.32974">
        <ele>193.6</ele>
        <time>2022-07-12T05:00:16Z</time>
      </trkpt>
      <trkpt lat="43.61044" lon="1.32969">
        <ele>193.4</ele>
        <time>2022-07-12T05:00:18Z</time>
      </trkpt>
      <trkpt lat="43.61034" lon="1.32965">
        <ele>193.2</ele>
        <time>2022-07-12T05:00:20Z</time>
      </trkpt>
      <trkpt lat="43.61023" lon="1.32961">
        <ele>193.2</ele>
        <time>2022-07-12T05:00:22Z</time>
      </trkpt>
      <trkpt lat="43.60999" lon="1.32952">
        <ele>192.8</ele>
        <time>2022-07-12T05:00:28Z</time>
      </trkpt>
      <trkpt lat="43.60996" lon="1.32946">
        <ele>192.6</ele>
        <time>2022-07-12T05:00:31Z</time>
      </trkpt>
      <trkpt lat="43.60992" lon="1.32942">
        <ele>192.4</ele>
        <time>2022-07-12T05:00:35Z</time>
      </trkpt>
      <trkpt lat="43.60989" lon="1.32943">
        <ele>192.4</ele>
        <time>2022-07-12T05:00:36Z</time>
      </trkpt>
      <trkpt lat="43.60987" lon="1.32947">
        <ele>192.2</ele>
        <time>2022-07-12T05:00:37Z</time>
      </trkpt>
      <trkpt lat="43.60984" lon="1.32957">
        <ele>192.2</ele>
        <time>2022-07-12T05:00:39Z</time>
      </trkpt>
      <trkpt lat="43.60982" lon="1.32991">
        <ele>192.2</ele>
        <time>2022-07-12T05:00:45Z</time>
      </trkpt>
      <trkpt lat="43.60977" lon="1.32999">
        <ele>192.2</ele>
        <time>2022-07-12T05:00:48Z</time>
      </trkpt>
      <trkpt lat="43.60975" lon="1.32999">
        <ele>192.2</ele>
        <time>2022-07-12T05:00:49Z</time>
      </trkpt>
      <trkpt lat="43.60961" lon="1.32995">
        <ele>192.2</ele>
        <time>2022-07-12T05:00:53Z</time>
      </trkpt>
      <trkpt lat="43.60946" lon="1.33002">
        <ele>192.2</ele>
        <time>2022-07-12T05:00:57Z</time>
      </trkpt>
      <trkpt lat="43.60941" lon="1.33006">
        <ele>192.2</ele>
        <time>2022-07-12T05:00:58Z</time>
      </trkpt>
      <trkpt lat="43.60938" lon="1.33019">
        <ele>192.2</ele>
        <time>2022-07-12T05:01:00Z</time>
      </trkpt>
      <trkpt lat="43.60937" lon="1.33026">
        <ele>192.2</ele>
        <time>2022-07-12T05:01:01Z</time>
      </trkpt>
      <trkpt lat="43.60931" lon="1.3306">
        <ele>192.4</ele>
        <time>2022-07-12T05:01:06Z</time>
      </trkpt>
      <trkpt lat="43.60925" lon="1.3308">
        <ele>192.4</ele>
        <time>2022-07-12T05:01:09Z</time>
      </trkpt>
      <trkpt lat="43.60919" lon="1.33107">
        <ele>192.2</ele>
        <time>2022-07-12T05:01:13Z</time>
      </trkpt>
      <trkpt lat="43.60915" lon="1.33125">
        <ele>192.2</ele>
        <time>2022-07-12T05:01:17Z</time>
      </trkpt>
      <trkpt lat="43.60911" lon="1.33137">
        <ele>192</ele>
        <time>2022-07-12T05:01:21Z</time>
      </trkpt>
      <trkpt lat="43.60911" lon="1.33141">
        <ele>192</ele>
        <time>2022-07-12T05:01:22Z</time>
      </trkpt>
      <trkpt lat="43.6092" lon="1.33152">
        <ele>192</ele>
        <time>2022-07-12T05:01:26Z</time>
      </trkpt>
      <trkpt lat="43.60943" lon="1.33155">
        <ele>191.6</ele>
        <time>2022-07-12T05:01:31Z</time>
      </trkpt>
      <trkpt lat="43.60948" lon="1.33156">
        <ele>191.6</ele>
        <time>2022-07-12T05:01:32Z</time>
      </trkpt>
      <trkpt lat="43.60952" lon="1.33155">
        <ele>191.6</ele>
        <time>2022-07-12T05:01:33Z</time>
      </trkpt>
      <trkpt lat="43.60965" lon="1.3316">
        <ele>191.4</ele>
        <time>2022-07-12T05:01:36Z</time>
      </trkpt>
      <trkpt lat="43.6097" lon="1.33164">
        <ele>191.4</ele>
        <time>2022-07-12T05:01:37Z</time>
      </trkpt>
      <trkpt lat="43.60983" lon="1.33185">
        <ele>191.4</ele>
        <time>2022-07-12T05:01:41Z</time>
      </trkpt>
      <trkpt lat="43.60989" lon="1.33213">
        <ele>191.4</ele>
        <time>2022-07-12T05:01:45Z</time>
      </trkpt>
      <trkpt lat="43.60989" lon="1.33227">
        <ele>191.4</ele>
        <time>2022-07-12T05:01:47Z</time>
      </trkpt>
      <trkpt lat="43.60986" lon="1.33246">
        <ele>191.4</ele>
        <time>2022-07-12T05:01:50Z</time>
      </trkpt>
      <trkpt lat="43.60984" lon="1.33265">
        <ele>191.4</ele>
        <time>2022-07-12T05:01:53Z</time>
      </trkpt>
      <trkpt lat="43.60983" lon="1.33272">
        <ele>191.4</ele>
        <time>2022-07-12T05:01:54Z</time>
      </trkpt>
      <trkpt lat="43.60981" lon="1.33279">
        <ele>191.2</ele>
        <time>2022-07-12T05:01:55Z</time>
      </trkpt>
      <trkpt lat="43.60978" lon="1.33286">
        <ele>191.2</ele>
        <time>2022-07-12T05:01:56Z</time>
      </trkpt>
      <trkpt lat="43.60974" lon="1.33306">
        <ele>191.4</ele>
        <time>2022-07-12T05:01:59Z</time>
      </trkpt>
      <trkpt lat="43.6097" lon="1.33316">
        <ele>191.6</ele>
        <time>2022-07-12T05:02:01Z</time>
      </trkpt>
      <trkpt lat="43.60962" lon="1.33325">
        <ele>191.6</ele>
        <time>2022-07-12T05:02:04Z</time>
      </trkpt>
      <trkpt lat="43.60956" lon="1.33347">
        <ele>191.6</ele>
        <time>2022-07-12T05:02:08Z</time>
      </trkpt>
      <trkpt lat="43.60955" lon="1.33353">
        <ele>191.6</ele>
        <time>2022-07-12T05:02:09Z</time>
      </trkpt>
      <trkpt lat="43.60948" lon="1.33378">
        <ele>191.6</ele>
        <time>2022-07-12T05:02:13Z</time>
      </trkpt>
      <trkpt lat="43.60943" lon="1.33389">
        <ele>191.8</ele>
        <time>2022-07-12T05:02:15Z</time>
      </trkpt>
      <trkpt lat="43.60936" lon="1.33406">
        <ele>192</ele>
        <time>2022-07-12T05:02:19Z</time>
      </trkpt>
      <trkpt lat="43.60934" lon="1.3341">
        <ele>192</ele>
        <time>2022-07-12T05:02:20Z</time>
      </trkpt>
      <trkpt lat="43.60934" lon="1.33417">
        <ele>192</ele>
        <time>2022-07-12T05:02:22Z</time>
      </trkpt>
      <trkpt lat="43.60931" lon="1.33418">
        <ele>192.2</ele>
        <time>2022-07-12T05:02:26Z</time>
      </trkpt>
      <trkpt lat="43.60915" lon="1.3344">
        <ele>192.2</ele>
        <time>2022-07-12T05:02:30Z</time>
      </trkpt>
      <trkpt lat="43.609" lon="1.33463">
        <ele>192.2</ele>
        <time>2022-07-12T05:02:34Z</time>
      </trkpt>
      <trkpt lat="43.60897" lon="1.3347">
        <ele>192.2</ele>
        <time>2022-07-12T05:02:35Z</time>
      </trkpt>
      <trkpt lat="43.6089" lon="1.33484">
        <ele>192.2</ele>
        <time>2022-07-12T05:02:37Z</time>
      </trkpt>
      <trkpt lat="43.60883" lon="1.33496">
        <ele>192.2</ele>
        <time>2022-07-12T05:02:39Z</time>
      </trkpt>
      <trkpt lat="43.60882" lon="1.33508">
        <ele>192.2</ele>
        <time>2022-07-12T05:02:41Z</time>
      </trkpt>
      <trkpt lat="43.6088" lon="1.33523">
        <ele>192.2</ele>
        <time>2022-07-12T05:02:43Z</time>
      </trkpt>
      <trkpt lat="43.60877" lon="1.33532">
        <ele>192.2</ele>
        <time>2022-07-12T05:02:44Z</time>
      </trkpt>
      <trkpt lat="43.60875" lon="1.3354">
        <ele>192.2</ele>
        <time>2022-07-12T05:02:45Z</time>
      </trkpt>
      <trkpt lat="43.60866" lon="1.33559">
        <ele>192.2</ele>
        <time>2022-07-12T05:02:49Z</time>
      </trkpt>
      <trkpt lat="43.60861" lon="1.33578">
        <ele>192</ele>
        <time>2022-07-12T05:02:54Z</time>
      </trkpt>
      <trkpt lat="43.60858" lon="1.33584">
        <ele>192</ele>
        <time>2022-07-12T05:02:55Z</time>
      </trkpt>
      <trkpt lat="43.60851" lon="1.33596">
        <ele>191.8</ele>
        <time>2022-07-12T05:02:57Z</time>
      </trkpt>
      <trkpt lat="43.60847" lon="1.33605">
        <ele>191.8</ele>
        <time>2022-07-12T05:02:58Z</time>
      </trkpt>
      <trkpt lat="43.60846" lon="1.33612">
        <ele>191.8</ele>
        <time>2022-07-12T05:02:59Z</time>
      </trkpt>
      <trkpt lat="43.60848" lon="1.33624">
        <ele>191.4</ele>
        <time>2022-07-12T05:03:01Z</time>
      </trkpt>
      <trkpt lat="43.60844" lon="1.33636">
        <ele>191.2</ele>
        <time>2022-07-12T05:03:03Z</time>
      </trkpt>
      <trkpt lat="43.60842" lon="1.33641">
        <ele>191</ele>
        <time>2022-07-12T05:03:04Z</time>
      </trkpt>
      <trkpt lat="43.60833" lon="1.33645">
        <ele>191</ele>
        <time>2022-07-12T05:03:07Z</time>
      </trkpt>
      <trkpt lat="43.60829" lon="1.33647">
        <ele>191</ele>
        <time>2022-07-12T05:03:09Z</time>
      </trkpt>
      <trkpt lat="43.60827" lon="1.33653">
        <ele>190.8</ele>
        <time>2022-07-12T05:03:11Z</time>
      </trkpt>
      <trkpt lat="43.60832" lon="1.33657">
        <ele>191</ele>
        <time>2022-07-12T05:03:14Z</time>
      </trkpt>
      <trkpt lat="43.60834" lon="1.33657">
        <ele>191</ele>
        <time>2022-07-12T05:03:15Z</time>
      </trkpt>
      <trkpt lat="43.60834" lon="1.33656">
        <ele>191</ele>
        <time>2022-07-12T05:03:17Z</time>
      </trkpt>
      <trkpt lat="43.60832" lon="1.33655">
        <ele>191.2</ele>
        <time>2022-07-12T05:03:19Z</time>
      </trkpt>
      <trkpt lat="43.60826" lon="1.33656">
        <ele>191.2</ele>
        <time>2022-07-12T05:03:22Z</time>
      </trkpt>
      <trkpt lat="43.60823" lon="1.33655">
        <ele>191.2</ele>
        <time>2022-07-12T05:03:24Z</time>
      </trkpt>
      <trkpt lat="43.60823" lon="1.33653">
        <ele>191.2</ele>
        <time>2022-07-12T05:03:25Z</time>
      </trkpt>
      <trkpt lat="43.60836" lon="1.33647">
        <ele>191.2</ele>
        <time>2022-07-12T05:03:29Z</time>
      </trkpt>
      <trkpt lat="43.60854" lon="1.33637">
        <ele>191.6</ele>
        <time>2022-07-12T05:03:34Z</time>
      </trkpt>
      <trkpt lat="43.60872" lon="1.33634">
        <ele>192</ele>
        <time>2022-07-12T05:03:39Z</time>
      </trkpt>
      <trkpt lat="43.60882" lon="1.33631">
        <ele>192</ele>
        <time>2022-07-12T05:03:41Z</time>
      </trkpt>
      <trkpt lat="43.60893" lon="1.33633">
        <ele>192.2</ele>
        <time>2022-07-12T05:03:43Z</time>
      </trkpt>
      <trkpt lat="43.60904" lon="1.33638">
        <ele>192.2</ele>
        <time>2022-07-12T05:03:45Z</time>
      </trkpt>
      <trkpt lat="43.60921" lon="1.33641">
        <ele>192.2</ele>
        <time>2022-07-12T05:03:48Z</time>
      </trkpt>
      <trkpt lat="43.60933" lon="1.33643">
        <ele>192.2</ele>
        <time>2022-07-12T05:03:50Z</time>
      </trkpt>
      <trkpt lat="43.60951" lon="1.33648">
        <ele>192</ele>
        <time>2022-07-12T05:03:53Z</time>
      </trkpt>
      <trkpt lat="43.61001" lon="1.33659">
        <ele>191.6</ele>
        <time>2022-07-12T05:04:00Z</time>
      </trkpt>
      <trkpt lat="43.61061" lon="1.33673">
        <ele>191</ele>
        <time>2022-07-12T05:04:08Z</time>
      </trkpt>
      <trkpt lat="43.61076" lon="1.33676">
        <ele>190.6</ele>
        <time>2022-07-12T05:04:10Z</time>
      </trkpt>
      <trkpt lat="43.61083" lon="1.33678">
        <ele>190.4</ele>
        <time>2022-07-12T05:04:11Z</time>
      </trkpt>
      <trkpt lat="43.61095" lon="1.33684">
        <ele>190.2</ele>
        <time>2022-07-12T05:04:13Z</time>
      </trkpt>
      <trkpt lat="43.61104" lon="1.33696">
        <ele>190.2</ele>
        <time>2022-07-12T05:04:15Z</time>
      </trkpt>
      <trkpt lat="43.61108" lon="1.33703">
        <ele>190</ele>
        <time>2022-07-12T05:04:16Z</time>
      </trkpt>
      <trkpt lat="43.61112" lon="1.3371">
        <ele>190</ele>
        <time>2022-07-12T05:04:17Z</time>
      </trkpt>
      <trkpt lat="43.61123" lon="1.33721">
        <ele>190</ele>
        <time>2022-07-12T05:04:19Z</time>
      </trkpt>
      <trkpt lat="43.61129" lon="1.33724">
        <ele>190</ele>
        <time>2022-07-12T05:04:20Z</time>
      </trkpt>
      <trkpt lat="43.6116" lon="1.33732">
        <ele>190</ele>
        <time>2022-07-12T05:04:25Z</time>
      </trkpt>
      <trkpt lat="43.61201" lon="1.33752">
        <ele>190</ele>
        <time>2022-07-12T05:04:31Z</time>
      </trkpt>
      <trkpt lat="43.61247" lon="1.33788">
        <ele>189.6</ele>
        <time>2022-07-12T05:04:37Z</time>
      </trkpt>
      <trkpt lat="43.61286" lon="1.33833">
        <ele>188.6</ele>
        <time>2022-07-12T05:04:42Z</time>
      </trkpt>
      <trkpt lat="43.61328" lon="1.3388">
        <ele>187.6</ele>
        <time>2022-07-12T05:04:47Z</time>
      </trkpt>
      <trkpt lat="43.61336" lon="1.33889">
        <ele>186.8</ele>
        <time>2022-07-12T05:04:48Z</time>
      </trkpt>
      <trkpt lat="43.61343" lon="1.33899">
        <ele>186.2</ele>
        <time>2022-07-12T05:04:49Z</time>
      </trkpt>
      <trkpt lat="43.61359" lon="1.33933">
        <ele>185.4</ele>
        <time>2022-07-12T05:04:52Z</time>
      </trkpt>
      <trkpt lat="43.61363" lon="1.33946">
        <ele>184.8</ele>
        <time>2022-07-12T05:04:53Z</time>
      </trkpt>
      <trkpt lat="43.61373" lon="1.33982">
        <ele>183.8</ele>
        <time>2022-07-12T05:04:56Z</time>
      </trkpt>
      <trkpt lat="43.61374" lon="1.33993">
        <ele>183.6</ele>
        <time>2022-07-12T05:04:57Z</time>
      </trkpt>
      <trkpt lat="43.61374" lon="1.34014">
        <ele>183.2</ele>
        <time>2022-07-12T05:04:59Z</time>
      </trkpt>
      <trkpt lat="43.61377" lon="1.34043">
        <ele>182</ele>
        <time>2022-07-12T05:05:02Z</time>
      </trkpt>
      <trkpt lat="43.61379" lon="1.34053">
        <ele>181.6</ele>
        <time>2022-07-12T05:05:03Z</time>
      </trkpt>
      <trkpt lat="43.61382" lon="1.34061">
        <ele>181.6</ele>
        <time>2022-07-12T05:05:04Z</time>
      </trkpt>
      <trkpt lat="43.61387" lon="1.34077">
        <ele>181</ele>
        <time>2022-07-12T05:05:06Z</time>
      </trkpt>
      <trkpt lat="43.61388" lon="1.34089">
        <ele>180.4</ele>
        <time>2022-07-12T05:05:08Z</time>
      </trkpt>
      <trkpt lat="43.6139" lon="1.34093">
        <ele>179.8</ele>
        <time>2022-07-12T05:05:09Z</time>
      </trkpt>
      <trkpt lat="43.61392" lon="1.34095">
        <ele>179.6</ele>
        <time>2022-07-12T05:05:10Z</time>
      </trkpt>
      <trkpt lat="43.61396" lon="1.34097">
        <ele>179.4</ele>
        <time>2022-07-12T05:05:11Z</time>
      </trkpt>
      <trkpt lat="43.61404" lon="1.34098">
        <ele>179.2</ele>
        <time>2022-07-12T05:05:13Z</time>
      </trkpt>
      <trkpt lat="43.61418" lon="1.34098">
        <ele>178.6</ele>
        <time>2022-07-12T05:05:16Z</time>
      </trkpt>
      <trkpt lat="43.61436" lon="1.34096">
        <ele>178.2</ele>
        <time>2022-07-12T05:05:20Z</time>
      </trkpt>
      <trkpt lat="43.61445" lon="1.3409">
        <ele>178</ele>
        <time>2022-07-12T05:05:22Z</time>
      </trkpt>
      <trkpt lat="43.61451" lon="1.34079">
        <ele>177.6</ele>
        <time>2022-07-12T05:05:24Z</time>
      </trkpt>
      <trkpt lat="43.61454" lon="1.34073">
        <ele>177.6</ele>
        <time>2022-07-12T05:05:25Z</time>
      </trkpt>
      <trkpt lat="43.6146" lon="1.34061">
        <ele>177.4</ele>
        <time>2022-07-12T05:05:27Z</time>
      </trkpt>
      <trkpt lat="43.61468" lon="1.34052">
        <ele>177.4</ele>
        <time>2022-07-12T05:05:29Z</time>
      </trkpt>
      <trkpt lat="43.61473" lon="1.34048">
        <ele>177.4</ele>
        <time>2022-07-12T05:05:30Z</time>
      </trkpt>
      <trkpt lat="43.61482" lon="1.34043">
        <ele>177.2</ele>
        <time>2022-07-12T05:05:32Z</time>
      </trkpt>
      <trkpt lat="43.61498" lon="1.34039">
        <ele>177.4</ele>
        <time>2022-07-12T05:05:35Z</time>
      </trkpt>
      <trkpt lat="43.61546" lon="1.34028">
        <ele>178</ele>
        <time>2022-07-12T05:05:44Z</time>
      </trkpt>
      <trkpt lat="43.61584" lon="1.34019">
        <ele>178.6</ele>
        <time>2022-07-12T05:05:51Z</time>
      </trkpt>
      <trkpt lat="43.61599" lon="1.34016">
        <ele>179</ele>
        <time>2022-07-12T05:05:54Z</time>
      </trkpt>
      <trkpt lat="43.61625" lon="1.34013">
        <ele>179.6</ele>
        <time>2022-07-12T05:05:59Z</time>
      </trkpt>
      <trkpt lat="43.61636" lon="1.34013">
        <ele>179.6</ele>
        <time>2022-07-12T05:06:01Z</time>
      </trkpt>
      <trkpt lat="43.61661" lon="1.34011">
        <ele>180</ele>
        <time>2022-07-12T05:06:06Z</time>
      </trkpt>
      <trkpt lat="43.61666" lon="1.34008">
        <ele>180.2</ele>
        <time>2022-07-12T05:06:07Z</time>
      </trkpt>
      <trkpt lat="43.61674" lon="1.34001">
        <ele>180.4</ele>
        <time>2022-07-12T05:06:09Z</time>
      </trkpt>
      <trkpt lat="43.61684" lon="1.34">
        <ele>180.6</ele>
        <time>2022-07-12T05:06:11Z</time>
      </trkpt>
      <trkpt lat="43.61694" lon="1.33999">
        <ele>180.8</ele>
        <time>2022-07-12T05:06:13Z</time>
      </trkpt>
      <trkpt lat="43.61699" lon="1.33997">
        <ele>180.8</ele>
        <time>2022-07-12T05:06:14Z</time>
      </trkpt>
      <trkpt lat="43.61709" lon="1.33993">
        <ele>181</ele>
        <time>2022-07-12T05:06:16Z</time>
      </trkpt>
      <trkpt lat="43.61757" lon="1.33966">
        <ele>181.6</ele>
        <time>2022-07-12T05:06:26Z</time>
      </trkpt>
      <trkpt lat="43.61766" lon="1.33959">
        <ele>182</ele>
        <time>2022-07-12T05:06:28Z</time>
      </trkpt>
      <trkpt lat="43.61799" lon="1.3393">
        <ele>182.6</ele>
        <time>2022-07-12T05:06:36Z</time>
      </trkpt>
      <trkpt lat="43.61803" lon="1.33927">
        <ele>182.8</ele>
        <time>2022-07-12T05:06:37Z</time>
      </trkpt>
      <trkpt lat="43.61812" lon="1.33928">
        <ele>183</ele>
        <time>2022-07-12T05:06:39Z</time>
      </trkpt>
      <trkpt lat="43.61817" lon="1.33934">
        <ele>183.2</ele>
        <time>2022-07-12T05:06:41Z</time>
      </trkpt>
      <trkpt lat="43.61817" lon="1.33939">
        <ele>183.2</ele>
        <time>2022-07-12T05:06:42Z</time>
      </trkpt>
      <trkpt lat="43.61816" lon="1.33944">
        <ele>183.4</ele>
        <time>2022-07-12T05:06:43Z</time>
      </trkpt>
      <trkpt lat="43.61809" lon="1.33955">
        <ele>183.4</ele>
        <time>2022-07-12T05:06:45Z</time>
      </trkpt>
      <trkpt lat="43.61804" lon="1.33961">
        <ele>183.4</ele>
        <time>2022-07-12T05:06:46Z</time>
      </trkpt>
      <trkpt lat="43.61787" lon="1.33979">
        <ele>183.4</ele>
        <time>2022-07-12T05:06:49Z</time>
      </trkpt>
      <trkpt lat="43.61776" lon="1.33989">
        <ele>183.4</ele>
        <time>2022-07-12T05:06:51Z</time>
      </trkpt>
      <trkpt lat="43.61767" lon="1.33992">
        <ele>183</ele>
        <time>2022-07-12T05:06:53Z</time>
      </trkpt>
      <trkpt lat="43.61764" lon="1.33994">
        <ele>182.2</ele>
        <time>2022-07-12T05:06:55Z</time>
      </trkpt>
      <trkpt lat="43.61764" lon="1.33996">
        <ele>182</ele>
        <time>2022-07-12T05:06:56Z</time>
      </trkpt>
      <trkpt lat="43.61763" lon="1.33998">
        <ele>181.6</ele>
        <time>2022-07-12T05:06:57Z</time>
      </trkpt>
      <trkpt lat="43.61767" lon="1.34015">
        <ele>181</ele>
        <time>2022-07-12T05:07:00Z</time>
      </trkpt>
      <trkpt lat="43.61771" lon="1.34031">
        <ele>180.4</ele>
        <time>2022-07-12T05:07:02Z</time>
      </trkpt>
      <trkpt lat="43.61776" lon="1.34051">
        <ele>180</ele>
        <time>2022-07-12T05:07:04Z</time>
      </trkpt>
      <trkpt lat="43.61782" lon="1.34072">
        <ele>179.2</ele>
        <time>2022-07-12T05:07:06Z</time>
      </trkpt>
      <trkpt lat="43.6179" lon="1.34103">
        <ele>178.2</ele>
        <time>2022-07-12T05:07:09Z</time>
      </trkpt>
      <trkpt lat="43.61795" lon="1.34123">
        <ele>177.4</ele>
        <time>2022-07-12T05:07:12Z</time>
      </trkpt>
      <trkpt lat="43.61795" lon="1.34126">
        <ele>176.8</ele>
        <time>2022-07-12T05:07:13Z</time>
      </trkpt>
      <trkpt lat="43.61799" lon="1.34143">
        <ele>175.6</ele>
        <time>2022-07-12T05:07:16Z</time>
      </trkpt>
      <trkpt lat="43.61801" lon="1.34148">
        <ele>175.4</ele>
        <time>2022-07-12T05:07:17Z</time>
      </trkpt>
      <trkpt lat="43.61807" lon="1.34159">
        <ele>175</ele>
        <time>2022-07-12T05:07:19Z</time>
      </trkpt>
      <trkpt lat="43.6181" lon="1.34164">
        <ele>174.6</ele>
        <time>2022-07-12T05:07:20Z</time>
      </trkpt>
      <trkpt lat="43.61818" lon="1.34176">
        <ele>173.8</ele>
        <time>2022-07-12T05:07:22Z</time>
      </trkpt>
      <trkpt lat="43.61828" lon="1.34188">
        <ele>173.4</ele>
        <time>2022-07-12T05:07:24Z</time>
      </trkpt>
      <trkpt lat="43.61847" lon="1.34213">
        <ele>172.4</ele>
        <time>2022-07-12T05:07:28Z</time>
      </trkpt>
      <trkpt lat="43.61879" lon="1.34249">
        <ele>171.2</ele>
        <time>2022-07-12T05:07:34Z</time>
      </trkpt>
      <trkpt lat="43.61889" lon="1.34261">
        <ele>171</ele>
        <time>2022-07-12T05:07:36Z</time>
      </trkpt>
      <trkpt lat="43.61915" lon="1.34295">
        <ele>170.2</ele>
        <time>2022-07-12T05:07:41Z</time>
      </trkpt>
      <trkpt lat="43.61926" lon="1.34307">
        <ele>169.8</ele>
        <time>2022-07-12T05:07:43Z</time>
      </trkpt>
      <trkpt lat="43.61931" lon="1.34313">
        <ele>169.8</ele>
        <time>2022-07-12T05:07:44Z</time>
      </trkpt>
      <trkpt lat="43.61942" lon="1.34321">
        <ele>169.4</ele>
        <time>2022-07-12T05:07:46Z</time>
      </trkpt>
      <trkpt lat="43.61947" lon="1.34325">
        <ele>169.2</ele>
        <time>2022-07-12T05:07:47Z</time>
      </trkpt>
      <trkpt lat="43.61952" lon="1.34331">
        <ele>169</ele>
        <time>2022-07-12T05:07:48Z</time>
      </trkpt>
      <trkpt lat="43.61962" lon="1.34341">
        <ele>168.8</ele>
        <time>2022-07-12T05:07:50Z</time>
      </trkpt>
      <trkpt lat="43.61972" lon="1.34349">
        <ele>168.6</ele>
        <time>2022-07-12T05:07:52Z</time>
      </trkpt>
      <trkpt lat="43.62006" lon="1.34385">
        <ele>168.2</ele>
        <time>2022-07-12T05:07:59Z</time>
      </trkpt>
      <trkpt lat="43.62011" lon="1.34392">
        <ele>168</ele>
        <time>2022-07-12T05:08:00Z</time>
      </trkpt>
      <trkpt lat="43.62015" lon="1.34399">
        <ele>168</ele>
        <time>2022-07-12T05:08:01Z</time>
      </trkpt>
      <trkpt lat="43.62028" lon="1.34419">
        <ele>167.8</ele>
        <time>2022-07-12T05:08:03Z</time>
      </trkpt>
      <trkpt lat="43.6203" lon="1.34436">
        <ele>167.4</ele>
        <time>2022-07-12T05:08:05Z</time>
      </trkpt>
      <trkpt lat="43.62028" lon="1.3445">
        <ele>167.2</ele>
        <time>2022-07-12T05:08:07Z</time>
      </trkpt>
      <trkpt lat="43.62025" lon="1.34457">
        <ele>167.2</ele>
        <time>2022-07-12T05:08:09Z</time>
      </trkpt>
      <trkpt lat="43.62025" lon="1.34461">
        <ele>167</ele>
        <time>2022-07-12T05:08:11Z</time>
      </trkpt>
      <trkpt lat="43.62029" lon="1.34465">
        <ele>166.6</ele>
        <time>2022-07-12T05:08:13Z</time>
      </trkpt>
      <trkpt lat="43.62038" lon="1.3446">
        <ele>166.6</ele>
        <time>2022-07-12T05:08:16Z</time>
      </trkpt>
      <trkpt lat="43.62054" lon="1.34456">
        <ele>166.4</ele>
        <time>2022-07-12T05:08:20Z</time>
      </trkpt>
      <trkpt lat="43.62064" lon="1.34457">
        <ele>166.2</ele>
        <time>2022-07-12T05:08:22Z</time>
      </trkpt>
      <trkpt lat="43.62069" lon="1.34458">
        <ele>166</ele>
        <time>2022-07-12T05:08:23Z</time>
      </trkpt>
      <trkpt lat="43.62074" lon="1.34461">
        <ele>165.8</ele>
        <time>2022-07-12T05:08:24Z</time>
      </trkpt>
      <trkpt lat="43.62079" lon="1.34465">
        <ele>165.6</ele>
        <time>2022-07-12T05:08:25Z</time>
      </trkpt>
      <trkpt lat="43.62113" lon="1.34502">
        <ele>165.2</ele>
        <time>2022-07-12T05:08:32Z</time>
      </trkpt>
      <trkpt lat="43.62132" lon="1.34522">
        <ele>165.2</ele>
        <time>2022-07-12T05:08:36Z</time>
      </trkpt>
      <trkpt lat="43.62144" lon="1.34532">
        <ele>165.2</ele>
        <time>2022-07-12T05:08:38Z</time>
      </trkpt>
      <trkpt lat="43.62194" lon="1.34575">
        <ele>164.8</ele>
        <time>2022-07-12T05:08:47Z</time>
      </trkpt>
      <trkpt lat="43.62249" lon="1.34613">
        <ele>164.6</ele>
        <time>2022-07-12T05:08:56Z</time>
      </trkpt>
      <trkpt lat="43.62255" lon="1.34618">
        <ele>164.6</ele>
        <time>2022-07-12T05:08:57Z</time>
      </trkpt>
      <trkpt lat="43.62308" lon="1.34644">
        <ele>164.4</ele>
        <time>2022-07-12T05:09:05Z</time>
      </trkpt>
      <trkpt lat="43.62321" lon="1.34649">
        <ele>164.2</ele>
        <time>2022-07-12T05:09:07Z</time>
      </trkpt>
      <trkpt lat="43.62334" lon="1.34654">
        <ele>164</ele>
        <time>2022-07-12T05:09:09Z</time>
      </trkpt>
      <trkpt lat="43.62363" lon="1.3467">
        <ele>164</ele>
        <time>2022-07-12T05:09:14Z</time>
      </trkpt>
      <trkpt lat="43.62372" lon="1.34681">
        <ele>163.8</ele>
        <time>2022-07-12T05:09:16Z</time>
      </trkpt>
      <trkpt lat="43.62375" lon="1.34688">
        <ele>163.8</ele>
        <time>2022-07-12T05:09:17Z</time>
      </trkpt>
      <trkpt lat="43.62379" lon="1.34694">
        <ele>163.8</ele>
        <time>2022-07-12T05:09:18Z</time>
      </trkpt>
      <trkpt lat="43.62388" lon="1.34702">
        <ele>163.6</ele>
        <time>2022-07-12T05:09:20Z</time>
      </trkpt>
      <trkpt lat="43.62398" lon="1.34699">
        <ele>163.6</ele>
        <time>2022-07-12T05:09:22Z</time>
      </trkpt>
      <trkpt lat="43.62403" lon="1.34696">
        <ele>163.6</ele>
        <time>2022-07-12T05:09:23Z</time>
      </trkpt>
      <trkpt lat="43.62409" lon="1.34693">
        <ele>163.4</ele>
        <time>2022-07-12T05:09:24Z</time>
      </trkpt>
      <trkpt lat="43.62421" lon="1.34691">
        <ele>163.4</ele>
        <time>2022-07-12T05:09:26Z</time>
      </trkpt>
      <trkpt lat="43.6248" lon="1.3469">
        <ele>163.2</ele>
        <time>2022-07-12T05:09:35Z</time>
      </trkpt>
      <trkpt lat="43.62486" lon="1.34692">
        <ele>163.2</ele>
        <time>2022-07-12T05:09:36Z</time>
      </trkpt>
      <trkpt lat="43.62496" lon="1.34701">
        <ele>163.2</ele>
        <time>2022-07-12T05:09:38Z</time>
      </trkpt>
      <trkpt lat="43.62505" lon="1.34726">
        <ele>163.2</ele>
        <time>2022-07-12T05:09:42Z</time>
      </trkpt>
      <trkpt lat="43.62507" lon="1.34737">
        <ele>163.2</ele>
        <time>2022-07-12T05:09:44Z</time>
      </trkpt>
      <trkpt lat="43.62507" lon="1.34741">
        <ele>163</ele>
        <time>2022-07-12T05:09:45Z</time>
      </trkpt>
      <trkpt lat="43.62507" lon="1.34743">
        <ele>163</ele>
        <time>2022-07-12T05:09:46Z</time>
      </trkpt>
      <trkpt lat="43.62507" lon="1.34744">
        <ele>162.8</ele>
        <time>2022-07-12T05:09:50Z</time>
      </trkpt>
      <trkpt lat="43.62508" lon="1.3475">
        <ele>162.2</ele>
        <time>2022-07-12T05:10:01Z</time>
      </trkpt>
      <trkpt lat="43.62508" lon="1.34758">
        <ele>162</ele>
        <time>2022-07-12T05:10:03Z</time>
      </trkpt>
      <trkpt lat="43.62502" lon="1.34774">
        <ele>161.6</ele>
        <time>2022-07-12T05:10:07Z</time>
      </trkpt>
      <trkpt lat="43.62491" lon="1.34775">
        <ele>161.4</ele>
        <time>2022-07-12T05:10:10Z</time>
      </trkpt>
      <trkpt lat="43.62483" lon="1.34775">
        <ele>161.2</ele>
        <time>2022-07-12T05:10:12Z</time>
      </trkpt>
      <trkpt lat="43.62476" lon="1.34774">
        <ele>161.2</ele>
        <time>2022-07-12T05:10:14Z</time>
      </trkpt>
      <trkpt lat="43.62467" lon="1.34776">
        <ele>161.2</ele>
        <time>2022-07-12T05:10:16Z</time>
      </trkpt>
      <trkpt lat="43.62454" lon="1.3478">
        <ele>161.2</ele>
        <time>2022-07-12T05:10:19Z</time>
      </trkpt>
      <trkpt lat="43.6245" lon="1.34782">
        <ele>161.2</ele>
        <time>2022-07-12T05:10:20Z</time>
      </trkpt>
      <trkpt lat="43.62436" lon="1.34785">
        <ele>161.4</ele>
        <time>2022-07-12T05:10:23Z</time>
      </trkpt>
      <trkpt lat="43.62431" lon="1.34786">
        <ele>161.4</ele>
        <time>2022-07-12T05:10:24Z</time>
      </trkpt>
      <trkpt lat="43.62411" lon="1.34787">
        <ele>161.6</ele>
        <time>2022-07-12T05:10:28Z</time>
      </trkpt>
      <trkpt lat="43.62365" lon="1.34785">
        <ele>162</ele>
        <time>2022-07-12T05:10:35Z</time>
      </trkpt>
      <trkpt lat="43.62353" lon="1.34789">
        <ele>162.2</ele>
        <time>2022-07-12T05:10:37Z</time>
      </trkpt>
      <trkpt lat="43.62336" lon="1.34799">
        <ele>162.4</ele>
        <time>2022-07-12T05:10:40Z</time>
      </trkpt>
      <trkpt lat="43.62324" lon="1.3481">
        <ele>162.4</ele>
        <time>2022-07-12T05:10:42Z</time>
      </trkpt>
      <trkpt lat="43.62291" lon="1.3484">
        <ele>162.4</ele>
        <time>2022-07-12T05:10:48Z</time>
      </trkpt>
      <trkpt lat="43.62285" lon="1.34845">
        <ele>162.4</ele>
        <time>2022-07-12T05:10:50Z</time>
      </trkpt>
      <trkpt lat="43.62261" lon="1.34868">
        <ele>162.6</ele>
        <time>2022-07-12T05:10:54Z</time>
      </trkpt>
      <trkpt lat="43.62258" lon="1.34873">
        <ele>162.6</ele>
        <time>2022-07-12T05:10:55Z</time>
      </trkpt>
      <trkpt lat="43.62256" lon="1.34877">
        <ele>162.6</ele>
        <time>2022-07-12T05:10:56Z</time>
      </trkpt>
      <trkpt lat="43.62255" lon="1.34881">
        <ele>162.6</ele>
        <time>2022-07-12T05:10:58Z</time>
      </trkpt>
      <trkpt lat="43.62254" lon="1.34909">
        <ele>162.2</ele>
        <time>2022-07-12T05:11:02Z</time>
      </trkpt>
      <trkpt lat="43.62254" lon="1.34916">
        <ele>162</ele>
        <time>2022-07-12T05:11:03Z</time>
      </trkpt>
      <trkpt lat="43.62257" lon="1.34953">
        <ele>161.6</ele>
        <time>2022-07-12T05:11:08Z</time>
      </trkpt>
      <trkpt lat="43.62259" lon="1.35007">
        <ele>161.4</ele>
        <time>2022-07-12T05:11:15Z</time>
      </trkpt>
      <trkpt lat="43.6226" lon="1.35055">
        <ele>161</ele>
        <time>2022-07-12T05:11:21Z</time>
      </trkpt>
      <trkpt lat="43.62261" lon="1.35094">
        <ele>160.6</ele>
        <time>2022-07-12T05:11:26Z</time>
      </trkpt>
      <trkpt lat="43.62262" lon="1.35141">
        <ele>160.4</ele>
        <time>2022-07-12T05:11:33Z</time>
      </trkpt>
      <trkpt lat="43.62265" lon="1.35154">
        <ele>160.2</ele>
        <time>2022-07-12T05:11:37Z</time>
      </trkpt>
      <trkpt lat="43.62265" lon="1.35154">
        <ele>160.2</ele>
        <time>2022-07-12T05:11:39Z</time>
      </trkpt>
      <trkpt lat="43.62266" lon="1.35159">
        <ele>151.8</ele>
        <time>2022-07-12T05:21:00Z</time>
      </trkpt>
      <trkpt lat="43.62267" lon="1.35185">
        <ele>158.4</ele>
        <time>2022-07-12T05:21:06Z</time>
      </trkpt>
      <trkpt lat="43.6227" lon="1.35219">
        <ele>158.2</ele>
        <time>2022-07-12T05:21:13Z</time>
      </trkpt>
      <trkpt lat="43.62278" lon="1.35229">
        <ele>158.4</ele>
        <time>2022-07-12T05:21:17Z</time>
      </trkpt>
      <trkpt lat="43.62281" lon="1.35231">
        <ele>158.4</ele>
        <time>2022-07-12T05:21:19Z</time>
      </trkpt>
      <trkpt lat="43.62282" lon="1.35234">
        <ele>158.4</ele>
        <time>2022-07-12T05:21:21Z</time>
      </trkpt>
      <trkpt lat="43.62284" lon="1.35239">
        <ele>158.4</ele>
        <time>2022-07-12T05:21:23Z</time>
      </trkpt>
      <trkpt lat="43.62283" lon="1.35244">
        <ele>158.4</ele>
        <time>2022-07-12T05:21:25Z</time>
      </trkpt>
      <trkpt lat="43.62283" lon="1.35247">
        <ele>158.6</ele>
        <time>2022-07-12T05:21:29Z</time>
      </trkpt>
      <trkpt lat="43.62307" lon="1.35218">
        <ele>148.8</ele>
        <time>2022-07-12T13:51:58Z</time>
      </trkpt>
      <trkpt lat="43.62298" lon="1.35217">
        <ele>148.4</ele>
        <time>2022-07-12T13:51:59Z</time>
      </trkpt>
      <trkpt lat="43.62269" lon="1.35212">
        <ele>146.8</ele>
        <time>2022-07-12T14:02:03Z</time>
      </trkpt>
      <trkpt lat="43.62268" lon="1.35208">
        <ele>146.8</ele>
        <time>2022-07-12T14:02:05Z</time>
      </trkpt>
      <trkpt lat="43.62267" lon="1.35208">
        <ele>146.6</ele>
        <time>2022-07-12T14:02:06Z</time>
      </trkpt>
      <trkpt lat="43.62266" lon="1.35204">
        <ele>146.6</ele>
        <time>2022-07-12T14:02:09Z</time>
      </trkpt>
      <trkpt lat="43.62266" lon="1.35202">
        <ele>146.4</ele>
        <time>2022-07-12T14:02:10Z</time>
      </trkpt>
      <trkpt lat="43.62265" lon="1.35196">
        <ele>146.4</ele>
        <time>2022-07-12T14:02:12Z</time>
      </trkpt>
      <trkpt lat="43.62264" lon="1.35179">
        <ele>146.4</ele>
        <time>2022-07-12T14:02:17Z</time>
      </trkpt>
      <trkpt lat="43.62265" lon="1.35174">
        <ele>146.4</ele>
        <time>2022-07-12T14:02:19Z</time>
      </trkpt>
      <trkpt lat="43.62269" lon="1.35157">
        <ele>146.4</ele>
        <time>2022-07-12T14:02:25Z</time>
      </trkpt>
      <trkpt lat="43.6227" lon="1.35157">
        <ele>146.6</ele>
        <time>2022-07-12T14:02:27Z</time>
      </trkpt>
      <trkpt lat="43.62265" lon="1.35155">
        <ele>158.2</ele>
        <time>2022-07-12T14:08:53Z</time>
      </trkpt>
      <trkpt lat="43.62264" lon="1.35159">
        <ele>158.2</ele>
        <time>2022-07-12T14:08:54Z</time>
      </trkpt>
      <trkpt lat="43.62254" lon="1.35179">
        <ele>157.6</ele>
        <time>2022-07-12T14:08:59Z</time>
      </trkpt>
      <trkpt lat="43.62246" lon="1.35183">
        <ele>157.6</ele>
        <time>2022-07-12T14:09:01Z</time>
      </trkpt>
      <trkpt lat="43.62238" lon="1.35181">
        <ele>157.2</ele>
        <time>2022-07-12T14:09:03Z</time>
      </trkpt>
      <trkpt lat="43.62234" lon="1.35178">
        <ele>157</ele>
        <time>2022-07-12T14:09:04Z</time>
      </trkpt>
      <trkpt lat="43.62217" lon="1.3516">
        <ele>156.4</ele>
        <time>2022-07-12T14:09:09Z</time>
      </trkpt>
      <trkpt lat="43.62213" lon="1.35156">
        <ele>156.4</ele>
        <time>2022-07-12T14:09:10Z</time>
      </trkpt>
      <trkpt lat="43.62205" lon="1.35153">
        <ele>156.4</ele>
        <time>2022-07-12T14:09:12Z</time>
      </trkpt>
      <trkpt lat="43.622" lon="1.35152">
        <ele>156.4</ele>
        <time>2022-07-12T14:09:13Z</time>
      </trkpt>
      <trkpt lat="43.62195" lon="1.35153">
        <ele>156.2</ele>
        <time>2022-07-12T14:09:14Z</time>
      </trkpt>
      <trkpt lat="43.62177" lon="1.35162">
        <ele>156</ele>
        <time>2022-07-12T14:09:18Z</time>
      </trkpt>
      <trkpt lat="43.62168" lon="1.35168">
        <ele>156</ele>
        <time>2022-07-12T14:09:20Z</time>
      </trkpt>
      <trkpt lat="43.62164" lon="1.3517">
        <ele>155.8</ele>
        <time>2022-07-12T14:09:21Z</time>
      </trkpt>
      <trkpt lat="43.62156" lon="1.35172">
        <ele>155.6</ele>
        <time>2022-07-12T14:09:23Z</time>
      </trkpt>
      <trkpt lat="43.62149" lon="1.35163">
        <ele>155.6</ele>
        <time>2022-07-12T14:09:25Z</time>
      </trkpt>
      <trkpt lat="43.62147" lon="1.35157">
        <ele>155.6</ele>
        <time>2022-07-12T14:09:26Z</time>
      </trkpt>
      <trkpt lat="43.62144" lon="1.35145">
        <ele>155.4</ele>
        <time>2022-07-12T14:09:28Z</time>
      </trkpt>
      <trkpt lat="43.62133" lon="1.35113">
        <ele>155.6</ele>
        <time>2022-07-12T14:09:33Z</time>
      </trkpt>
      <trkpt lat="43.62124" lon="1.3507">
        <ele>155.8</ele>
        <time>2022-07-12T14:09:39Z</time>
      </trkpt>
      <trkpt lat="43.62121" lon="1.35065">
        <ele>155.8</ele>
        <time>2022-07-12T14:09:40Z</time>
      </trkpt>
      <trkpt lat="43.62116" lon="1.35062">
        <ele>156</ele>
        <time>2022-07-12T14:09:41Z</time>
      </trkpt>
      <trkpt lat="43.62106" lon="1.35062">
        <ele>156</ele>
        <time>2022-07-12T14:09:43Z</time>
      </trkpt>
      <trkpt lat="43.62095" lon="1.35064">
        <ele>156</ele>
        <time>2022-07-12T14:09:45Z</time>
      </trkpt>
      <trkpt lat="43.62085" lon="1.35064">
        <ele>155.8</ele>
        <time>2022-07-12T14:09:47Z</time>
      </trkpt>
      <trkpt lat="43.62054" lon="1.35053">
        <ele>156</ele>
        <time>2022-07-12T14:09:53Z</time>
      </trkpt>
      <trkpt lat="43.62037" lon="1.35046">
        <ele>156</ele>
        <time>2022-07-12T14:09:56Z</time>
      </trkpt>
      <trkpt lat="43.62026" lon="1.35046">
        <ele>156</ele>
        <time>2022-07-12T14:09:58Z</time>
      </trkpt>
      <trkpt lat="43.61987" lon="1.35063">
        <ele>156</ele>
        <time>2022-07-12T14:10:05Z</time>
      </trkpt>
      <trkpt lat="43.61975" lon="1.35062">
        <ele>156</ele>
        <time>2022-07-12T14:10:07Z</time>
      </trkpt>
      <trkpt lat="43.61957" lon="1.3506">
        <ele>156</ele>
        <time>2022-07-12T14:10:10Z</time>
      </trkpt>
      <trkpt lat="43.61935" lon="1.35053">
        <ele>156</ele>
        <time>2022-07-12T14:10:14Z</time>
      </trkpt>
      <trkpt lat="43.61924" lon="1.35046">
        <ele>156</ele>
        <time>2022-07-12T14:10:16Z</time>
      </trkpt>
      <trkpt lat="43.61891" lon="1.35031">
        <ele>155.8</ele>
        <time>2022-07-12T14:10:22Z</time>
      </trkpt>
      <trkpt lat="43.61886" lon="1.35029">
        <ele>155.8</ele>
        <time>2022-07-12T14:10:23Z</time>
      </trkpt>
      <trkpt lat="43.61828" lon="1.35013">
        <ele>155.6</ele>
        <time>2022-07-12T14:10:32Z</time>
      </trkpt>
      <trkpt lat="43.61797" lon="1.35003">
        <ele>155.6</ele>
        <time>2022-07-12T14:10:37Z</time>
      </trkpt>
      <trkpt lat="43.61786" lon="1.35003">
        <ele>155.6</ele>
        <time>2022-07-12T14:10:39Z</time>
      </trkpt>
      <trkpt lat="43.61776" lon="1.3501">
        <ele>155.6</ele>
        <time>2022-07-12T14:10:41Z</time>
      </trkpt>
      <trkpt lat="43.61772" lon="1.35016">
        <ele>155.6</ele>
        <time>2022-07-12T14:10:42Z</time>
      </trkpt>
      <trkpt lat="43.61769" lon="1.35023">
        <ele>155.6</ele>
        <time>2022-07-12T14:10:43Z</time>
      </trkpt>
      <trkpt lat="43.61764" lon="1.3504">
        <ele>155.6</ele>
        <time>2022-07-12T14:10:45Z</time>
      </trkpt>
      <trkpt lat="43.61762" lon="1.35047">
        <ele>155.6</ele>
        <time>2022-07-12T14:10:46Z</time>
      </trkpt>
      <trkpt lat="43.61756" lon="1.35089">
        <ele>156</ele>
        <time>2022-07-12T14:10:51Z</time>
      </trkpt>
      <trkpt lat="43.6175" lon="1.35136">
        <ele>156.8</ele>
        <time>2022-07-12T14:10:57Z</time>
      </trkpt>
      <trkpt lat="43.61748" lon="1.35144">
        <ele>157</ele>
        <time>2022-07-12T14:10:58Z</time>
      </trkpt>
      <trkpt lat="43.61741" lon="1.35157">
        <ele>157.2</ele>
        <time>2022-07-12T14:11:00Z</time>
      </trkpt>
      <trkpt lat="43.61736" lon="1.35162">
        <ele>157.4</ele>
        <time>2022-07-12T14:11:01Z</time>
      </trkpt>
      <trkpt lat="43.6173" lon="1.35165">
        <ele>157.6</ele>
        <time>2022-07-12T14:11:02Z</time>
      </trkpt>
      <trkpt lat="43.61724" lon="1.35167">
        <ele>157.6</ele>
        <time>2022-07-12T14:11:03Z</time>
      </trkpt>
      <trkpt lat="43.61718" lon="1.35167">
        <ele>157.6</ele>
        <time>2022-07-12T14:11:04Z</time>
      </trkpt>
      <trkpt lat="43.61692" lon="1.35165">
        <ele>158</ele>
        <time>2022-07-12T14:11:08Z</time>
      </trkpt>
      <trkpt lat="43.61673" lon="1.35165">
        <ele>157.8</ele>
        <time>2022-07-12T14:11:11Z</time>
      </trkpt>
      <trkpt lat="43.61662" lon="1.35172">
        <ele>157.8</ele>
        <time>2022-07-12T14:11:13Z</time>
      </trkpt>
      <trkpt lat="43.61657" lon="1.35187">
        <ele>157.8</ele>
        <time>2022-07-12T14:11:15Z</time>
      </trkpt>
      <trkpt lat="43.61654" lon="1.35241">
        <ele>157.8</ele>
        <time>2022-07-12T14:11:21Z</time>
      </trkpt>
      <trkpt lat="43.61654" lon="1.35287">
        <ele>158.2</ele>
        <time>2022-07-12T14:11:26Z</time>
      </trkpt>
      <trkpt lat="43.6165" lon="1.35302">
        <ele>158.4</ele>
        <time>2022-07-12T14:11:28Z</time>
      </trkpt>
      <trkpt lat="43.61642" lon="1.3534">
        <ele>158.8</ele>
        <time>2022-07-12T14:11:33Z</time>
      </trkpt>
      <trkpt lat="43.61632" lon="1.35354">
        <ele>158.8</ele>
        <time>2022-07-12T14:11:35Z</time>
      </trkpt>
      <trkpt lat="43.61631" lon="1.35362">
        <ele>159</ele>
        <time>2022-07-12T14:11:36Z</time>
      </trkpt>
      <trkpt lat="43.6163" lon="1.35379">
        <ele>159</ele>
        <time>2022-07-12T14:11:38Z</time>
      </trkpt>
      <trkpt lat="43.61625" lon="1.35394">
        <ele>159.2</ele>
        <time>2022-07-12T14:11:40Z</time>
      </trkpt>
      <trkpt lat="43.61603" lon="1.35464">
        <ele>159.6</ele>
        <time>2022-07-12T14:11:49Z</time>
      </trkpt>
      <trkpt lat="43.61588" lon="1.35519">
        <ele>159.2</ele>
        <time>2022-07-12T14:11:56Z</time>
      </trkpt>
      <trkpt lat="43.6157" lon="1.35584">
        <ele>159</ele>
        <time>2022-07-12T14:12:04Z</time>
      </trkpt>
      <trkpt lat="43.61545" lon="1.35633">
        <ele>158.6</ele>
        <time>2022-07-12T14:12:11Z</time>
      </trkpt>
      <trkpt lat="43.61512" lon="1.35672">
        <ele>158.6</ele>
        <time>2022-07-12T14:12:18Z</time>
      </trkpt>
      <trkpt lat="43.61498" lon="1.35685">
        <ele>158.4</ele>
        <time>2022-07-12T14:12:21Z</time>
      </trkpt>
      <trkpt lat="43.61487" lon="1.35689">
        <ele>158.4</ele>
        <time>2022-07-12T14:12:23Z</time>
      </trkpt>
      <trkpt lat="43.61475" lon="1.35688">
        <ele>158.4</ele>
        <time>2022-07-12T14:12:25Z</time>
      </trkpt>
      <trkpt lat="43.61465" lon="1.35695">
        <ele>158.4</ele>
        <time>2022-07-12T14:12:27Z</time>
      </trkpt>
      <trkpt lat="43.61459" lon="1.3571">
        <ele>158.4</ele>
        <time>2022-07-12T14:12:29Z</time>
      </trkpt>
      <trkpt lat="43.61457" lon="1.35717">
        <ele>158.2</ele>
        <time>2022-07-12T14:12:30Z</time>
      </trkpt>
      <trkpt lat="43.61453" lon="1.35724">
        <ele>158.2</ele>
        <time>2022-07-12T14:12:31Z</time>
      </trkpt>
      <trkpt lat="43.61444" lon="1.35733">
        <ele>158</ele>
        <time>2022-07-12T14:12:33Z</time>
      </trkpt>
      <trkpt lat="43.61432" lon="1.35738">
        <ele>158</ele>
        <time>2022-07-12T14:12:35Z</time>
      </trkpt>
      <trkpt lat="43.61419" lon="1.35737">
        <ele>158</ele>
        <time>2022-07-12T14:12:37Z</time>
      </trkpt>
      <trkpt lat="43.61393" lon="1.35735">
        <ele>157.8</ele>
        <time>2022-07-12T14:12:41Z</time>
      </trkpt>
      <trkpt lat="43.61382" lon="1.35729">
        <ele>157.8</ele>
        <time>2022-07-12T14:12:43Z</time>
      </trkpt>
      <trkpt lat="43.61374" lon="1.35715">
        <ele>157.8</ele>
        <time>2022-07-12T14:12:45Z</time>
      </trkpt>
      <trkpt lat="43.61372" lon="1.35706">
        <ele>157.8</ele>
        <time>2022-07-12T14:12:46Z</time>
      </trkpt>
      <trkpt lat="43.61357" lon="1.35633">
        <ele>158.2</ele>
        <time>2022-07-12T14:12:55Z</time>
      </trkpt>
      <trkpt lat="43.61355" lon="1.35626">
        <ele>158.2</ele>
        <time>2022-07-12T14:12:56Z</time>
      </trkpt>
      <trkpt lat="43.61347" lon="1.35614">
        <ele>158.2</ele>
        <time>2022-07-12T14:12:58Z</time>
      </trkpt>
      <trkpt lat="43.61342" lon="1.3561">
        <ele>158.4</ele>
        <time>2022-07-12T14:12:59Z</time>
      </trkpt>
      <trkpt lat="43.61336" lon="1.35608">
        <ele>158.4</ele>
        <time>2022-07-12T14:13:00Z</time>
      </trkpt>
      <trkpt lat="43.61316" lon="1.35607">
        <ele>158.4</ele>
        <time>2022-07-12T14:13:03Z</time>
      </trkpt>
      <trkpt lat="43.61289" lon="1.35607">
        <ele>158.6</ele>
        <time>2022-07-12T14:13:07Z</time>
      </trkpt>
      <trkpt lat="43.61276" lon="1.35611">
        <ele>158.6</ele>
        <time>2022-07-12T14:13:09Z</time>
      </trkpt>
      <trkpt lat="43.6127" lon="1.35614">
        <ele>158.4</ele>
        <time>2022-07-12T14:13:10Z</time>
      </trkpt>
      <trkpt lat="43.61251" lon="1.35617">
        <ele>158.6</ele>
        <time>2022-07-12T14:13:13Z</time>
      </trkpt>
      <trkpt lat="43.61245" lon="1.35617">
        <ele>158.6</ele>
        <time>2022-07-12T14:13:14Z</time>
      </trkpt>
      <trkpt lat="43.61191" lon="1.35615">
        <ele>158.6</ele>
        <time>2022-07-12T14:13:22Z</time>
      </trkpt>
      <trkpt lat="43.61135" lon="1.35613">
        <ele>158.6</ele>
        <time>2022-07-12T14:13:30Z</time>
      </trkpt>
      <trkpt lat="43.61128" lon="1.35612">
        <ele>158.6</ele>
        <time>2022-07-12T14:13:31Z</time>
      </trkpt>
      <trkpt lat="43.61078" lon="1.35609">
        <ele>157.8</ele>
        <time>2022-07-12T14:13:39Z</time>
      </trkpt>
      <trkpt lat="43.61031" lon="1.35605">
        <ele>157.2</ele>
        <time>2022-07-12T14:13:46Z</time>
      </trkpt>
      <trkpt lat="43.6102" lon="1.35605">
        <ele>157</ele>
        <time>2022-07-12T14:13:48Z</time>
      </trkpt>
      <trkpt lat="43.60994" lon="1.35604">
        <ele>156.8</ele>
        <time>2022-07-12T14:13:52Z</time>
      </trkpt>
      <trkpt lat="43.60989" lon="1.35607">
        <ele>156.6</ele>
        <time>2022-07-12T14:13:53Z</time>
      </trkpt>
      <trkpt lat="43.60985" lon="1.35612">
        <ele>156.6</ele>
        <time>2022-07-12T14:13:54Z</time>
      </trkpt>
      <trkpt lat="43.60982" lon="1.3562">
        <ele>156.6</ele>
        <time>2022-07-12T14:13:55Z</time>
      </trkpt>
      <trkpt lat="43.6098" lon="1.35629">
        <ele>156.6</ele>
        <time>2022-07-12T14:13:56Z</time>
      </trkpt>
      <trkpt lat="43.60979" lon="1.35645">
        <ele>156.6</ele>
        <time>2022-07-12T14:13:58Z</time>
      </trkpt>
      <trkpt lat="43.60978" lon="1.35723">
        <ele>158</ele>
        <time>2022-07-12T14:14:06Z</time>
      </trkpt>
      <trkpt lat="43.60977" lon="1.35789">
        <ele>159</ele>
        <time>2022-07-12T14:14:13Z</time>
      </trkpt>
      <trkpt lat="43.60976" lon="1.35807">
        <ele>159.6</ele>
        <time>2022-07-12T14:14:15Z</time>
      </trkpt>
      <trkpt lat="43.60976" lon="1.35844">
        <ele>160.2</ele>
        <time>2022-07-12T14:14:19Z</time>
      </trkpt>
      <trkpt lat="43.60975" lon="1.35879">
        <ele>161</ele>
        <time>2022-07-12T14:14:23Z</time>
      </trkpt>
      <trkpt lat="43.60975" lon="1.35887">
        <ele>161.4</ele>
        <time>2022-07-12T14:14:24Z</time>
      </trkpt>
      <trkpt lat="43.60975" lon="1.35896">
        <ele>161.6</ele>
        <time>2022-07-12T14:14:25Z</time>
      </trkpt>
      <trkpt lat="43.60972" lon="1.35954">
        <ele>162.4</ele>
        <time>2022-07-12T14:14:32Z</time>
      </trkpt>
      <trkpt lat="43.60971" lon="1.35979">
        <ele>162.8</ele>
        <time>2022-07-12T14:14:35Z</time>
      </trkpt>
      <trkpt lat="43.60969" lon="1.36019">
        <ele>163.4</ele>
        <time>2022-07-12T14:14:40Z</time>
      </trkpt>
      <trkpt lat="43.60968" lon="1.36035">
        <ele>163.6</ele>
        <time>2022-07-12T14:14:42Z</time>
      </trkpt>
      <trkpt lat="43.60967" lon="1.36051">
        <ele>163.8</ele>
        <time>2022-07-12T14:14:44Z</time>
      </trkpt>
      <trkpt lat="43.60967" lon="1.36066">
        <ele>164</ele>
        <time>2022-07-12T14:14:46Z</time>
      </trkpt>
      <trkpt lat="43.60966" lon="1.36082">
        <ele>164.2</ele>
        <time>2022-07-12T14:14:48Z</time>
      </trkpt>
      <trkpt lat="43.60967" lon="1.36091">
        <ele>164.2</ele>
        <time>2022-07-12T14:14:49Z</time>
      </trkpt>
      <trkpt lat="43.6097" lon="1.36107">
        <ele>164.6</ele>
        <time>2022-07-12T14:14:51Z</time>
      </trkpt>
      <trkpt lat="43.60975" lon="1.36113">
        <ele>164.8</ele>
        <time>2022-07-12T14:14:52Z</time>
      </trkpt>
      <trkpt lat="43.6098" lon="1.36117">
        <ele>164.8</ele>
        <time>2022-07-12T14:14:53Z</time>
      </trkpt>
      <trkpt lat="43.60992" lon="1.36116">
        <ele>165</ele>
        <time>2022-07-12T14:14:55Z</time>
      </trkpt>
      <trkpt lat="43.61008" lon="1.36103">
        <ele>165</ele>
        <time>2022-07-12T14:14:58Z</time>
      </trkpt>
      <trkpt lat="43.61014" lon="1.36101">
        <ele>165</ele>
        <time>2022-07-12T14:14:59Z</time>
      </trkpt>
      <trkpt lat="43.6102" lon="1.36101">
        <ele>165</ele>
        <time>2022-07-12T14:15:00Z</time>
      </trkpt>
      <trkpt lat="43.61051" lon="1.36104">
        <ele>164.4</ele>
        <time>2022-07-12T14:15:05Z</time>
      </trkpt>
      <trkpt lat="43.61106" lon="1.36106">
        <ele>163.6</ele>
        <time>2022-07-12T14:15:14Z</time>
      </trkpt>
      <trkpt lat="43.61119" lon="1.36107">
        <ele>163.2</ele>
        <time>2022-07-12T14:15:16Z</time>
      </trkpt>
      <trkpt lat="43.61125" lon="1.36108">
        <ele>163</ele>
        <time>2022-07-12T14:15:17Z</time>
      </trkpt>
      <trkpt lat="43.61155" lon="1.3611">
        <ele>162.4</ele>
        <time>2022-07-12T14:15:22Z</time>
      </trkpt>
      <trkpt lat="43.61164" lon="1.36123">
        <ele>162.4</ele>
        <time>2022-07-12T14:15:25Z</time>
      </trkpt>
      <trkpt lat="43.61168" lon="1.36145">
        <ele>162.4</ele>
        <time>2022-07-12T14:15:28Z</time>
      </trkpt>
      <trkpt lat="43.61168" lon="1.36151">
        <ele>162.4</ele>
        <time>2022-07-12T14:15:29Z</time>
      </trkpt>
      <trkpt lat="43.61167" lon="1.36172">
        <ele>162.6</ele>
        <time>2022-07-12T14:15:32Z</time>
      </trkpt>
      <trkpt lat="43.61167" lon="1.36189">
        <ele>162.8</ele>
        <time>2022-07-12T14:15:34Z</time>
      </trkpt>
      <trkpt lat="43.61166" lon="1.36244">
        <ele>163.4</ele>
        <time>2022-07-12T14:15:41Z</time>
      </trkpt>
      <trkpt lat="43.61163" lon="1.36296">
        <ele>163.6</ele>
        <time>2022-07-12T14:15:47Z</time>
      </trkpt>
      <trkpt lat="43.61162" lon="1.36341">
        <ele>164</ele>
        <time>2022-07-12T14:15:52Z</time>
      </trkpt>
      <trkpt lat="43.61158" lon="1.36402">
        <ele>164.2</ele>
        <time>2022-07-12T14:15:59Z</time>
      </trkpt>
      <trkpt lat="43.61157" lon="1.3641">
        <ele>164.2</ele>
        <time>2022-07-12T14:16:00Z</time>
      </trkpt>
      <trkpt lat="43.61153" lon="1.36472">
        <ele>164.4</ele>
        <time>2022-07-12T14:16:07Z</time>
      </trkpt>
      <trkpt lat="43.61151" lon="1.36507">
        <ele>164.6</ele>
        <time>2022-07-12T14:16:11Z</time>
      </trkpt>
      <trkpt lat="43.61149" lon="1.3653">
        <ele>164.8</ele>
        <time>2022-07-12T14:16:14Z</time>
      </trkpt>
      <trkpt lat="43.61142" lon="1.3655">
        <ele>164.8</ele>
        <time>2022-07-12T14:16:17Z</time>
      </trkpt>
      <trkpt lat="43.6114" lon="1.36559">
        <ele>164.8</ele>
        <time>2022-07-12T14:16:18Z</time>
      </trkpt>
      <trkpt lat="43.61142" lon="1.36567">
        <ele>164.8</ele>
        <time>2022-07-12T14:16:19Z</time>
      </trkpt>
      <trkpt lat="43.61146" lon="1.36583">
        <ele>164.8</ele>
        <time>2022-07-12T14:16:21Z</time>
      </trkpt>
      <trkpt lat="43.61147" lon="1.36599">
        <ele>164.8</ele>
        <time>2022-07-12T14:16:23Z</time>
      </trkpt>
      <trkpt lat="43.61145" lon="1.36619">
        <ele>164.8</ele>
        <time>2022-07-12T14:16:25Z</time>
      </trkpt>
      <trkpt lat="43.61142" lon="1.36669">
        <ele>164.8</ele>
        <time>2022-07-12T14:16:31Z</time>
      </trkpt>
      <trkpt lat="43.61138" lon="1.36752">
        <ele>165</ele>
        <time>2022-07-12T14:16:40Z</time>
      </trkpt>
      <trkpt lat="43.61138" lon="1.36761">
        <ele>165</ele>
        <time>2022-07-12T14:16:41Z</time>
      </trkpt>
      <trkpt lat="43.61137" lon="1.36797">
        <ele>165</ele>
        <time>2022-07-12T14:16:45Z</time>
      </trkpt>
      <trkpt lat="43.61135" lon="1.36815">
        <ele>165</ele>
        <time>2022-07-12T14:16:47Z</time>
      </trkpt>
      <trkpt lat="43.61134" lon="1.36834">
        <ele>165</ele>
        <time>2022-07-12T14:16:49Z</time>
      </trkpt>
      <trkpt lat="43.61129" lon="1.36851">
        <ele>165</ele>
        <time>2022-07-12T14:16:51Z</time>
      </trkpt>
      <trkpt lat="43.61127" lon="1.36858">
        <ele>165</ele>
        <time>2022-07-12T14:16:52Z</time>
      </trkpt>
      <trkpt lat="43.61126" lon="1.36875">
        <ele>165</ele>
        <time>2022-07-12T14:16:54Z</time>
      </trkpt>
      <trkpt lat="43.61125" lon="1.36883">
        <ele>165</ele>
        <time>2022-07-12T14:16:55Z</time>
      </trkpt>
      <trkpt lat="43.61125" lon="1.36892">
        <ele>165</ele>
        <time>2022-07-12T14:16:56Z</time>
      </trkpt>
      <trkpt lat="43.61123" lon="1.36953">
        <ele>165</ele>
        <time>2022-07-12T14:17:03Z</time>
      </trkpt>
      <trkpt lat="43.61123" lon="1.36975">
        <ele>165</ele>
        <time>2022-07-12T14:17:07Z</time>
      </trkpt>
      <trkpt lat="43.61122" lon="1.36976">
        <ele>165</ele>
        <time>2022-07-12T14:17:10Z</time>
      </trkpt>
      <trkpt lat="43.61121" lon="1.36989">
        <ele>160.6</ele>
        <time>2022-07-12T14:17:46Z</time>
      </trkpt>
      <trkpt lat="43.61122" lon="1.36999">
        <ele>160.4</ele>
        <time>2022-07-12T14:17:48Z</time>
      </trkpt>
      <trkpt lat="43.6112" lon="1.37027">
        <ele>160.2</ele>
        <time>2022-07-12T14:17:52Z</time>
      </trkpt>
      <trkpt lat="43.61117" lon="1.37043">
        <ele>160</ele>
        <time>2022-07-12T14:17:54Z</time>
      </trkpt>
      <trkpt lat="43.61119" lon="1.3706">
        <ele>159.8</ele>
        <time>2022-07-12T14:17:56Z</time>
      </trkpt>
      <trkpt lat="43.6112" lon="1.37078">
        <ele>159.8</ele>
        <time>2022-07-12T14:17:58Z</time>
      </trkpt>
      <trkpt lat="43.61119" lon="1.37095">
        <ele>159.8</ele>
        <time>2022-07-12T14:18:00Z</time>
      </trkpt>
      <trkpt lat="43.61115" lon="1.37169">
        <ele>160.2</ele>
        <time>2022-07-12T14:18:08Z</time>
      </trkpt>
      <trkpt lat="43.61116" lon="1.37223">
        <ele>160.8</ele>
        <time>2022-07-12T14:18:14Z</time>
      </trkpt>
      <trkpt lat="43.61118" lon="1.37237">
        <ele>161</ele>
        <time>2022-07-12T14:18:16Z</time>
      </trkpt>
      <trkpt lat="43.6112" lon="1.37243">
        <ele>161</ele>
        <time>2022-07-12T14:18:17Z</time>
      </trkpt>
      <trkpt lat="43.61122" lon="1.37248">
        <ele>161</ele>
        <time>2022-07-12T14:18:18Z</time>
      </trkpt>
      <trkpt lat="43.61126" lon="1.37257">
        <ele>161</ele>
        <time>2022-07-12T14:18:20Z</time>
      </trkpt>
      <trkpt lat="43.6112" lon="1.37291">
        <ele>161.2</ele>
        <time>2022-07-12T14:18:25Z</time>
      </trkpt>
      <trkpt lat="43.61118" lon="1.37322">
        <ele>161.4</ele>
        <time>2022-07-12T14:18:29Z</time>
      </trkpt>
      <trkpt lat="43.61116" lon="1.37338">
        <ele>161.4</ele>
        <time>2022-07-12T14:18:31Z</time>
      </trkpt>
      <trkpt lat="43.61106" lon="1.37389">
        <ele>161.2</ele>
        <time>2022-07-12T14:18:37Z</time>
      </trkpt>
      <trkpt lat="43.61095" lon="1.37443">
        <ele>161</ele>
        <time>2022-07-12T14:18:43Z</time>
      </trkpt>
      <trkpt lat="43.61091" lon="1.37463">
        <ele>160.8</ele>
        <time>2022-07-12T14:18:47Z</time>
      </trkpt>
      <trkpt lat="43.61082" lon="1.37462">
        <ele>160</ele>
        <time>2022-07-12T14:18:51Z</time>
      </trkpt>
      <trkpt lat="43.6108" lon="1.37462">
        <ele>159.8</ele>
        <time>2022-07-12T14:18:52Z</time>
      </trkpt>
      <trkpt lat="43.61075" lon="1.37475">
        <ele>159.2</ele>
        <time>2022-07-12T14:18:55Z</time>
      </trkpt>
      <trkpt lat="43.61072" lon="1.37489">
        <ele>158.8</ele>
        <time>2022-07-12T14:18:57Z</time>
      </trkpt>
      <trkpt lat="43.61071" lon="1.37503">
        <ele>158.8</ele>
        <time>2022-07-12T14:18:59Z</time>
      </trkpt>
      <trkpt lat="43.61072" lon="1.3752">
        <ele>158.8</ele>
        <time>2022-07-12T14:19:01Z</time>
      </trkpt>
      <trkpt lat="43.61077" lon="1.37537">
        <ele>158.8</ele>
        <time>2022-07-12T14:19:03Z</time>
      </trkpt>
      <trkpt lat="43.61085" lon="1.3756">
        <ele>158.8</ele>
        <time>2022-07-12T14:19:06Z</time>
      </trkpt>
      <trkpt lat="43.61084" lon="1.37575">
        <ele>159</ele>
        <time>2022-07-12T14:19:08Z</time>
      </trkpt>
      <trkpt lat="43.61076" lon="1.37586">
        <ele>158.8</ele>
        <time>2022-07-12T14:19:10Z</time>
      </trkpt>
      <trkpt lat="43.61072" lon="1.3759">
        <ele>158.8</ele>
        <time>2022-07-12T14:19:11Z</time>
      </trkpt>
      <trkpt lat="43.61033" lon="1.37626">
        <ele>158.2</ele>
        <time>2022-07-12T14:19:19Z</time>
      </trkpt>
      <trkpt lat="43.61024" lon="1.37648">
        <ele>158</ele>
        <time>2022-07-12T14:19:22Z</time>
      </trkpt>
      <trkpt lat="43.61021" lon="1.37657">
        <ele>157.8</ele>
        <time>2022-07-12T14:19:23Z</time>
      </trkpt>
      <trkpt lat="43.61007" lon="1.37704">
        <ele>157.6</ele>
        <time>2022-07-12T14:19:29Z</time>
      </trkpt>
      <trkpt lat="43.61004" lon="1.37713">
        <ele>157.4</ele>
        <time>2022-07-12T14:19:30Z</time>
      </trkpt>
      <trkpt lat="43.60993" lon="1.3775">
        <ele>157</ele>
        <time>2022-07-12T14:19:34Z</time>
      </trkpt>
      <trkpt lat="43.6099" lon="1.3776">
        <ele>156.8</ele>
        <time>2022-07-12T14:19:35Z</time>
      </trkpt>
      <trkpt lat="43.60978" lon="1.37798">
        <ele>156.6</ele>
        <time>2022-07-12T14:19:39Z</time>
      </trkpt>
      <trkpt lat="43.60959" lon="1.37854">
        <ele>155.8</ele>
        <time>2022-07-12T14:19:45Z</time>
      </trkpt>
      <trkpt lat="43.60956" lon="1.37864">
        <ele>155.8</ele>
        <time>2022-07-12T14:19:46Z</time>
      </trkpt>
      <trkpt lat="43.60945" lon="1.37903">
        <ele>155.4</ele>
        <time>2022-07-12T14:19:50Z</time>
      </trkpt>
      <trkpt lat="43.60941" lon="1.37914">
        <ele>155.4</ele>
        <time>2022-07-12T14:19:51Z</time>
      </trkpt>
      <trkpt lat="43.60921" lon="1.3798">
        <ele>155.8</ele>
        <time>2022-07-12T14:19:57Z</time>
      </trkpt>
      <trkpt lat="43.6091" lon="1.38008">
        <ele>156</ele>
        <time>2022-07-12T14:20:00Z</time>
      </trkpt>
      <trkpt lat="43.60905" lon="1.38014">
        <ele>156</ele>
        <time>2022-07-12T14:20:01Z</time>
      </trkpt>
      <trkpt lat="43.60897" lon="1.38026">
        <ele>156</ele>
        <time>2022-07-12T14:20:03Z</time>
      </trkpt>
      <trkpt lat="43.60896" lon="1.38034">
        <ele>156</ele>
        <time>2022-07-12T14:20:04Z</time>
      </trkpt>
      <trkpt lat="43.60892" lon="1.38079">
        <ele>155.6</ele>
        <time>2022-07-12T14:20:09Z</time>
      </trkpt>
      <trkpt lat="43.60888" lon="1.38091">
        <ele>155.6</ele>
        <time>2022-07-12T14:20:10Z</time>
      </trkpt>
      <trkpt lat="43.60886" lon="1.38099">
        <ele>155.6</ele>
        <time>2022-07-12T14:20:11Z</time>
      </trkpt>
      <trkpt lat="43.60871" lon="1.38125">
        <ele>155.4</ele>
        <time>2022-07-12T14:20:14Z</time>
      </trkpt>
      <trkpt lat="43.60853" lon="1.38163">
        <ele>154.8</ele>
        <time>2022-07-12T14:20:18Z</time>
      </trkpt>
      <trkpt lat="43.60847" lon="1.38172">
        <ele>154.8</ele>
        <time>2022-07-12T14:20:19Z</time>
      </trkpt>
      <trkpt lat="43.60833" lon="1.38202">
        <ele>154.6</ele>
        <time>2022-07-12T14:20:22Z</time>
      </trkpt>
      <trkpt lat="43.60825" lon="1.38235">
        <ele>154</ele>
        <time>2022-07-12T14:20:25Z</time>
      </trkpt>
      <trkpt lat="43.60823" lon="1.38246">
        <ele>153.8</ele>
        <time>2022-07-12T14:20:26Z</time>
      </trkpt>
      <trkpt lat="43.60819" lon="1.38276">
        <ele>153.2</ele>
        <time>2022-07-12T14:20:29Z</time>
      </trkpt>
      <trkpt lat="43.60816" lon="1.38284">
        <ele>153</ele>
        <time>2022-07-12T14:20:30Z</time>
      </trkpt>
      <trkpt lat="43.60815" lon="1.3829">
        <ele>153</ele>
        <time>2022-07-12T14:20:31Z</time>
      </trkpt>
      <trkpt lat="43.60815" lon="1.38297">
        <ele>152.8</ele>
        <time>2022-07-12T14:20:32Z</time>
      </trkpt>
      <trkpt lat="43.60817" lon="1.38303">
        <ele>152.6</ele>
        <time>2022-07-12T14:20:33Z</time>
      </trkpt>
      <trkpt lat="43.60821" lon="1.38317">
        <ele>152</ele>
        <time>2022-07-12T14:20:35Z</time>
      </trkpt>
      <trkpt lat="43.60824" lon="1.38332">
        <ele>151.6</ele>
        <time>2022-07-12T14:20:37Z</time>
      </trkpt>
      <trkpt lat="43.60826" lon="1.38339">
        <ele>151.6</ele>
        <time>2022-07-12T14:20:38Z</time>
      </trkpt>
      <trkpt lat="43.60828" lon="1.38347">
        <ele>151.4</ele>
        <time>2022-07-12T14:20:39Z</time>
      </trkpt>
      <trkpt lat="43.60832" lon="1.38371">
        <ele>151.2</ele>
        <time>2022-07-12T14:20:42Z</time>
      </trkpt>
      <trkpt lat="43.60839" lon="1.38423">
        <ele>151</ele>
        <time>2022-07-12T14:20:49Z</time>
      </trkpt>
      <trkpt lat="43.60845" lon="1.38461">
        <ele>150.8</ele>
        <time>2022-07-12T14:20:54Z</time>
      </trkpt>
      <trkpt lat="43.60848" lon="1.38484">
        <ele>150.8</ele>
        <time>2022-07-12T14:20:57Z</time>
      </trkpt>
      <trkpt lat="43.60856" lon="1.38532">
        <ele>151.4</ele>
        <time>2022-07-12T14:21:05Z</time>
      </trkpt>
      <trkpt lat="43.60855" lon="1.38536">
        <ele>151.6</ele>
        <time>2022-07-12T14:21:06Z</time>
      </trkpt>
      <trkpt lat="43.6085" lon="1.3854">
        <ele>151.8</ele>
        <time>2022-07-12T14:21:08Z</time>
      </trkpt>
      <trkpt lat="43.60839" lon="1.38543">
        <ele>151.8</ele>
        <time>2022-07-12T14:21:10Z</time>
      </trkpt>
      <trkpt lat="43.60833" lon="1.38543">
        <ele>151.8</ele>
        <time>2022-07-12T14:21:11Z</time>
      </trkpt>
      <trkpt lat="43.60826" lon="1.38543">
        <ele>152</ele>
        <time>2022-07-12T14:21:12Z</time>
      </trkpt>
      <trkpt lat="43.60817" lon="1.38549">
        <ele>151.8</ele>
        <time>2022-07-12T14:21:14Z</time>
      </trkpt>
      <trkpt lat="43.60811" lon="1.38559">
        <ele>151.6</ele>
        <time>2022-07-12T14:21:16Z</time>
      </trkpt>
      <trkpt lat="43.60806" lon="1.38566">
        <ele>151.6</ele>
        <time>2022-07-12T14:21:18Z</time>
      </trkpt>
      <trkpt lat="43.60798" lon="1.38577">
        <ele>152.2</ele>
        <time>2022-07-12T14:21:22Z</time>
      </trkpt>
      <trkpt lat="43.60797" lon="1.38578">
        <ele>152.4</ele>
        <time>2022-07-12T14:21:23Z</time>
      </trkpt>
      <trkpt lat="43.60788" lon="1.38587">
        <ele>153.2</ele>
        <time>2022-07-12T14:21:27Z</time>
      </trkpt>
      <trkpt lat="43.60787" lon="1.38591">
        <ele>153.4</ele>
        <time>2022-07-12T14:21:28Z</time>
      </trkpt>
      <trkpt lat="43.60784" lon="1.38597">
        <ele>154</ele>
        <time>2022-07-12T14:21:30Z</time>
      </trkpt>
      <trkpt lat="43.60782" lon="1.38602">
        <ele>154.6</ele>
        <time>2022-07-12T14:21:32Z</time>
      </trkpt>
      <trkpt lat="43.60777" lon="1.38609">
        <ele>155.4</ele>
        <time>2022-07-12T14:21:35Z</time>
      </trkpt>
      <trkpt lat="43.60775" lon="1.3861">
        <ele>155.4</ele>
        <time>2022-07-12T14:21:36Z</time>
      </trkpt>
      <trkpt lat="43.60772" lon="1.38609">
        <ele>155.8</ele>
        <time>2022-07-12T14:21:37Z</time>
      </trkpt>
      <trkpt lat="43.60759" lon="1.38605">
        <ele>156.8</ele>
        <time>2022-07-12T14:21:41Z</time>
      </trkpt>
      <trkpt lat="43.60756" lon="1.38604">
        <ele>156.8</ele>
        <time>2022-07-12T14:21:42Z</time>
      </trkpt>
      <trkpt lat="43.60739" lon="1.386">
        <ele>157.8</ele>
        <time>2022-07-12T14:21:47Z</time>
      </trkpt>
      <trkpt lat="43.60731" lon="1.386">
        <ele>158</ele>
        <time>2022-07-12T14:21:49Z</time>
      </trkpt>
      <trkpt lat="43.60715" lon="1.38604">
        <ele>158.4</ele>
        <time>2022-07-12T14:21:53Z</time>
      </trkpt>
      <trkpt lat="43.60687" lon="1.38607">
        <ele>158.4</ele>
        <time>2022-07-12T14:21:59Z</time>
      </trkpt>
      <trkpt lat="43.60653" lon="1.38599">
        <ele>158.6</ele>
        <time>2022-07-12T14:22:06Z</time>
      </trkpt>
      <trkpt lat="43.60644" lon="1.38593">
        <ele>158.6</ele>
        <time>2022-07-12T14:22:08Z</time>
      </trkpt>
      <trkpt lat="43.60637" lon="1.38584">
        <ele>158.6</ele>
        <time>2022-07-12T14:22:10Z</time>
      </trkpt>
      <trkpt lat="43.60633" lon="1.38572">
        <ele>158.8</ele>
        <time>2022-07-12T14:22:12Z</time>
      </trkpt>
      <trkpt lat="43.60627" lon="1.38549">
        <ele>159</ele>
        <time>2022-07-12T14:22:16Z</time>
      </trkpt>
      <trkpt lat="43.60624" lon="1.38528">
        <ele>159</ele>
        <time>2022-07-12T14:22:20Z</time>
      </trkpt>
      <trkpt lat="43.60623" lon="1.38507">
        <ele>158.8</ele>
        <time>2022-07-12T14:22:24Z</time>
      </trkpt>
      <trkpt lat="43.60624" lon="1.385">
        <ele>158.8</ele>
        <time>2022-07-12T14:22:25Z</time>
      </trkpt>
      <trkpt lat="43.60629" lon="1.38485">
        <ele>158.8</ele>
        <time>2022-07-12T14:22:27Z</time>
      </trkpt>
      <trkpt lat="43.60631" lon="1.38475">
        <ele>158.8</ele>
        <time>2022-07-12T14:22:28Z</time>
      </trkpt>
      <trkpt lat="43.60633" lon="1.38465">
        <ele>158.4</ele>
        <time>2022-07-12T14:22:29Z</time>
      </trkpt>
      <trkpt lat="43.60635" lon="1.38438">
        <ele>158</ele>
        <time>2022-07-12T14:22:32Z</time>
      </trkpt>
      <trkpt lat="43.60645" lon="1.38399">
        <ele>157.6</ele>
        <time>2022-07-12T14:22:36Z</time>
      </trkpt>
      <trkpt lat="43.60653" lon="1.38366">
        <ele>157</ele>
        <time>2022-07-12T14:22:39Z</time>
      </trkpt>
      <trkpt lat="43.60661" lon="1.38345">
        <ele>156.6</ele>
        <time>2022-07-12T14:22:41Z</time>
      </trkpt>
      <trkpt lat="43.60664" lon="1.38335">
        <ele>156.6</ele>
        <time>2022-07-12T14:22:42Z</time>
      </trkpt>
      <trkpt lat="43.60668" lon="1.38324">
        <ele>156</ele>
        <time>2022-07-12T14:22:43Z</time>
      </trkpt>
      <trkpt lat="43.60675" lon="1.38304">
        <ele>155.2</ele>
        <time>2022-07-12T14:22:45Z</time>
      </trkpt>
      <trkpt lat="43.6068" lon="1.38296">
        <ele>154.8</ele>
        <time>2022-07-12T14:22:46Z</time>
      </trkpt>
      <trkpt lat="43.60684" lon="1.38287">
        <ele>154.8</ele>
        <time>2022-07-12T14:22:47Z</time>
      </trkpt>
      <trkpt lat="43.60693" lon="1.38267">
        <ele>154.4</ele>
        <time>2022-07-12T14:22:49Z</time>
      </trkpt>
      <trkpt lat="43.60707" lon="1.3824">
        <ele>153.6</ele>
        <time>2022-07-12T14:22:52Z</time>
      </trkpt>
      <trkpt lat="43.60719" lon="1.38217">
        <ele>152.8</ele>
        <time>2022-07-12T14:22:55Z</time>
      </trkpt>
      <trkpt lat="43.60728" lon="1.38201">
        <ele>152.4</ele>
        <time>2022-07-12T14:22:57Z</time>
      </trkpt>
      <trkpt lat="43.60744" lon="1.38173">
        <ele>151.8</ele>
        <time>2022-07-12T14:23:01Z</time>
      </trkpt>
      <trkpt lat="43.60754" lon="1.38161">
        <ele>151.2</ele>
        <time>2022-07-12T14:23:03Z</time>
      </trkpt>
      <trkpt lat="43.60758" lon="1.38156">
        <ele>150.6</ele>
        <time>2022-07-12T14:23:04Z</time>
      </trkpt>
      <trkpt lat="43.60766" lon="1.38146">
        <ele>150.2</ele>
        <time>2022-07-12T14:23:06Z</time>
      </trkpt>
      <trkpt lat="43.60768" lon="1.3814">
        <ele>150.2</ele>
        <time>2022-07-12T14:23:07Z</time>
      </trkpt>
      <trkpt lat="43.60774" lon="1.38119">
        <ele>149.6</ele>
        <time>2022-07-12T14:23:10Z</time>
      </trkpt>
      <trkpt lat="43.60783" lon="1.3809">
        <ele>149.2</ele>
        <time>2022-07-12T14:23:14Z</time>
      </trkpt>
      <trkpt lat="43.60789" lon="1.38075">
        <ele>149</ele>
        <time>2022-07-12T14:23:16Z</time>
      </trkpt>
      <trkpt lat="43.60795" lon="1.38055">
        <ele>148.8</ele>
        <time>2022-07-12T14:23:19Z</time>
      </trkpt>
      <trkpt lat="43.60796" lon="1.3805">
        <ele>148.8</ele>
        <time>2022-07-12T14:23:20Z</time>
      </trkpt>
      <trkpt lat="43.60796" lon="1.38045">
        <ele>148.8</ele>
        <time>2022-07-12T14:23:21Z</time>
      </trkpt>
      <trkpt lat="43.60788" lon="1.38034">
        <ele>148.8</ele>
        <time>2022-07-12T14:23:23Z</time>
      </trkpt>
      <trkpt lat="43.60782" lon="1.3803">
        <ele>148.8</ele>
        <time>2022-07-12T14:23:24Z</time>
      </trkpt>
      <trkpt lat="43.60769" lon="1.38024">
        <ele>148.6</ele>
        <time>2022-07-12T14:23:26Z</time>
      </trkpt>
      <trkpt lat="43.60758" lon="1.3802">
        <ele>148.4</ele>
        <time>2022-07-12T14:23:28Z</time>
      </trkpt>
      <trkpt lat="43.60745" lon="1.38018">
        <ele>148.4</ele>
        <time>2022-07-12T14:23:30Z</time>
      </trkpt>
      <trkpt lat="43.60724" lon="1.38021">
        <ele>148.2</ele>
        <time>2022-07-12T14:23:33Z</time>
      </trkpt>
      <trkpt lat="43.60716" lon="1.38021">
        <ele>148.2</ele>
        <time>2022-07-12T14:23:34Z</time>
      </trkpt>
      <trkpt lat="43.60704" lon="1.38021">
        <ele>148</ele>
        <time>2022-07-12T14:23:36Z</time>
      </trkpt>
      <trkpt lat="43.60692" lon="1.38018">
        <ele>148</ele>
        <time>2022-07-12T14:23:38Z</time>
      </trkpt>
      <trkpt lat="43.60678" lon="1.38012">
        <ele>148</ele>
        <time>2022-07-12T14:23:41Z</time>
      </trkpt>
      <trkpt lat="43.60668" lon="1.38013">
        <ele>147.8</ele>
        <time>2022-07-12T14:23:43Z</time>
      </trkpt>
      <trkpt lat="43.6065" lon="1.38034">
        <ele>148</ele>
        <time>2022-07-12T14:23:47Z</time>
      </trkpt>
      <trkpt lat="43.60645" lon="1.38037">
        <ele>148</ele>
        <time>2022-07-12T14:23:48Z</time>
      </trkpt>
      <trkpt lat="43.6064" lon="1.38039">
        <ele>148</ele>
        <time>2022-07-12T14:23:49Z</time>
      </trkpt>
      <trkpt lat="43.60631" lon="1.38038">
        <ele>148.2</ele>
        <time>2022-07-12T14:23:52Z</time>
      </trkpt>
      <trkpt lat="43.60602" lon="1.38036">
        <ele>149</ele>
        <time>2022-07-12T14:23:59Z</time>
      </trkpt>
      <trkpt lat="43.60588" lon="1.38037">
        <ele>149.2</ele>
        <time>2022-07-12T14:24:02Z</time>
      </trkpt>
      <trkpt lat="43.60579" lon="1.38037">
        <ele>149.2</ele>
        <time>2022-07-12T14:24:04Z</time>
      </trkpt>
      <trkpt lat="43.60568" lon="1.38036">
        <ele>149.2</ele>
        <time>2022-07-12T14:24:06Z</time>
      </trkpt>
      <trkpt lat="43.60558" lon="1.38034">
        <ele>149.6</ele>
        <time>2022-07-12T14:24:08Z</time>
      </trkpt>
      <trkpt lat="43.60549" lon="1.38029">
        <ele>149.6</ele>
        <time>2022-07-12T14:24:10Z</time>
      </trkpt>
      <trkpt lat="43.60539" lon="1.38013">
        <ele>149.8</ele>
        <time>2022-07-12T14:24:13Z</time>
      </trkpt>
      <trkpt lat="43.60527" lon="1.38002">
        <ele>149.8</ele>
        <time>2022-07-12T14:24:15Z</time>
      </trkpt>
      <trkpt lat="43.60514" lon="1.37992">
        <ele>150</ele>
        <time>2022-07-12T14:24:17Z</time>
      </trkpt>
      <trkpt lat="43.60503" lon="1.37983">
        <ele>150</ele>
        <time>2022-07-12T14:24:19Z</time>
      </trkpt>
      <trkpt lat="43.60492" lon="1.37977">
        <ele>150</ele>
        <time>2022-07-12T14:24:21Z</time>
      </trkpt>
      <trkpt lat="43.60478" lon="1.37972">
        <ele>150</ele>
        <time>2022-07-12T14:24:23Z</time>
      </trkpt>
      <trkpt lat="43.60465" lon="1.37967">
        <ele>150</ele>
        <time>2022-07-12T14:24:25Z</time>
      </trkpt>
      <trkpt lat="43.6046" lon="1.37967">
        <ele>150</ele>
        <time>2022-07-12T14:24:26Z</time>
      </trkpt>
      <trkpt lat="43.60455" lon="1.37967">
        <ele>150</ele>
        <time>2022-07-12T14:24:27Z</time>
      </trkpt>
      <trkpt lat="43.60447" lon="1.37962">
        <ele>150.4</ele>
        <time>2022-07-12T14:24:29Z</time>
      </trkpt>
      <trkpt lat="43.60442" lon="1.37959">
        <ele>150.4</ele>
        <time>2022-07-12T14:24:30Z</time>
      </trkpt>
      <trkpt lat="43.60432" lon="1.37952">
        <ele>150.4</ele>
        <time>2022-07-12T14:24:32Z</time>
      </trkpt>
      <trkpt lat="43.60428" lon="1.37949">
        <ele>150.6</ele>
        <time>2022-07-12T14:24:33Z</time>
      </trkpt>
      <trkpt lat="43.60415" lon="1.37941">
        <ele>150.8</ele>
        <time>2022-07-12T14:24:36Z</time>
      </trkpt>
      <trkpt lat="43.60396" lon="1.37928">
        <ele>150.8</ele>
        <time>2022-07-12T14:24:40Z</time>
      </trkpt>
      <trkpt lat="43.60382" lon="1.37916">
        <ele>151.2</ele>
        <time>2022-07-12T14:24:43Z</time>
      </trkpt>
      <trkpt lat="43.60374" lon="1.37906">
        <ele>151.2</ele>
        <time>2022-07-12T14:24:45Z</time>
      </trkpt>
      <trkpt lat="43.6037" lon="1.37896">
        <ele>151.4</ele>
        <time>2022-07-12T14:24:47Z</time>
      </trkpt>
      <trkpt lat="43.60368" lon="1.37885">
        <ele>151.4</ele>
        <time>2022-07-12T14:24:49Z</time>
      </trkpt>
      <trkpt lat="43.60361" lon="1.37871">
        <ele>151.4</ele>
        <time>2022-07-12T14:24:52Z</time>
      </trkpt>
      <trkpt lat="43.60356" lon="1.3786">
        <ele>151.4</ele>
        <time>2022-07-12T14:24:54Z</time>
      </trkpt>
      <trkpt lat="43.60351" lon="1.3785">
        <ele>151.4</ele>
        <time>2022-07-12T14:24:56Z</time>
      </trkpt>
      <trkpt lat="43.60341" lon="1.37846">
        <ele>151.4</ele>
        <time>2022-07-12T14:24:58Z</time>
      </trkpt>
      <trkpt lat="43.60335" lon="1.37848">
        <ele>151.2</ele>
        <time>2022-07-12T14:24:59Z</time>
      </trkpt>
      <trkpt lat="43.60322" lon="1.37856">
        <ele>151.2</ele>
        <time>2022-07-12T14:25:02Z</time>
      </trkpt>
      <trkpt lat="43.60313" lon="1.37861">
        <ele>151</ele>
        <time>2022-07-12T14:25:04Z</time>
      </trkpt>
      <trkpt lat="43.60308" lon="1.37863">
        <ele>151</ele>
        <time>2022-07-12T14:25:05Z</time>
      </trkpt>
      <trkpt lat="43.60292" lon="1.37862">
        <ele>150.8</ele>
        <time>2022-07-12T14:25:08Z</time>
      </trkpt>
      <trkpt lat="43.60281" lon="1.37864">
        <ele>150.8</ele>
        <time>2022-07-12T14:25:10Z</time>
      </trkpt>
      <trkpt lat="43.6026" lon="1.37864">
        <ele>151</ele>
        <time>2022-07-12T14:25:14Z</time>
      </trkpt>
      <trkpt lat="43.60255" lon="1.37865">
        <ele>151</ele>
        <time>2022-07-12T14:25:15Z</time>
      </trkpt>
      <trkpt lat="43.60228" lon="1.37863">
        <ele>151</ele>
        <time>2022-07-12T14:25:20Z</time>
      </trkpt>
      <trkpt lat="43.60209" lon="1.37858">
        <ele>151</ele>
        <time>2022-07-12T14:25:24Z</time>
      </trkpt>
      <trkpt lat="43.60201" lon="1.37851">
        <ele>151</ele>
        <time>2022-07-12T14:25:26Z</time>
      </trkpt>
      <trkpt lat="43.60193" lon="1.3784">
        <ele>151.2</ele>
        <time>2022-07-12T14:25:28Z</time>
      </trkpt>
      <trkpt lat="43.60188" lon="1.37827">
        <ele>151.2</ele>
        <time>2022-07-12T14:25:30Z</time>
      </trkpt>
      <trkpt lat="43.60185" lon="1.37806">
        <ele>151.2</ele>
        <time>2022-07-12T14:25:33Z</time>
      </trkpt>
      <trkpt lat="43.60184" lon="1.3779">
        <ele>151.2</ele>
        <time>2022-07-12T14:25:35Z</time>
      </trkpt>
      <trkpt lat="43.60178" lon="1.37732">
        <ele>151.2</ele>
        <time>2022-07-12T14:25:42Z</time>
      </trkpt>
      <trkpt lat="43.60177" lon="1.37713">
        <ele>151</ele>
        <time>2022-07-12T14:25:44Z</time>
      </trkpt>
      <trkpt lat="43.60175" lon="1.37686">
        <ele>150.8</ele>
        <time>2022-07-12T14:25:47Z</time>
      </trkpt>
      <trkpt lat="43.6017" lon="1.37633">
        <ele>150.8</ele>
        <time>2022-07-12T14:25:53Z</time>
      </trkpt>
      <trkpt lat="43.60172" lon="1.37624">
        <ele>150.8</ele>
        <time>2022-07-12T14:25:54Z</time>
      </trkpt>
      <trkpt lat="43.60176" lon="1.37617">
        <ele>150.8</ele>
        <time>2022-07-12T14:25:55Z</time>
      </trkpt>
      <trkpt lat="43.60181" lon="1.37602">
        <ele>150.6</ele>
        <time>2022-07-12T14:25:57Z</time>
      </trkpt>
      <trkpt lat="43.6018" lon="1.37597">
        <ele>150.6</ele>
        <time>2022-07-12T14:25:58Z</time>
      </trkpt>
      <trkpt lat="43.60173" lon="1.3758">
        <ele>150</ele>
        <time>2022-07-12T14:26:02Z</time>
      </trkpt>
      <trkpt lat="43.60169" lon="1.37573">
        <ele>149.6</ele>
        <time>2022-07-12T14:26:04Z</time>
      </trkpt>
      <trkpt lat="43.6016" lon="1.37558">
        <ele>149.2</ele>
        <time>2022-07-12T14:26:08Z</time>
      </trkpt>
      <trkpt lat="43.60147" lon="1.37544">
        <ele>149</ele>
        <time>2022-07-12T14:26:12Z</time>
      </trkpt>
      <trkpt lat="43.60136" lon="1.37542">
        <ele>148.8</ele>
        <time>2022-07-12T14:26:15Z</time>
      </trkpt>
      <trkpt lat="43.60132" lon="1.37545">
        <ele>149</ele>
        <time>2022-07-12T14:26:16Z</time>
      </trkpt>
      <trkpt lat="43.60112" lon="1.3757">
        <ele>148.8</ele>
        <time>2022-07-12T14:26:21Z</time>
      </trkpt>
      <trkpt lat="43.60097" lon="1.37582">
        <ele>148.8</ele>
        <time>2022-07-12T14:26:24Z</time>
      </trkpt>
      <trkpt lat="43.6009" lon="1.37591">
        <ele>148.6</ele>
        <time>2022-07-12T14:26:26Z</time>
      </trkpt>
      <trkpt lat="43.60087" lon="1.37597">
        <ele>148.6</ele>
        <time>2022-07-12T14:26:27Z</time>
      </trkpt>
      <trkpt lat="43.60087" lon="1.3761">
        <ele>148.6</ele>
        <time>2022-07-12T14:26:29Z</time>
      </trkpt>
      <trkpt lat="43.60091" lon="1.37625">
        <ele>148.6</ele>
        <time>2022-07-12T14:26:31Z</time>
      </trkpt>
      <trkpt lat="43.60096" lon="1.37639">
        <ele>148.8</ele>
        <time>2022-07-12T14:26:33Z</time>
      </trkpt>
      <trkpt lat="43.60099" lon="1.37651">
        <ele>149.2</ele>
        <time>2022-07-12T14:26:35Z</time>
      </trkpt>
      <trkpt lat="43.60099" lon="1.37665">
        <ele>149.6</ele>
        <time>2022-07-12T14:26:37Z</time>
      </trkpt>
      <trkpt lat="43.60098" lon="1.37671">
        <ele>149.8</ele>
        <time>2022-07-12T14:26:38Z</time>
      </trkpt>
      <trkpt lat="43.60093" lon="1.37691">
        <ele>150.2</ele>
        <time>2022-07-12T14:26:41Z</time>
      </trkpt>
      <trkpt lat="43.60091" lon="1.37696">
        <ele>150.2</ele>
        <time>2022-07-12T14:26:42Z</time>
      </trkpt>
      <trkpt lat="43.60089" lon="1.37702">
        <ele>150.4</ele>
        <time>2022-07-12T14:26:43Z</time>
      </trkpt>
      <trkpt lat="43.60081" lon="1.37708">
        <ele>150.4</ele>
        <time>2022-07-12T14:26:45Z</time>
      </trkpt>
      <trkpt lat="43.60067" lon="1.37708">
        <ele>150.4</ele>
        <time>2022-07-12T14:26:48Z</time>
      </trkpt>
      <trkpt lat="43.60061" lon="1.3771">
        <ele>150.4</ele>
        <time>2022-07-12T14:26:49Z</time>
      </trkpt>
      <trkpt lat="43.60055" lon="1.37713">
        <ele>150.4</ele>
        <time>2022-07-12T14:26:50Z</time>
      </trkpt>
      <trkpt lat="43.60042" lon="1.37722">
        <ele>150.8</ele>
        <time>2022-07-12T14:26:53Z</time>
      </trkpt>
      <trkpt lat="43.60036" lon="1.37726">
        <ele>150.8</ele>
        <time>2022-07-12T14:26:54Z</time>
      </trkpt>
      <trkpt lat="43.60031" lon="1.37731">
        <ele>150.8</ele>
        <time>2022-07-12T14:26:55Z</time>
      </trkpt>
      <trkpt lat="43.60016" lon="1.37746">
        <ele>150.8</ele>
        <time>2022-07-12T14:26:58Z</time>
      </trkpt>
      <trkpt lat="43.60007" lon="1.37753">
        <ele>150.6</ele>
        <time>2022-07-12T14:27:00Z</time>
      </trkpt>
      <trkpt lat="43.59996" lon="1.37759">
        <ele>150.6</ele>
        <time>2022-07-12T14:27:02Z</time>
      </trkpt>
      <trkpt lat="43.59982" lon="1.37768">
        <ele>150.8</ele>
        <time>2022-07-12T14:27:05Z</time>
      </trkpt>
      <trkpt lat="43.59963" lon="1.37774">
        <ele>151.2</ele>
        <time>2022-07-12T14:27:08Z</time>
      </trkpt>
      <trkpt lat="43.59959" lon="1.37776">
        <ele>151.4</ele>
        <time>2022-07-12T14:27:09Z</time>
      </trkpt>
      <trkpt lat="43.59944" lon="1.3778">
        <ele>151.6</ele>
        <time>2022-07-12T14:27:12Z</time>
      </trkpt>
      <trkpt lat="43.59935" lon="1.37777">
        <ele>151.6</ele>
        <time>2022-07-12T14:27:14Z</time>
      </trkpt>
      <trkpt lat="43.59924" lon="1.37772">
        <ele>152</ele>
        <time>2022-07-12T14:27:16Z</time>
      </trkpt>
      <trkpt lat="43.5992" lon="1.3777">
        <ele>152</ele>
        <time>2022-07-12T14:27:17Z</time>
      </trkpt>
      <trkpt lat="43.59902" lon="1.37763">
        <ele>152.2</ele>
        <time>2022-07-12T14:27:20Z</time>
      </trkpt>
      <trkpt lat="43.59893" lon="1.37761">
        <ele>152.2</ele>
        <time>2022-07-12T14:27:22Z</time>
      </trkpt>
      <trkpt lat="43.59883" lon="1.37754">
        <ele>152.4</ele>
        <time>2022-07-12T14:27:25Z</time>
      </trkpt>
      <trkpt lat="43.59881" lon="1.37751">
        <ele>152.4</ele>
        <time>2022-07-12T14:27:26Z</time>
      </trkpt>
      <trkpt lat="43.5988" lon="1.37746">
        <ele>152.4</ele>
        <time>2022-07-12T14:27:27Z</time>
      </trkpt>
      <trkpt lat="43.59882" lon="1.37729">
        <ele>152.6</ele>
        <time>2022-07-12T14:27:29Z</time>
      </trkpt>
      <trkpt lat="43.59883" lon="1.37721">
        <ele>152.6</ele>
        <time>2022-07-12T14:27:30Z</time>
      </trkpt>
      <trkpt lat="43.59886" lon="1.37701">
        <ele>152.6</ele>
        <time>2022-07-12T14:27:33Z</time>
      </trkpt>
      <trkpt lat="43.59889" lon="1.37681">
        <ele>152.4</ele>
        <time>2022-07-12T14:27:37Z</time>
      </trkpt>
      <trkpt lat="43.59891" lon="1.37653">
        <ele>152</ele>
        <time>2022-07-12T14:27:41Z</time>
      </trkpt>
      <trkpt lat="43.59884" lon="1.37638">
        <ele>151.8</ele>
        <time>2022-07-12T14:27:45Z</time>
      </trkpt>
      <trkpt lat="43.59886" lon="1.37635">
        <ele>151.6</ele>
        <time>2022-07-12T14:27:46Z</time>
      </trkpt>
      <trkpt lat="43.59887" lon="1.3763">
        <ele>151.4</ele>
        <time>2022-07-12T14:27:48Z</time>
      </trkpt>
      <trkpt lat="43.59875" lon="1.37621">
        <ele>151.4</ele>
        <time>2022-07-12T14:27:50Z</time>
      </trkpt>
      <trkpt lat="43.59849" lon="1.37603">
        <ele>151.6</ele>
        <time>2022-07-12T14:27:55Z</time>
      </trkpt>
      <trkpt lat="43.59836" lon="1.3759">
        <ele>151.6</ele>
        <time>2022-07-12T14:27:59Z</time>
      </trkpt>
      <trkpt lat="43.59823" lon="1.37586">
        <ele>151.6</ele>
        <time>2022-07-12T14:28:03Z</time>
      </trkpt>
      <trkpt lat="43.59806" lon="1.37588">
        <ele>151.4</ele>
        <time>2022-07-12T14:28:07Z</time>
      </trkpt>
      <trkpt lat="43.59802" lon="1.3759">
        <ele>151.4</ele>
        <time>2022-07-12T14:28:08Z</time>
      </trkpt>
      <trkpt lat="43.59781" lon="1.37607">
        <ele>151.4</ele>
        <time>2022-07-12T14:28:13Z</time>
      </trkpt>
      <trkpt lat="43.59765" lon="1.37624">
        <ele>151.2</ele>
        <time>2022-07-12T14:28:16Z</time>
      </trkpt>
      <trkpt lat="43.59757" lon="1.37634">
        <ele>151.4</ele>
        <time>2022-07-12T14:28:18Z</time>
      </trkpt>
      <trkpt lat="43.59746" lon="1.37653">
        <ele>151.4</ele>
        <time>2022-07-12T14:28:22Z</time>
      </trkpt>
      <trkpt lat="43.59733" lon="1.37671">
        <ele>152.2</ele>
        <time>2022-07-12T14:28:27Z</time>
      </trkpt>
      <trkpt lat="43.59722" lon="1.37673">
        <ele>152.6</ele>
        <time>2022-07-12T14:28:31Z</time>
      </trkpt>
      <trkpt lat="43.59722" lon="1.37673">
        <ele>152.6</ele>
        <time>2022-07-12T14:28:33Z</time>
      </trkpt>
      <trkpt lat="43.59722" lon="1.37673">
        <ele>152.8</ele>
        <time>2022-07-12T14:28:34Z</time>
      </trkpt>
      <trkpt lat="43.59709" lon="1.3767">
        <ele>151.4</ele>
        <time>2022-07-12T14:28:51Z</time>
      </trkpt>
      <trkpt lat="43.59706" lon="1.3767">
        <ele>151.4</ele>
        <time>2022-07-12T14:28:52Z</time>
      </trkpt>
      <trkpt lat="43.59698" lon="1.3767">
        <ele>151.2</ele>
        <time>2022-07-12T14:28:55Z</time>
      </trkpt>
      <trkpt lat="43.59695" lon="1.37669">
        <ele>151.2</ele>
        <time>2022-07-12T14:28:56Z</time>
      </trkpt>
      <trkpt lat="43.59684" lon="1.37656">
        <ele>151</ele>
        <time>2022-07-12T14:29:01Z</time>
      </trkpt>
      <trkpt lat="43.59672" lon="1.3764">
        <ele>151</ele>
        <time>2022-07-12T14:29:05Z</time>
      </trkpt>
      <trkpt lat="43.59661" lon="1.37631">
        <ele>151.2</ele>
        <time>2022-07-12T14:29:07Z</time>
      </trkpt>
      <trkpt lat="43.59654" lon="1.37619">
        <ele>151.4</ele>
        <time>2022-07-12T14:29:09Z</time>
      </trkpt>
      <trkpt lat="43.59651" lon="1.37613">
        <ele>151.4</ele>
        <time>2022-07-12T14:29:10Z</time>
      </trkpt>
      <trkpt lat="43.59646" lon="1.37606">
        <ele>151.4</ele>
        <time>2022-07-12T14:29:11Z</time>
      </trkpt>
      <trkpt lat="43.59633" lon="1.37591">
        <ele>151.6</ele>
        <time>2022-07-12T14:29:14Z</time>
      </trkpt>
      <trkpt lat="43.59618" lon="1.37577">
        <ele>151.8</ele>
        <time>2022-07-12T14:29:18Z</time>
      </trkpt>
      <trkpt lat="43.59609" lon="1.37564">
        <ele>152.2</ele>
        <time>2022-07-12T14:29:22Z</time>
      </trkpt>
      <trkpt lat="43.59602" lon="1.37558">
        <ele>152.4</ele>
        <time>2022-07-12T14:29:24Z</time>
      </trkpt>
      <trkpt lat="43.596" lon="1.37553">
        <ele>152.4</ele>
        <time>2022-07-12T14:29:25Z</time>
      </trkpt>
      <trkpt lat="43.59602" lon="1.3754">
        <ele>152.8</ele>
        <time>2022-07-12T14:29:27Z</time>
      </trkpt>
      <trkpt lat="43.59603" lon="1.37532">
        <ele>153</ele>
        <time>2022-07-12T14:29:28Z</time>
      </trkpt>
      <trkpt lat="43.59605" lon="1.37517">
        <ele>153.2</ele>
        <time>2022-07-12T14:29:30Z</time>
      </trkpt>
      <trkpt lat="43.59605" lon="1.37507">
        <ele>153.2</ele>
        <time>2022-07-12T14:29:31Z</time>
      </trkpt>
      <trkpt lat="43.59607" lon="1.37498">
        <ele>153.2</ele>
        <time>2022-07-12T14:29:32Z</time>
      </trkpt>
      <trkpt lat="43.59614" lon="1.37485">
        <ele>153</ele>
        <time>2022-07-12T14:29:35Z</time>
      </trkpt>
      <trkpt lat="43.59624" lon="1.37465">
        <ele>152.8</ele>
        <time>2022-07-12T14:29:40Z</time>
      </trkpt>
      <trkpt lat="43.59637" lon="1.37416">
        <ele>152.6</ele>
        <time>2022-07-12T14:29:46Z</time>
      </trkpt>
      <trkpt lat="43.59642" lon="1.37395">
        <ele>152.6</ele>
        <time>2022-07-12T14:29:49Z</time>
      </trkpt>
      <trkpt lat="43.59645" lon="1.37379">
        <ele>152.6</ele>
        <time>2022-07-12T14:29:51Z</time>
      </trkpt>
      <trkpt lat="43.59644" lon="1.37363">
        <ele>152.6</ele>
        <time>2022-07-12T14:29:53Z</time>
      </trkpt>
      <trkpt lat="43.59637" lon="1.37353">
        <ele>152.6</ele>
        <time>2022-07-12T14:29:55Z</time>
      </trkpt>
      <trkpt lat="43.59618" lon="1.37322">
        <ele>153</ele>
        <time>2022-07-12T14:30:00Z</time>
      </trkpt>
      <trkpt lat="43.59616" lon="1.37317">
        <ele>153</ele>
        <time>2022-07-12T14:30:01Z</time>
      </trkpt>
      <trkpt lat="43.59614" lon="1.3731">
        <ele>153.2</ele>
        <time>2022-07-12T14:30:02Z</time>
      </trkpt>
      <trkpt lat="43.59613" lon="1.37304">
        <ele>153.2</ele>
        <time>2022-07-12T14:30:03Z</time>
      </trkpt>
      <trkpt lat="43.59612" lon="1.37298">
        <ele>153.2</ele>
        <time>2022-07-12T14:30:04Z</time>
      </trkpt>
      <trkpt lat="43.59609" lon="1.37292">
        <ele>153.4</ele>
        <time>2022-07-12T14:30:05Z</time>
      </trkpt>
      <trkpt lat="43.59606" lon="1.37286">
        <ele>153.2</ele>
        <time>2022-07-12T14:30:06Z</time>
      </trkpt>
      <trkpt lat="43.59594" lon="1.37267">
        <ele>153.2</ele>
        <time>2022-07-12T14:30:09Z</time>
      </trkpt>
      <trkpt lat="43.59583" lon="1.37246">
        <ele>153</ele>
        <time>2022-07-12T14:30:12Z</time>
      </trkpt>
      <trkpt lat="43.59578" lon="1.37231">
        <ele>153</ele>
        <time>2022-07-12T14:30:14Z</time>
      </trkpt>
      <trkpt lat="43.59572" lon="1.37206">
        <ele>153</ele>
        <time>2022-07-12T14:30:17Z</time>
      </trkpt>
      <trkpt lat="43.59569" lon="1.3719">
        <ele>153</ele>
        <time>2022-07-12T14:30:19Z</time>
      </trkpt>
      <trkpt lat="43.59565" lon="1.37174">
        <ele>152.8</ele>
        <time>2022-07-12T14:30:21Z</time>
      </trkpt>
      <trkpt lat="43.59562" lon="1.3716">
        <ele>152.8</ele>
        <time>2022-07-12T14:30:23Z</time>
      </trkpt>
      <trkpt lat="43.59561" lon="1.37118">
        <ele>152.6</ele>
        <time>2022-07-12T14:30:28Z</time>
      </trkpt>
      <trkpt lat="43.59567" lon="1.37093">
        <ele>152.6</ele>
        <time>2022-07-12T14:30:31Z</time>
      </trkpt>
      <trkpt lat="43.59574" lon="1.37076">
        <ele>152.4</ele>
        <time>2022-07-12T14:30:33Z</time>
      </trkpt>
      <trkpt lat="43.59577" lon="1.37069">
        <ele>152.4</ele>
        <time>2022-07-12T14:30:34Z</time>
      </trkpt>
      <trkpt lat="43.59591" lon="1.37039">
        <ele>152.4</ele>
        <time>2022-07-12T14:30:38Z</time>
      </trkpt>
      <trkpt lat="43.59593" lon="1.37029">
        <ele>152.4</ele>
        <time>2022-07-12T14:30:39Z</time>
      </trkpt>
      <trkpt lat="43.59595" lon="1.3702">
        <ele>152.4</ele>
        <time>2022-07-12T14:30:40Z</time>
      </trkpt>
      <trkpt lat="43.59594" lon="1.37002">
        <ele>152.6</ele>
        <time>2022-07-12T14:30:42Z</time>
      </trkpt>
      <trkpt lat="43.59589" lon="1.36988">
        <ele>152.6</ele>
        <time>2022-07-12T14:30:44Z</time>
      </trkpt>
      <trkpt lat="43.59581" lon="1.36977">
        <ele>152.6</ele>
        <time>2022-07-12T14:30:46Z</time>
      </trkpt>
      <trkpt lat="43.59576" lon="1.36972">
        <ele>152.6</ele>
        <time>2022-07-12T14:30:47Z</time>
      </trkpt>
      <trkpt lat="43.59553" lon="1.36953">
        <ele>152.6</ele>
        <time>2022-07-12T14:30:51Z</time>
      </trkpt>
      <trkpt lat="43.59518" lon="1.36919">
        <ele>152.6</ele>
        <time>2022-07-12T14:30:58Z</time>
      </trkpt>
      <trkpt lat="43.59513" lon="1.36915">
        <ele>152.6</ele>
        <time>2022-07-12T14:30:59Z</time>
      </trkpt>
      <trkpt lat="43.59503" lon="1.36909">
        <ele>152.6</ele>
        <time>2022-07-12T14:31:01Z</time>
      </trkpt>
      <trkpt lat="43.5948" lon="1.36899">
        <ele>153</ele>
        <time>2022-07-12T14:31:05Z</time>
      </trkpt>
      <trkpt lat="43.59474" lon="1.36896">
        <ele>153</ele>
        <time>2022-07-12T14:31:06Z</time>
      </trkpt>
      <trkpt lat="43.59466" lon="1.36884">
        <ele>153</ele>
        <time>2022-07-12T14:31:08Z</time>
      </trkpt>
      <trkpt lat="43.59454" lon="1.36856">
        <ele>153</ele>
        <time>2022-07-12T14:31:12Z</time>
      </trkpt>
      <trkpt lat="43.59447" lon="1.36844">
        <ele>153</ele>
        <time>2022-07-12T14:31:14Z</time>
      </trkpt>
      <trkpt lat="43.59434" lon="1.36826">
        <ele>153.2</ele>
        <time>2022-07-12T14:31:17Z</time>
      </trkpt>
      <trkpt lat="43.5943" lon="1.36814">
        <ele>153.2</ele>
        <time>2022-07-12T14:31:19Z</time>
      </trkpt>
      <trkpt lat="43.59421" lon="1.36772">
        <ele>153.4</ele>
        <time>2022-07-12T14:31:24Z</time>
      </trkpt>
      <trkpt lat="43.59404" lon="1.36717">
        <ele>153.4</ele>
        <time>2022-07-12T14:31:31Z</time>
      </trkpt>
      <trkpt lat="43.59389" lon="1.36698">
        <ele>153.4</ele>
        <time>2022-07-12T14:31:34Z</time>
      </trkpt>
      <trkpt lat="43.59385" lon="1.36692">
        <ele>153.4</ele>
        <time>2022-07-12T14:31:35Z</time>
      </trkpt>
      <trkpt lat="43.59376" lon="1.36685">
        <ele>153.4</ele>
        <time>2022-07-12T14:31:37Z</time>
      </trkpt>
      <trkpt lat="43.59362" lon="1.3668">
        <ele>153.2</ele>
        <time>2022-07-12T14:31:39Z</time>
      </trkpt>
      <trkpt lat="43.59342" lon="1.36675">
        <ele>153.2</ele>
        <time>2022-07-12T14:31:42Z</time>
      </trkpt>
      <trkpt lat="43.59323" lon="1.36673">
        <ele>153</ele>
        <time>2022-07-12T14:31:45Z</time>
      </trkpt>
      <trkpt lat="43.59298" lon="1.36667">
        <ele>152.8</ele>
        <time>2022-07-12T14:31:49Z</time>
      </trkpt>
      <trkpt lat="43.59285" lon="1.36662">
        <ele>152.8</ele>
        <time>2022-07-12T14:31:51Z</time>
      </trkpt>
      <trkpt lat="43.59278" lon="1.36663">
        <ele>152.8</ele>
        <time>2022-07-12T14:31:52Z</time>
      </trkpt>
      <trkpt lat="43.59237" lon="1.36655">
        <ele>152.8</ele>
        <time>2022-07-12T14:31:59Z</time>
      </trkpt>
      <trkpt lat="43.59197" lon="1.36631">
        <ele>153</ele>
        <time>2022-07-12T14:32:06Z</time>
      </trkpt>
      <trkpt lat="43.59171" lon="1.36632">
        <ele>153.2</ele>
        <time>2022-07-12T14:32:10Z</time>
      </trkpt>
      <trkpt lat="43.59149" lon="1.36637">
        <ele>153</ele>
        <time>2022-07-12T14:32:14Z</time>
      </trkpt>
      <trkpt lat="43.59143" lon="1.36641">
        <ele>153</ele>
        <time>2022-07-12T14:32:15Z</time>
      </trkpt>
      <trkpt lat="43.59139" lon="1.36645">
        <ele>153</ele>
        <time>2022-07-12T14:32:16Z</time>
      </trkpt>
      <trkpt lat="43.59129" lon="1.36655">
        <ele>153</ele>
        <time>2022-07-12T14:32:18Z</time>
      </trkpt>
      <trkpt lat="43.59124" lon="1.36659">
        <ele>153</ele>
        <time>2022-07-12T14:32:19Z</time>
      </trkpt>
      <trkpt lat="43.59113" lon="1.36664">
        <ele>153</ele>
        <time>2022-07-12T14:32:21Z</time>
      </trkpt>
      <trkpt lat="43.59088" lon="1.36674">
        <ele>153.2</ele>
        <time>2022-07-12T14:32:25Z</time>
      </trkpt>
      <trkpt lat="43.59064" lon="1.36683">
        <ele>153.6</ele>
        <time>2022-07-12T14:32:29Z</time>
      </trkpt>
      <trkpt lat="43.59054" lon="1.36687">
        <ele>153.4</ele>
        <time>2022-07-12T14:32:31Z</time>
      </trkpt>
      <trkpt lat="43.59034" lon="1.367">
        <ele>153.6</ele>
        <time>2022-07-12T14:32:35Z</time>
      </trkpt>
      <trkpt lat="43.5903" lon="1.36701">
        <ele>153.6</ele>
        <time>2022-07-12T14:32:36Z</time>
      </trkpt>
      <trkpt lat="43.59023" lon="1.36713">
        <ele>153.8</ele>
        <time>2022-07-12T14:32:40Z</time>
      </trkpt>
      <trkpt lat="43.59022" lon="1.36716">
        <ele>153.8</ele>
        <time>2022-07-12T14:32:41Z</time>
      </trkpt>
      <trkpt lat="43.59019" lon="1.36723">
        <ele>154.2</ele>
        <time>2022-07-12T14:32:44Z</time>
      </trkpt>
      <trkpt lat="43.59017" lon="1.36724">
        <ele>154.2</ele>
        <time>2022-07-12T14:32:45Z</time>
      </trkpt>
      <trkpt lat="43.59012" lon="1.36726">
        <ele>154.2</ele>
        <time>2022-07-12T14:32:47Z</time>
      </trkpt>
      <trkpt lat="43.59009" lon="1.36724">
        <ele>154.2</ele>
        <time>2022-07-12T14:32:48Z</time>
      </trkpt>
      <trkpt lat="43.58998" lon="1.36708">
        <ele>154.2</ele>
        <time>2022-07-12T14:32:53Z</time>
      </trkpt>
      <trkpt lat="43.58976" lon="1.36705">
        <ele>154</ele>
        <time>2022-07-12T14:32:58Z</time>
      </trkpt>
      <trkpt lat="43.58971" lon="1.36703">
        <ele>154</ele>
        <time>2022-07-12T14:32:59Z</time>
      </trkpt>
      <trkpt lat="43.58947" lon="1.36693">
        <ele>153.8</ele>
        <time>2022-07-12T14:33:03Z</time>
      </trkpt>
      <trkpt lat="43.58941" lon="1.36688">
        <ele>153.8</ele>
        <time>2022-07-12T14:33:04Z</time>
      </trkpt>
      <trkpt lat="43.5893" lon="1.36679">
        <ele>153.8</ele>
        <time>2022-07-12T14:33:06Z</time>
      </trkpt>
      <trkpt lat="43.5892" lon="1.3667">
        <ele>153.4</ele>
        <time>2022-07-12T14:33:08Z</time>
      </trkpt>
      <trkpt lat="43.58912" lon="1.36659">
        <ele>153.4</ele>
        <time>2022-07-12T14:33:10Z</time>
      </trkpt>
      <trkpt lat="43.58895" lon="1.36635">
        <ele>153.8</ele>
        <time>2022-07-12T14:33:14Z</time>
      </trkpt>
      <trkpt lat="43.58892" lon="1.36628">
        <ele>153.8</ele>
        <time>2022-07-12T14:33:15Z</time>
      </trkpt>
      <trkpt lat="43.58886" lon="1.36613">
        <ele>153.8</ele>
        <time>2022-07-12T14:33:17Z</time>
      </trkpt>
      <trkpt lat="43.58867" lon="1.36584">
        <ele>153.8</ele>
        <time>2022-07-12T14:33:21Z</time>
      </trkpt>
      <trkpt lat="43.58862" lon="1.36575">
        <ele>153.8</ele>
        <time>2022-07-12T14:33:22Z</time>
      </trkpt>
      <trkpt lat="43.58854" lon="1.36555">
        <ele>153.8</ele>
        <time>2022-07-12T14:33:24Z</time>
      </trkpt>
      <trkpt lat="43.58845" lon="1.3651">
        <ele>154</ele>
        <time>2022-07-12T14:33:29Z</time>
      </trkpt>
      <trkpt lat="43.58842" lon="1.36502">
        <ele>153.8</ele>
        <time>2022-07-12T14:33:30Z</time>
      </trkpt>
      <trkpt lat="43.58828" lon="1.36478">
        <ele>153.6</ele>
        <time>2022-07-12T14:33:34Z</time>
      </trkpt>
      <trkpt lat="43.5881" lon="1.36451">
        <ele>153.4</ele>
        <time>2022-07-12T14:33:39Z</time>
      </trkpt>
      <trkpt lat="43.58802" lon="1.36431">
        <ele>153.4</ele>
        <time>2022-07-12T14:33:42Z</time>
      </trkpt>
      <trkpt lat="43.58779" lon="1.36405">
        <ele>153.4</ele>
        <time>2022-07-12T14:33:47Z</time>
      </trkpt>
      <trkpt lat="43.58754" lon="1.36382">
        <ele>152.6</ele>
        <time>2022-07-12T14:33:52Z</time>
      </trkpt>
      <trkpt lat="43.58749" lon="1.36377">
        <ele>152.6</ele>
        <time>2022-07-12T14:33:53Z</time>
      </trkpt>
      <trkpt lat="43.58709" lon="1.36332">
        <ele>151.6</ele>
        <time>2022-07-12T14:34:01Z</time>
      </trkpt>
      <trkpt lat="43.58703" lon="1.36327">
        <ele>151.4</ele>
        <time>2022-07-12T14:34:02Z</time>
      </trkpt>
      <trkpt lat="43.58693" lon="1.36318">
        <ele>151.4</ele>
        <time>2022-07-12T14:34:04Z</time>
      </trkpt>
      <trkpt lat="43.58678" lon="1.36301">
        <ele>151</ele>
        <time>2022-07-12T14:34:07Z</time>
      </trkpt>
      <trkpt lat="43.58643" lon="1.36253">
        <ele>150.6</ele>
        <time>2022-07-12T14:34:15Z</time>
      </trkpt>
      <trkpt lat="43.58635" lon="1.36244">
        <ele>150.4</ele>
        <time>2022-07-12T14:34:17Z</time>
      </trkpt>
      <trkpt lat="43.58623" lon="1.36236">
        <ele>150.4</ele>
        <time>2022-07-12T14:34:19Z</time>
      </trkpt>
      <trkpt lat="43.58618" lon="1.36236">
        <ele>150.4</ele>
        <time>2022-07-12T14:34:20Z</time>
      </trkpt>
      <trkpt lat="43.586" lon="1.36243">
        <ele>150.2</ele>
        <time>2022-07-12T14:34:23Z</time>
      </trkpt>
      <trkpt lat="43.58584" lon="1.36252">
        <ele>150.2</ele>
        <time>2022-07-12T14:34:26Z</time>
      </trkpt>
      <trkpt lat="43.58549" lon="1.36272">
        <ele>150.2</ele>
        <time>2022-07-12T14:34:33Z</time>
      </trkpt>
      <trkpt lat="43.58522" lon="1.36285">
        <ele>150.2</ele>
        <time>2022-07-12T14:34:39Z</time>
      </trkpt>
      <trkpt lat="43.58519" lon="1.36284">
        <ele>150.2</ele>
        <time>2022-07-12T14:34:40Z</time>
      </trkpt>
      <trkpt lat="43.58518" lon="1.36281">
        <ele>150.2</ele>
        <time>2022-07-12T14:34:41Z</time>
      </trkpt>
      <trkpt lat="43.58523" lon="1.36276">
        <ele>150.4</ele>
        <time>2022-07-12T14:34:44Z</time>
      </trkpt>
      <trkpt lat="43.58547" lon="1.36263">
        <ele>150.8</ele>
        <time>2022-07-12T14:34:50Z</time>
      </trkpt>
      <trkpt lat="43.58562" lon="1.36254">
        <ele>151</ele>
        <time>2022-07-12T14:34:53Z</time>
      </trkpt>
      <trkpt lat="43.58583" lon="1.36243">
        <ele>151.2</ele>
        <time>2022-07-12T14:34:57Z</time>
      </trkpt>
      <trkpt lat="43.58589" lon="1.3624">
        <ele>151.2</ele>
        <time>2022-07-12T14:34:58Z</time>
      </trkpt>
      <trkpt lat="43.586" lon="1.36235">
        <ele>151.6</ele>
        <time>2022-07-12T14:35:00Z</time>
      </trkpt>
      <trkpt lat="43.58612" lon="1.36229">
        <ele>151.8</ele>
        <time>2022-07-12T14:35:02Z</time>
      </trkpt>
      <trkpt lat="43.58641" lon="1.36215">
        <ele>152.6</ele>
        <time>2022-07-12T14:35:07Z</time>
      </trkpt>
      <trkpt lat="43.5866" lon="1.36206">
        <ele>153.2</ele>
        <time>2022-07-12T14:35:10Z</time>
      </trkpt>
      <trkpt lat="43.58699" lon="1.36189">
        <ele>154</ele>
        <time>2022-07-12T14:35:16Z</time>
      </trkpt>
      <trkpt lat="43.58718" lon="1.3618">
        <ele>154.2</ele>
        <time>2022-07-12T14:35:19Z</time>
      </trkpt>
      <trkpt lat="43.58736" lon="1.36172">
        <ele>155</ele>
        <time>2022-07-12T14:35:22Z</time>
      </trkpt>
      <trkpt lat="43.58769" lon="1.36159">
        <ele>155.6</ele>
        <time>2022-07-12T14:35:28Z</time>
      </trkpt>
      <trkpt lat="43.58773" lon="1.36158">
        <ele>155.6</ele>
        <time>2022-07-12T14:35:29Z</time>
      </trkpt>
      <trkpt lat="43.58775" lon="1.36161">
        <ele>155.8</ele>
        <time>2022-07-12T14:35:31Z</time>
      </trkpt>
      <trkpt lat="43.58761" lon="1.36167">
        <ele>155.8</ele>
        <time>2022-07-12T14:35:35Z</time>
      </trkpt>
      <trkpt lat="43.58732" lon="1.36181">
        <ele>155.2</ele>
        <time>2022-07-12T14:35:40Z</time>
      </trkpt>
      <trkpt lat="43.58696" lon="1.36203">
        <ele>154.6</ele>
        <time>2022-07-12T14:35:46Z</time>
      </trkpt>
      <trkpt lat="43.58679" lon="1.36212">
        <ele>154</ele>
        <time>2022-07-12T14:35:49Z</time>
      </trkpt>
      <trkpt lat="43.58666" lon="1.3621">
        <ele>153.6</ele>
        <time>2022-07-12T14:35:51Z</time>
      </trkpt>
      <trkpt lat="43.58655" lon="1.36204">
        <ele>153.2</ele>
        <time>2022-07-12T14:35:54Z</time>
      </trkpt>
      <trkpt lat="43.58637" lon="1.36196">
        <ele>153</ele>
        <time>2022-07-12T14:35:58Z</time>
      </trkpt>
      <trkpt lat="43.5861" lon="1.36158">
        <ele>153</ele>
        <time>2022-07-12T14:36:01Z</time>
      </trkpt>
      <trkpt lat="43.58592" lon="1.36134">
        <ele>153.4</ele>
        <time>2022-07-12T14:36:06Z</time>
      </trkpt>
      <trkpt lat="43.58581" lon="1.36122">
        <ele>153.6</ele>
        <time>2022-07-12T14:36:09Z</time>
      </trkpt>
      <trkpt lat="43.58568" lon="1.36112">
        <ele>153.8</ele>
        <time>2022-07-12T14:36:12Z</time>
      </trkpt>
      <trkpt lat="43.58537" lon="1.36082">
        <ele>154</ele>
        <time>2022-07-12T14:36:19Z</time>
      </trkpt>
      <trkpt lat="43.58514" lon="1.3606">
        <ele>153.8</ele>
        <time>2022-07-12T14:36:24Z</time>
      </trkpt>
      <trkpt lat="43.58508" lon="1.36056">
        <ele>153.8</ele>
        <time>2022-07-12T14:36:25Z</time>
      </trkpt>
      <trkpt lat="43.585" lon="1.36045">
        <ele>153.8</ele>
        <time>2022-07-12T14:36:27Z</time>
      </trkpt>
      <trkpt lat="43.58496" lon="1.36039">
        <ele>153.8</ele>
        <time>2022-07-12T14:36:28Z</time>
      </trkpt>
      <trkpt lat="43.58471" lon="1.35995">
        <ele>154</ele>
        <time>2022-07-12T14:36:35Z</time>
      </trkpt>
      <trkpt lat="43.58463" lon="1.35981">
        <ele>154</ele>
        <time>2022-07-12T14:36:37Z</time>
      </trkpt>
      <trkpt lat="43.58453" lon="1.35967">
        <ele>154</ele>
        <time>2022-07-12T14:36:39Z</time>
      </trkpt>
      <trkpt lat="43.58431" lon="1.35934">
        <ele>154.2</ele>
        <time>2022-07-12T14:36:44Z</time>
      </trkpt>
      <trkpt lat="43.58429" lon="1.35929">
        <ele>154.2</ele>
        <time>2022-07-12T14:36:45Z</time>
      </trkpt>
      <trkpt lat="43.58421" lon="1.35908">
        <ele>154.2</ele>
        <time>2022-07-12T14:36:48Z</time>
      </trkpt>
      <trkpt lat="43.58411" lon="1.35886">
        <ele>154.4</ele>
        <time>2022-07-12T14:36:51Z</time>
      </trkpt>
      <trkpt lat="43.58403" lon="1.35864">
        <ele>154.6</ele>
        <time>2022-07-12T14:36:54Z</time>
      </trkpt>
      <trkpt lat="43.58401" lon="1.35856">
        <ele>154.6</ele>
        <time>2022-07-12T14:36:55Z</time>
      </trkpt>
      <trkpt lat="43.58386" lon="1.3583">
        <ele>154.8</ele>
        <time>2022-07-12T14:36:59Z</time>
      </trkpt>
      <trkpt lat="43.58377" lon="1.35823">
        <ele>155</ele>
        <time>2022-07-12T14:37:01Z</time>
      </trkpt>
      <trkpt lat="43.58373" lon="1.35822">
        <ele>155</ele>
        <time>2022-07-12T14:37:02Z</time>
      </trkpt>
      <trkpt lat="43.58367" lon="1.35821">
        <ele>155</ele>
        <time>2022-07-12T14:37:03Z</time>
      </trkpt>
      <trkpt lat="43.58357" lon="1.35811">
        <ele>155.2</ele>
        <time>2022-07-12T14:37:05Z</time>
      </trkpt>
      <trkpt lat="43.58351" lon="1.35796">
        <ele>155.4</ele>
        <time>2022-07-12T14:37:07Z</time>
      </trkpt>
      <trkpt lat="43.58345" lon="1.35781">
        <ele>155.4</ele>
        <time>2022-07-12T14:37:09Z</time>
      </trkpt>
      <trkpt lat="43.58342" lon="1.35772">
        <ele>155.4</ele>
        <time>2022-07-12T14:37:10Z</time>
      </trkpt>
      <trkpt lat="43.58341" lon="1.35758">
        <ele>155.8</ele>
        <time>2022-07-12T14:37:12Z</time>
      </trkpt>
      <trkpt lat="43.58342" lon="1.35749">
        <ele>155.8</ele>
        <time>2022-07-12T14:37:13Z</time>
      </trkpt>
      <trkpt lat="43.58344" lon="1.35741">
        <ele>155.8</ele>
        <time>2022-07-12T14:37:14Z</time>
      </trkpt>
      <trkpt lat="43.58348" lon="1.35715">
        <ele>156</ele>
        <time>2022-07-12T14:37:17Z</time>
      </trkpt>
      <trkpt lat="43.58351" lon="1.35708">
        <ele>156</ele>
        <time>2022-07-12T14:37:18Z</time>
      </trkpt>
      <trkpt lat="43.58359" lon="1.35694">
        <ele>156.2</ele>
        <time>2022-07-12T14:37:20Z</time>
      </trkpt>
      <trkpt lat="43.58364" lon="1.35689">
        <ele>156.4</ele>
        <time>2022-07-12T14:37:21Z</time>
      </trkpt>
      <trkpt lat="43.58369" lon="1.35685">
        <ele>156.4</ele>
        <time>2022-07-12T14:37:22Z</time>
      </trkpt>
      <trkpt lat="43.58376" lon="1.3568">
        <ele>156.6</ele>
        <time>2022-07-12T14:37:23Z</time>
      </trkpt>
      <trkpt lat="43.58387" lon="1.3567">
        <ele>156.8</ele>
        <time>2022-07-12T14:37:25Z</time>
      </trkpt>
      <trkpt lat="43.58397" lon="1.3566">
        <ele>157.2</ele>
        <time>2022-07-12T14:37:27Z</time>
      </trkpt>
      <trkpt lat="43.58401" lon="1.35654">
        <ele>157.2</ele>
        <time>2022-07-12T14:37:28Z</time>
      </trkpt>
      <trkpt lat="43.5842" lon="1.3562">
        <ele>157.4</ele>
        <time>2022-07-12T14:37:34Z</time>
      </trkpt>
      <trkpt lat="43.58421" lon="1.35615">
        <ele>157.4</ele>
        <time>2022-07-12T14:37:35Z</time>
      </trkpt>
      <trkpt lat="43.58424" lon="1.356">
        <ele>157.4</ele>
        <time>2022-07-12T14:37:37Z</time>
      </trkpt>
      <trkpt lat="43.58428" lon="1.35589">
        <ele>157.4</ele>
        <time>2022-07-12T14:37:39Z</time>
      </trkpt>
      <trkpt lat="43.58442" lon="1.35554">
        <ele>158.2</ele>
        <time>2022-07-12T14:37:45Z</time>
      </trkpt>
      <trkpt lat="43.58451" lon="1.35526">
        <ele>158.4</ele>
        <time>2022-07-12T14:37:49Z</time>
      </trkpt>
      <trkpt lat="43.58455" lon="1.35503">
        <ele>158.6</ele>
        <time>2022-07-12T14:37:52Z</time>
      </trkpt>
      <trkpt lat="43.58463" lon="1.35458">
        <ele>159.2</ele>
        <time>2022-07-12T14:37:58Z</time>
      </trkpt>
      <trkpt lat="43.58463" lon="1.35449">
        <ele>159.2</ele>
        <time>2022-07-12T14:37:59Z</time>
      </trkpt>
      <trkpt lat="43.58457" lon="1.354">
        <ele>158.8</ele>
        <time>2022-07-12T14:38:05Z</time>
      </trkpt>
      <trkpt lat="43.58457" lon="1.35378">
        <ele>158.8</ele>
        <time>2022-07-12T14:38:08Z</time>
      </trkpt>
      <trkpt lat="43.58454" lon="1.35373">
        <ele>158.8</ele>
        <time>2022-07-12T14:38:09Z</time>
      </trkpt>
      <trkpt lat="43.58451" lon="1.35369">
        <ele>158.8</ele>
        <time>2022-07-12T14:38:10Z</time>
      </trkpt>
      <trkpt lat="43.58443" lon="1.35364">
        <ele>158.8</ele>
        <time>2022-07-12T14:38:12Z</time>
      </trkpt>
      <trkpt lat="43.58432" lon="1.35357">
        <ele>158.8</ele>
        <time>2022-07-12T14:38:14Z</time>
      </trkpt>
      <trkpt lat="43.58419" lon="1.35351">
        <ele>158.8</ele>
        <time>2022-07-12T14:38:17Z</time>
      </trkpt>
      <trkpt lat="43.58408" lon="1.35345">
        <ele>158.8</ele>
        <time>2022-07-12T14:38:19Z</time>
      </trkpt>
      <trkpt lat="43.58398" lon="1.35333">
        <ele>158.6</ele>
        <time>2022-07-12T14:38:21Z</time>
      </trkpt>
      <trkpt lat="43.58395" lon="1.35312">
        <ele>158.4</ele>
        <time>2022-07-12T14:38:23Z</time>
      </trkpt>
      <trkpt lat="43.58396" lon="1.35302">
        <ele>158.4</ele>
        <time>2022-07-12T14:38:24Z</time>
      </trkpt>
      <trkpt lat="43.58396" lon="1.35292">
        <ele>158.2</ele>
        <time>2022-07-12T14:38:25Z</time>
      </trkpt>
      <trkpt lat="43.58392" lon="1.35273">
        <ele>157.8</ele>
        <time>2022-07-12T14:38:27Z</time>
      </trkpt>
      <trkpt lat="43.58387" lon="1.3524">
        <ele>157.6</ele>
        <time>2022-07-12T14:38:31Z</time>
      </trkpt>
      <trkpt lat="43.58385" lon="1.35222">
        <ele>157.4</ele>
        <time>2022-07-12T14:38:33Z</time>
      </trkpt>
      <trkpt lat="43.58382" lon="1.35203">
        <ele>157</ele>
        <time>2022-07-12T14:38:35Z</time>
      </trkpt>
      <trkpt lat="43.58374" lon="1.35188">
        <ele>157</ele>
        <time>2022-07-12T14:38:37Z</time>
      </trkpt>
      <trkpt lat="43.58352" lon="1.35156">
        <ele>156.8</ele>
        <time>2022-07-12T14:38:42Z</time>
      </trkpt>
      <trkpt lat="43.58349" lon="1.35149">
        <ele>156.8</ele>
        <time>2022-07-12T14:38:43Z</time>
      </trkpt>
      <trkpt lat="43.58343" lon="1.35135">
        <ele>157</ele>
        <time>2022-07-12T14:38:45Z</time>
      </trkpt>
      <trkpt lat="43.5833" lon="1.35114">
        <ele>157.2</ele>
        <time>2022-07-12T14:38:48Z</time>
      </trkpt>
      <trkpt lat="43.58325" lon="1.35102">
        <ele>157.4</ele>
        <time>2022-07-12T14:38:50Z</time>
      </trkpt>
      <trkpt lat="43.58318" lon="1.35091">
        <ele>157.4</ele>
        <time>2022-07-12T14:38:52Z</time>
      </trkpt>
      <trkpt lat="43.58313" lon="1.35087">
        <ele>157.4</ele>
        <time>2022-07-12T14:38:53Z</time>
      </trkpt>
      <trkpt lat="43.58301" lon="1.35081">
        <ele>157.6</ele>
        <time>2022-07-12T14:38:55Z</time>
      </trkpt>
      <trkpt lat="43.58289" lon="1.3508">
        <ele>157.6</ele>
        <time>2022-07-12T14:38:57Z</time>
      </trkpt>
      <trkpt lat="43.58239" lon="1.35087">
        <ele>158.2</ele>
        <time>2022-07-12T14:39:05Z</time>
      </trkpt>
      <trkpt lat="43.5823" lon="1.35092">
        <ele>158.4</ele>
        <time>2022-07-12T14:39:07Z</time>
      </trkpt>
      <trkpt lat="43.58223" lon="1.35095">
        <ele>158.8</ele>
        <time>2022-07-12T14:39:09Z</time>
      </trkpt>
      <trkpt lat="43.58218" lon="1.35086">
        <ele>159.2</ele>
        <time>2022-07-12T14:39:12Z</time>
      </trkpt>
      <trkpt lat="43.58206" lon="1.3507">
        <ele>159.2</ele>
        <time>2022-07-12T14:39:16Z</time>
      </trkpt>
      <trkpt lat="43.58197" lon="1.35063">
        <ele>159.4</ele>
        <time>2022-07-12T14:39:18Z</time>
      </trkpt>
      <trkpt lat="43.58188" lon="1.35055">
        <ele>159.4</ele>
        <time>2022-07-12T14:39:20Z</time>
      </trkpt>
      <trkpt lat="43.58185" lon="1.35051">
        <ele>159.2</ele>
        <time>2022-07-12T14:39:21Z</time>
      </trkpt>
      <trkpt lat="43.58182" lon="1.35046">
        <ele>159</ele>
        <time>2022-07-12T14:39:22Z</time>
      </trkpt>
      <trkpt lat="43.58174" lon="1.35028">
        <ele>158.8</ele>
        <time>2022-07-12T14:39:25Z</time>
      </trkpt>
      <trkpt lat="43.58172" lon="1.35024">
        <ele>158.4</ele>
        <time>2022-07-12T14:39:26Z</time>
      </trkpt>
      <trkpt lat="43.58163" lon="1.35016">
        <ele>158.6</ele>
        <time>2022-07-12T14:39:28Z</time>
      </trkpt>
      <trkpt lat="43.58143" lon="1.35027">
        <ele>158.2</ele>
        <time>2022-07-12T14:39:32Z</time>
      </trkpt>
      <trkpt lat="43.58132" lon="1.35027">
        <ele>158</ele>
        <time>2022-07-12T14:39:34Z</time>
      </trkpt>
      <trkpt lat="43.58128" lon="1.35026">
        <ele>157.8</ele>
        <time>2022-07-12T14:39:35Z</time>
      </trkpt>
      <trkpt lat="43.58124" lon="1.35023">
        <ele>157.8</ele>
        <time>2022-07-12T14:39:36Z</time>
      </trkpt>
      <trkpt lat="43.58118" lon="1.35018">
        <ele>157.4</ele>
        <time>2022-07-12T14:39:37Z</time>
      </trkpt>
      <trkpt lat="43.58112" lon="1.35014">
        <ele>157.4</ele>
        <time>2022-07-12T14:39:38Z</time>
      </trkpt>
      <trkpt lat="43.58082" lon="1.35006">
        <ele>156.6</ele>
        <time>2022-07-12T14:39:43Z</time>
      </trkpt>
      <trkpt lat="43.58071" lon="1.35003">
        <ele>156</ele>
        <time>2022-07-12T14:39:45Z</time>
      </trkpt>
      <trkpt lat="43.58033" lon="1.34987">
        <ele>155.8</ele>
        <time>2022-07-12T14:39:51Z</time>
      </trkpt>
      <trkpt lat="43.5801" lon="1.34972">
        <ele>156</ele>
        <time>2022-07-12T14:39:54Z</time>
      </trkpt>
      <trkpt lat="43.57999" lon="1.34962">
        <ele>156</ele>
        <time>2022-07-12T14:39:56Z</time>
      </trkpt>
      <trkpt lat="43.57995" lon="1.34957">
        <ele>156</ele>
        <time>2022-07-12T14:39:57Z</time>
      </trkpt>
      <trkpt lat="43.5797" lon="1.34925">
        <ele>156.6</ele>
        <time>2022-07-12T14:40:03Z</time>
      </trkpt>
      <trkpt lat="43.57954" lon="1.34911">
        <ele>156.6</ele>
        <time>2022-07-12T14:40:06Z</time>
      </trkpt>
      <trkpt lat="43.57921" lon="1.34886">
        <ele>157</ele>
        <time>2022-07-12T14:40:13Z</time>
      </trkpt>
      <trkpt lat="43.57911" lon="1.34874">
        <ele>157.2</ele>
        <time>2022-07-12T14:40:14Z</time>
      </trkpt>
      <trkpt lat="43.57902" lon="1.34863">
        <ele>157.4</ele>
        <time>2022-07-12T14:40:17Z</time>
      </trkpt>
      <trkpt lat="43.57899" lon="1.34859">
        <ele>157.4</ele>
        <time>2022-07-12T14:40:18Z</time>
      </trkpt>
      <trkpt lat="43.57887" lon="1.34848">
        <ele>157.6</ele>
        <time>2022-07-12T14:40:19Z</time>
      </trkpt>
      <trkpt lat="43.57877" lon="1.34838">
        <ele>157.8</ele>
        <time>2022-07-12T14:40:21Z</time>
      </trkpt>
      <trkpt lat="43.57865" lon="1.3483">
        <ele>158.2</ele>
        <time>2022-07-12T14:40:23Z</time>
      </trkpt>
      <trkpt lat="43.57859" lon="1.34826">
        <ele>158.4</ele>
        <time>2022-07-12T14:40:24Z</time>
      </trkpt>
      <trkpt lat="43.57854" lon="1.34823">
        <ele>158.4</ele>
        <time>2022-07-12T14:40:25Z</time>
      </trkpt>
      <trkpt lat="43.57846" lon="1.3481">
        <ele>158.8</ele>
        <time>2022-07-12T14:40:27Z</time>
      </trkpt>
      <trkpt lat="43.57828" lon="1.34771">
        <ele>159.6</ele>
        <time>2022-07-12T14:40:32Z</time>
      </trkpt>
      <trkpt lat="43.57818" lon="1.3475">
        <ele>159.8</ele>
        <time>2022-07-12T14:40:35Z</time>
      </trkpt>
      <trkpt lat="43.57794" lon="1.34695">
        <ele>160.2</ele>
        <time>2022-07-12T14:40:42Z</time>
      </trkpt>
      <trkpt lat="43.57783" lon="1.34652">
        <ele>160.2</ele>
        <time>2022-07-12T14:40:47Z</time>
      </trkpt>
      <trkpt lat="43.57782" lon="1.34643">
        <ele>160.2</ele>
        <time>2022-07-12T14:40:48Z</time>
      </trkpt>
      <trkpt lat="43.57776" lon="1.34581">
        <ele>160</ele>
        <time>2022-07-12T14:40:55Z</time>
      </trkpt>
      <trkpt lat="43.57776" lon="1.3457">
        <ele>160</ele>
        <time>2022-07-12T14:40:56Z</time>
      </trkpt>
      <trkpt lat="43.57777" lon="1.34561">
        <ele>160</ele>
        <time>2022-07-12T14:40:57Z</time>
      </trkpt>
      <trkpt lat="43.57783" lon="1.34525">
        <ele>160</ele>
        <time>2022-07-12T14:41:01Z</time>
      </trkpt>
      <trkpt lat="43.57789" lon="1.3449">
        <ele>159.4</ele>
        <time>2022-07-12T14:41:05Z</time>
      </trkpt>
      <trkpt lat="43.57794" lon="1.34475">
        <ele>159.2</ele>
        <time>2022-07-12T14:41:07Z</time>
      </trkpt>
      <trkpt lat="43.57804" lon="1.34431">
        <ele>158.6</ele>
        <time>2022-07-12T14:41:12Z</time>
      </trkpt>
      <trkpt lat="43.57808" lon="1.34409">
        <ele>158.2</ele>
        <time>2022-07-12T14:41:15Z</time>
      </trkpt>
      <trkpt lat="43.57809" lon="1.34404">
        <ele>158</ele>
        <time>2022-07-12T14:41:16Z</time>
      </trkpt>
      <trkpt lat="43.57809" lon="1.34387">
        <ele>158</ele>
        <time>2022-07-12T14:41:18Z</time>
      </trkpt>
      <trkpt lat="43.57805" lon="1.34372">
        <ele>158</ele>
        <time>2022-07-12T14:41:20Z</time>
      </trkpt>
      <trkpt lat="43.57798" lon="1.34362">
        <ele>158</ele>
        <time>2022-07-12T14:41:22Z</time>
      </trkpt>
      <trkpt lat="43.57793" lon="1.34359">
        <ele>158</ele>
        <time>2022-07-12T14:41:23Z</time>
      </trkpt>
      <trkpt lat="43.57774" lon="1.34353">
        <ele>158.2</ele>
        <time>2022-07-12T14:41:27Z</time>
      </trkpt>
      <trkpt lat="43.57762" lon="1.34357">
        <ele>158.2</ele>
        <time>2022-07-12T14:41:29Z</time>
      </trkpt>
      <trkpt lat="43.57742" lon="1.34363">
        <ele>158.6</ele>
        <time>2022-07-12T14:41:33Z</time>
      </trkpt>
      <trkpt lat="43.57736" lon="1.3436">
        <ele>158.8</ele>
        <time>2022-07-12T14:41:35Z</time>
      </trkpt>
      <trkpt lat="43.57737" lon="1.34356">
        <ele>158.8</ele>
        <time>2022-07-12T14:41:37Z</time>
      </trkpt>
      <trkpt lat="43.57759" lon="1.34347">
        <ele>159</ele>
        <time>2022-07-12T14:41:44Z</time>
      </trkpt>
      <trkpt lat="43.57774" lon="1.34337">
        <ele>159.6</ele>
        <time>2022-07-12T14:41:48Z</time>
      </trkpt>
      <trkpt lat="43.57774" lon="1.34337">
        <ele>159.8</ele>
        <time>2022-07-12T14:41:49Z</time>
      </trkpt>
      <trkpt lat="43.57786" lon="1.34316">
        <ele>160.6</ele>
        <time>2022-07-12T14:41:53Z</time>
      </trkpt>
      <trkpt lat="43.57791" lon="1.34308">
        <ele>160.8</ele>
        <time>2022-07-12T14:41:55Z</time>
      </trkpt>
      <trkpt lat="43.57791" lon="1.34305">
        <ele>161</ele>
        <time>2022-07-12T14:41:56Z</time>
      </trkpt>
      <trkpt lat="43.57789" lon="1.34302">
        <ele>161</ele>
        <time>2022-07-12T14:41:57Z</time>
      </trkpt>
      <trkpt lat="43.57772" lon="1.34292">
        <ele>161</ele>
        <time>2022-07-12T14:42:01Z</time>
      </trkpt>
      <trkpt lat="43.57755" lon="1.34284">
        <ele>161</ele>
        <time>2022-07-12T14:42:04Z</time>
      </trkpt>
      <trkpt lat="43.57745" lon="1.34281">
        <ele>160.8</ele>
        <time>2022-07-12T14:42:06Z</time>
      </trkpt>
      <trkpt lat="43.57735" lon="1.34281">
        <ele>160.8</ele>
        <time>2022-07-12T14:42:08Z</time>
      </trkpt>
      <trkpt lat="43.57731" lon="1.34276">
        <ele>160.6</ele>
        <time>2022-07-12T14:42:10Z</time>
      </trkpt>
      <trkpt lat="43.57729" lon="1.34273">
        <ele>160.6</ele>
        <time>2022-07-12T14:42:11Z</time>
      </trkpt>
      <trkpt lat="43.57719" lon="1.34269">
        <ele>160.6</ele>
        <time>2022-07-12T14:42:14Z</time>
      </trkpt>
      <trkpt lat="43.57699" lon="1.34261">
        <ele>160.6</ele>
        <time>2022-07-12T14:42:18Z</time>
      </trkpt>
      <trkpt lat="43.57679" lon="1.34252">
        <ele>160.6</ele>
        <time>2022-07-12T14:42:22Z</time>
      </trkpt>
      <trkpt lat="43.5767" lon="1.34243">
        <ele>160.6</ele>
        <time>2022-07-12T14:42:24Z</time>
      </trkpt>
      <trkpt lat="43.5765" lon="1.34218">
        <ele>160.6</ele>
        <time>2022-07-12T14:42:29Z</time>
      </trkpt>
      <trkpt lat="43.57646" lon="1.34213">
        <ele>160.6</ele>
        <time>2022-07-12T14:42:30Z</time>
      </trkpt>
      <trkpt lat="43.57622" lon="1.34177">
        <ele>160.8</ele>
        <time>2022-07-12T14:42:36Z</time>
      </trkpt>
      <trkpt lat="43.5761" lon="1.34158">
        <ele>161</ele>
        <time>2022-07-12T14:42:39Z</time>
      </trkpt>
      <trkpt lat="43.57606" lon="1.34144">
        <ele>161</ele>
        <time>2022-07-12T14:42:41Z</time>
      </trkpt>
      <trkpt lat="43.57604" lon="1.34129">
        <ele>161</ele>
        <time>2022-07-12T14:42:43Z</time>
      </trkpt>
      <trkpt lat="43.57605" lon="1.34111">
        <ele>161</ele>
        <time>2022-07-12T14:42:45Z</time>
      </trkpt>
      <trkpt lat="43.57612" lon="1.34062">
        <ele>161.2</ele>
        <time>2022-07-12T14:42:51Z</time>
      </trkpt>
      <trkpt lat="43.57615" lon="1.34055">
        <ele>161.2</ele>
        <time>2022-07-12T14:42:52Z</time>
      </trkpt>
      <trkpt lat="43.57627" lon="1.34025">
        <ele>161.8</ele>
        <time>2022-07-12T14:42:56Z</time>
      </trkpt>
      <trkpt lat="43.57627" lon="1.3401">
        <ele>162</ele>
        <time>2022-07-12T14:42:58Z</time>
      </trkpt>
      <trkpt lat="43.57619" lon="1.33999">
        <ele>162</ele>
        <time>2022-07-12T14:43:00Z</time>
      </trkpt>
      <trkpt lat="43.57614" lon="1.33995">
        <ele>162.2</ele>
        <time>2022-07-12T14:43:01Z</time>
      </trkpt>
      <trkpt lat="43.57598" lon="1.33982">
        <ele>162.2</ele>
        <time>2022-07-12T14:43:04Z</time>
      </trkpt>
      <trkpt lat="43.57588" lon="1.33969">
        <ele>162.2</ele>
        <time>2022-07-12T14:43:06Z</time>
      </trkpt>
      <trkpt lat="43.57584" lon="1.33963">
        <ele>162.2</ele>
        <time>2022-07-12T14:43:07Z</time>
      </trkpt>
      <trkpt lat="43.57582" lon="1.33955">
        <ele>162.2</ele>
        <time>2022-07-12T14:43:08Z</time>
      </trkpt>
      <trkpt lat="43.57583" lon="1.3394">
        <ele>162</ele>
        <time>2022-07-12T14:43:10Z</time>
      </trkpt>
      <trkpt lat="43.57598" lon="1.33922">
        <ele>161.8</ele>
        <time>2022-07-12T14:43:14Z</time>
      </trkpt>
      <trkpt lat="43.57614" lon="1.33898">
        <ele>161.8</ele>
        <time>2022-07-12T14:43:18Z</time>
      </trkpt>
      <trkpt lat="43.57616" lon="1.3389">
        <ele>161.8</ele>
        <time>2022-07-12T14:43:19Z</time>
      </trkpt>
      <trkpt lat="43.5762" lon="1.33866">
        <ele>161.8</ele>
        <time>2022-07-12T14:43:22Z</time>
      </trkpt>
      <trkpt lat="43.57622" lon="1.33847">
        <ele>161.8</ele>
        <time>2022-07-12T14:43:24Z</time>
      </trkpt>
      <trkpt lat="43.57625" lon="1.33808">
        <ele>161.8</ele>
        <time>2022-07-12T14:43:29Z</time>
      </trkpt>
      <trkpt lat="43.57627" lon="1.33803">
        <ele>161.6</ele>
        <time>2022-07-12T14:43:30Z</time>
      </trkpt>
      <trkpt lat="43.57628" lon="1.33797">
        <ele>161.6</ele>
        <time>2022-07-12T14:43:31Z</time>
      </trkpt>
      <trkpt lat="43.57629" lon="1.33783">
        <ele>161.6</ele>
        <time>2022-07-12T14:43:33Z</time>
      </trkpt>
      <trkpt lat="43.57629" lon="1.33774">
        <ele>161.6</ele>
        <time>2022-07-12T14:43:34Z</time>
      </trkpt>
      <trkpt lat="43.57627" lon="1.33699">
        <ele>161</ele>
        <time>2022-07-12T14:43:43Z</time>
      </trkpt>
      <trkpt lat="43.57627" lon="1.33688">
        <ele>161</ele>
        <time>2022-07-12T14:43:44Z</time>
      </trkpt>
      <trkpt lat="43.57624" lon="1.33645">
        <ele>160.6</ele>
        <time>2022-07-12T14:43:49Z</time>
      </trkpt>
      <trkpt lat="43.57619" lon="1.33593">
        <ele>160.2</ele>
        <time>2022-07-12T14:43:56Z</time>
      </trkpt>
      <trkpt lat="43.57616" lon="1.33573">
        <ele>160</ele>
        <time>2022-07-12T14:43:57Z</time>
      </trkpt>
      <trkpt lat="43.57613" lon="1.33557">
        <ele>159.8</ele>
        <time>2022-07-12T14:43:59Z</time>
      </trkpt>
      <trkpt lat="43.57606" lon="1.3354">
        <ele>159.6</ele>
        <time>2022-07-12T14:44:01Z</time>
      </trkpt>
      <trkpt lat="43.57578" lon="1.3348">
        <ele>159.2</ele>
        <time>2022-07-12T14:44:08Z</time>
      </trkpt>
      <trkpt lat="43.57554" lon="1.33421">
        <ele>158.8</ele>
        <time>2022-07-12T14:44:15Z</time>
      </trkpt>
      <trkpt lat="43.57548" lon="1.33412">
        <ele>158.8</ele>
        <time>2022-07-12T14:44:16Z</time>
      </trkpt>
      <trkpt lat="43.57514" lon="1.33349">
        <ele>158.6</ele>
        <time>2022-07-12T14:44:24Z</time>
      </trkpt>
      <trkpt lat="43.57509" lon="1.33329">
        <ele>158.8</ele>
        <time>2022-07-12T14:44:26Z</time>
      </trkpt>
      <trkpt lat="43.57506" lon="1.33312">
        <ele>158.8</ele>
        <time>2022-07-12T14:44:28Z</time>
      </trkpt>
      <trkpt lat="43.57503" lon="1.33293">
        <ele>159</ele>
        <time>2022-07-12T14:44:30Z</time>
      </trkpt>
      <trkpt lat="43.5749" lon="1.33246">
        <ele>159.4</ele>
        <time>2022-07-12T14:44:35Z</time>
      </trkpt>
      <trkpt lat="43.57466" lon="1.332">
        <ele>159.4</ele>
        <time>2022-07-12T14:44:41Z</time>
      </trkpt>
      <trkpt lat="43.57447" lon="1.3317">
        <ele>159.4</ele>
        <time>2022-07-12T14:44:45Z</time>
      </trkpt>
      <trkpt lat="43.57442" lon="1.33155">
        <ele>159.4</ele>
        <time>2022-07-12T14:44:47Z</time>
      </trkpt>
      <trkpt lat="43.57436" lon="1.33131">
        <ele>159.4</ele>
        <time>2022-07-12T14:44:50Z</time>
      </trkpt>
      <trkpt lat="43.57434" lon="1.33125">
        <ele>159.6</ele>
        <time>2022-07-12T14:44:51Z</time>
      </trkpt>
      <trkpt lat="43.57422" lon="1.33096">
        <ele>159.8</ele>
        <time>2022-07-12T14:44:55Z</time>
      </trkpt>
      <trkpt lat="43.57413" lon="1.33076">
        <ele>160.2</ele>
        <time>2022-07-12T14:44:58Z</time>
      </trkpt>
      <trkpt lat="43.57394" lon="1.33044">
        <ele>161</ele>
        <time>2022-07-12T14:45:03Z</time>
      </trkpt>
      <trkpt lat="43.57389" lon="1.33039">
        <ele>161</ele>
        <time>2022-07-12T14:45:04Z</time>
      </trkpt>
      <trkpt lat="43.57366" lon="1.33022">
        <ele>161.2</ele>
        <time>2022-07-12T14:45:08Z</time>
      </trkpt>
      <trkpt lat="43.57358" lon="1.3301">
        <ele>161.2</ele>
        <time>2022-07-12T14:45:10Z</time>
      </trkpt>
      <trkpt lat="43.57345" lon="1.32993">
        <ele>161.2</ele>
        <time>2022-07-12T14:45:13Z</time>
      </trkpt>
      <trkpt lat="43.57322" lon="1.32953">
        <ele>161.8</ele>
        <time>2022-07-12T14:45:19Z</time>
      </trkpt>
      <trkpt lat="43.57319" lon="1.32946">
        <ele>161.8</ele>
        <time>2022-07-12T14:45:20Z</time>
      </trkpt>
      <trkpt lat="43.57307" lon="1.32926">
        <ele>162</ele>
        <time>2022-07-12T14:45:23Z</time>
      </trkpt>
      <trkpt lat="43.57302" lon="1.32919">
        <ele>162.2</ele>
        <time>2022-07-12T14:45:24Z</time>
      </trkpt>
      <trkpt lat="43.57289" lon="1.329">
        <ele>162.2</ele>
        <time>2022-07-12T14:45:27Z</time>
      </trkpt>
      <trkpt lat="43.57253" lon="1.32866">
        <ele>162</ele>
        <time>2022-07-12T14:45:34Z</time>
      </trkpt>
      <trkpt lat="43.5723" lon="1.32847">
        <ele>162</ele>
        <time>2022-07-12T14:45:38Z</time>
      </trkpt>
      <trkpt lat="43.57213" lon="1.32832">
        <ele>162.2</ele>
        <time>2022-07-12T14:45:41Z</time>
      </trkpt>
      <trkpt lat="43.57174" lon="1.32795">
        <ele>162.6</ele>
        <time>2022-07-12T14:45:48Z</time>
      </trkpt>
      <trkpt lat="43.57129" lon="1.3274">
        <ele>162.8</ele>
        <time>2022-07-12T14:45:57Z</time>
      </trkpt>
      <trkpt lat="43.57121" lon="1.32725">
        <ele>162.8</ele>
        <time>2022-07-12T14:45:59Z</time>
      </trkpt>
      <trkpt lat="43.57115" lon="1.3271">
        <ele>162.8</ele>
        <time>2022-07-12T14:46:01Z</time>
      </trkpt>
      <trkpt lat="43.57113" lon="1.32702">
        <ele>162.8</ele>
        <time>2022-07-12T14:46:02Z</time>
      </trkpt>
      <trkpt lat="43.57111" lon="1.32685">
        <ele>163</ele>
        <time>2022-07-12T14:46:04Z</time>
      </trkpt>
      <trkpt lat="43.57111" lon="1.32668">
        <ele>163.2</ele>
        <time>2022-07-12T14:46:06Z</time>
      </trkpt>
      <trkpt lat="43.57112" lon="1.32659">
        <ele>163.2</ele>
        <time>2022-07-12T14:46:07Z</time>
      </trkpt>
      <trkpt lat="43.57123" lon="1.32608">
        <ele>164</ele>
        <time>2022-07-12T14:46:13Z</time>
      </trkpt>
      <trkpt lat="43.57128" lon="1.32592">
        <ele>164.4</ele>
        <time>2022-07-12T14:46:15Z</time>
      </trkpt>
      <trkpt lat="43.57144" lon="1.32537">
        <ele>165.4</ele>
        <time>2022-07-12T14:46:22Z</time>
      </trkpt>
      <trkpt lat="43.57152" lon="1.32501">
        <ele>166.2</ele>
        <time>2022-07-12T14:46:27Z</time>
      </trkpt>
      <trkpt lat="43.57154" lon="1.32494">
        <ele>166.6</ele>
        <time>2022-07-12T14:46:28Z</time>
      </trkpt>
      <trkpt lat="43.5717" lon="1.32433">
        <ele>167.4</ele>
        <time>2022-07-12T14:46:36Z</time>
      </trkpt>
      <trkpt lat="43.57177" lon="1.32391">
        <ele>167.8</ele>
        <time>2022-07-12T14:46:41Z</time>
      </trkpt>
      <trkpt lat="43.57178" lon="1.32382">
        <ele>167.8</ele>
        <time>2022-07-12T14:46:42Z</time>
      </trkpt>
      <trkpt lat="43.57179" lon="1.32355">
        <ele>168</ele>
        <time>2022-07-12T14:46:45Z</time>
      </trkpt>
      <trkpt lat="43.57177" lon="1.3233">
        <ele>168</ele>
        <time>2022-07-12T14:46:48Z</time>
      </trkpt>
      <trkpt lat="43.57172" lon="1.32276">
        <ele>168.2</ele>
        <time>2022-07-12T14:46:54Z</time>
      </trkpt>
      <trkpt lat="43.57172" lon="1.32251">
        <ele>168.2</ele>
        <time>2022-07-12T14:46:57Z</time>
      </trkpt>
      <trkpt lat="43.57175" lon="1.32234">
        <ele>168</ele>
        <time>2022-07-12T14:46:59Z</time>
      </trkpt>
      <trkpt lat="43.5719" lon="1.32186">
        <ele>167.8</ele>
        <time>2022-07-12T14:47:05Z</time>
      </trkpt>
      <trkpt lat="43.57191" lon="1.32178">
        <ele>167.8</ele>
        <time>2022-07-12T14:47:06Z</time>
      </trkpt>
      <trkpt lat="43.57195" lon="1.32125">
        <ele>167.8</ele>
        <time>2022-07-12T14:47:12Z</time>
      </trkpt>
      <trkpt lat="43.57194" lon="1.32117">
        <ele>167.8</ele>
        <time>2022-07-12T14:47:13Z</time>
      </trkpt>
      <trkpt lat="43.5719" lon="1.321">
        <ele>167.8</ele>
        <time>2022-07-12T14:47:15Z</time>
      </trkpt>
      <trkpt lat="43.57185" lon="1.32083">
        <ele>167.8</ele>
        <time>2022-07-12T14:47:17Z</time>
      </trkpt>
      <trkpt lat="43.57183" lon="1.32074">
        <ele>167.8</ele>
        <time>2022-07-12T14:47:18Z</time>
      </trkpt>
      <trkpt lat="43.57179" lon="1.32064">
        <ele>167.8</ele>
        <time>2022-07-12T14:47:19Z</time>
      </trkpt>
      <trkpt lat="43.57169" lon="1.32039">
        <ele>167.8</ele>
        <time>2022-07-12T14:47:22Z</time>
      </trkpt>
      <trkpt lat="43.57161" lon="1.32027">
        <ele>167.8</ele>
        <time>2022-07-12T14:47:24Z</time>
      </trkpt>
      <trkpt lat="43.57155" lon="1.32022">
        <ele>167.8</ele>
        <time>2022-07-12T14:47:25Z</time>
      </trkpt>
      <trkpt lat="43.57124" lon="1.31997">
        <ele>167.6</ele>
        <time>2022-07-12T14:47:30Z</time>
      </trkpt>
      <trkpt lat="43.57117" lon="1.31993">
        <ele>167.6</ele>
        <time>2022-07-12T14:47:31Z</time>
      </trkpt>
      <trkpt lat="43.57081" lon="1.31972">
        <ele>167.6</ele>
        <time>2022-07-12T14:47:36Z</time>
      </trkpt>
      <trkpt lat="43.57033" lon="1.31939">
        <ele>167.6</ele>
        <time>2022-07-12T14:47:43Z</time>
      </trkpt>
      <trkpt lat="43.57014" lon="1.31927">
        <ele>167.2</ele>
        <time>2022-07-12T14:47:46Z</time>
      </trkpt>
      <trkpt lat="43.57002" lon="1.31921">
        <ele>167</ele>
        <time>2022-07-12T14:47:48Z</time>
      </trkpt>
      <trkpt lat="43.56956" lon="1.31894">
        <ele>166.4</ele>
        <time>2022-07-12T14:47:55Z</time>
      </trkpt>
      <trkpt lat="43.56938" lon="1.3187">
        <ele>166.2</ele>
        <time>2022-07-12T14:47:59Z</time>
      </trkpt>
      <trkpt lat="43.56934" lon="1.31863">
        <ele>166.2</ele>
        <time>2022-07-12T14:48:00Z</time>
      </trkpt>
      <trkpt lat="43.56932" lon="1.31855">
        <ele>166</ele>
        <time>2022-07-12T14:48:01Z</time>
      </trkpt>
      <trkpt lat="43.5693" lon="1.31846">
        <ele>166</ele>
        <time>2022-07-12T14:48:02Z</time>
      </trkpt>
      <trkpt lat="43.56928" lon="1.31838">
        <ele>166</ele>
        <time>2022-07-12T14:48:03Z</time>
      </trkpt>
      <trkpt lat="43.56926" lon="1.31829">
        <ele>166</ele>
        <time>2022-07-12T14:48:04Z</time>
      </trkpt>
      <trkpt lat="43.56913" lon="1.31775">
        <ele>166.2</ele>
        <time>2022-07-12T14:48:10Z</time>
      </trkpt>
      <trkpt lat="43.56911" lon="1.31765">
        <ele>166.2</ele>
        <time>2022-07-12T14:48:11Z</time>
      </trkpt>
      <trkpt lat="43.56904" lon="1.31718">
        <ele>166.6</ele>
        <time>2022-07-12T14:48:16Z</time>
      </trkpt>
      <trkpt lat="43.56889" lon="1.31654">
        <ele>166.8</ele>
        <time>2022-07-12T14:48:23Z</time>
      </trkpt>
      <trkpt lat="43.56887" lon="1.31645">
        <ele>166.6</ele>
        <time>2022-07-12T14:48:24Z</time>
      </trkpt>
      <trkpt lat="43.56886" lon="1.31628">
        <ele>166.6</ele>
        <time>2022-07-12T14:48:26Z</time>
      </trkpt>
      <trkpt lat="43.56886" lon="1.31621">
        <ele>166.4</ele>
        <time>2022-07-12T14:48:27Z</time>
      </trkpt>
      <trkpt lat="43.56885" lon="1.31614">
        <ele>166.4</ele>
        <time>2022-07-12T14:48:28Z</time>
      </trkpt>
      <trkpt lat="43.56881" lon="1.31605">
        <ele>166.4</ele>
        <time>2022-07-12T14:48:30Z</time>
      </trkpt>
      <trkpt lat="43.56872" lon="1.316">
        <ele>166.2</ele>
        <time>2022-07-12T14:48:32Z</time>
      </trkpt>
      <trkpt lat="43.56866" lon="1.316">
        <ele>166.2</ele>
        <time>2022-07-12T14:48:33Z</time>
      </trkpt>
      <trkpt lat="43.56854" lon="1.31601">
        <ele>165.8</ele>
        <time>2022-07-12T14:48:35Z</time>
      </trkpt>
      <trkpt lat="43.5684" lon="1.31597">
        <ele>165.6</ele>
        <time>2022-07-12T14:48:37Z</time>
      </trkpt>
      <trkpt lat="43.56823" lon="1.31585">
        <ele>165.4</ele>
        <time>2022-07-12T14:48:40Z</time>
      </trkpt>
      <trkpt lat="43.56818" lon="1.3158">
        <ele>165.4</ele>
        <time>2022-07-12T14:48:41Z</time>
      </trkpt>
      <trkpt lat="43.56814" lon="1.31573">
        <ele>165.4</ele>
        <time>2022-07-12T14:48:42Z</time>
      </trkpt>
      <trkpt lat="43.56799" lon="1.31541">
        <ele>165.4</ele>
        <time>2022-07-12T14:48:46Z</time>
      </trkpt>
      <trkpt lat="43.56777" lon="1.31495">
        <ele>166</ele>
        <time>2022-07-12T14:48:52Z</time>
      </trkpt>
      <trkpt lat="43.56774" lon="1.31489">
        <ele>166</ele>
        <time>2022-07-12T14:48:53Z</time>
      </trkpt>
      <trkpt lat="43.56757" lon="1.31457">
        <ele>166</ele>
        <time>2022-07-12T14:48:57Z</time>
      </trkpt>
      <trkpt lat="43.56731" lon="1.31412">
        <ele>165.8</ele>
        <time>2022-07-12T14:49:03Z</time>
      </trkpt>
      <trkpt lat="43.56701" lon="1.31374">
        <ele>165.6</ele>
        <time>2022-07-12T14:49:09Z</time>
      </trkpt>
      <trkpt lat="43.56676" lon="1.31334">
        <ele>165.4</ele>
        <time>2022-07-12T14:49:15Z</time>
      </trkpt>
      <trkpt lat="43.56669" lon="1.31296">
        <ele>165.2</ele>
        <time>2022-07-12T14:49:19Z</time>
      </trkpt>
      <trkpt lat="43.56664" lon="1.31272">
        <ele>165.2</ele>
        <time>2022-07-12T14:49:22Z</time>
      </trkpt>
      <trkpt lat="43.56662" lon="1.31265">
        <ele>165.2</ele>
        <time>2022-07-12T14:49:23Z</time>
      </trkpt>
      <trkpt lat="43.56644" lon="1.31237">
        <ele>165.6</ele>
        <time>2022-07-12T14:49:28Z</time>
      </trkpt>
      <trkpt lat="43.56618" lon="1.31208">
        <ele>165.8</ele>
        <time>2022-07-12T14:49:33Z</time>
      </trkpt>
      <trkpt lat="43.56597" lon="1.31188">
        <ele>166</ele>
        <time>2022-07-12T14:49:37Z</time>
      </trkpt>
      <trkpt lat="43.56586" lon="1.31187">
        <ele>166.2</ele>
        <time>2022-07-12T14:49:39Z</time>
      </trkpt>
      <trkpt lat="43.56575" lon="1.31192">
        <ele>166.4</ele>
        <time>2022-07-12T14:49:41Z</time>
      </trkpt>
      <trkpt lat="43.5656" lon="1.31199">
        <ele>166.6</ele>
        <time>2022-07-12T14:49:44Z</time>
      </trkpt>
      <trkpt lat="43.56549" lon="1.31202">
        <ele>166.6</ele>
        <time>2022-07-12T14:49:46Z</time>
      </trkpt>
      <trkpt lat="43.56536" lon="1.31202">
        <ele>166.8</ele>
        <time>2022-07-12T14:49:48Z</time>
      </trkpt>
      <trkpt lat="43.56515" lon="1.31201">
        <ele>166.6</ele>
        <time>2022-07-12T14:49:51Z</time>
      </trkpt>
      <trkpt lat="43.56507" lon="1.31198">
        <ele>166.6</ele>
        <time>2022-07-12T14:49:52Z</time>
      </trkpt>
      <trkpt lat="43.56495" lon="1.31191">
        <ele>166.8</ele>
        <time>2022-07-12T14:49:54Z</time>
      </trkpt>
      <trkpt lat="43.56482" lon="1.31185">
        <ele>167</ele>
        <time>2022-07-12T14:49:56Z</time>
      </trkpt>
      <trkpt lat="43.56478" lon="1.31182">
        <ele>167</ele>
        <time>2022-07-12T14:49:57Z</time>
      </trkpt>
      <trkpt lat="43.56474" lon="1.31178">
        <ele>167</ele>
        <time>2022-07-12T14:49:58Z</time>
      </trkpt>
      <trkpt lat="43.56468" lon="1.31167">
        <ele>167.2</ele>
        <time>2022-07-12T14:50:00Z</time>
      </trkpt>
      <trkpt lat="43.56465" lon="1.31162">
        <ele>167.4</ele>
        <time>2022-07-12T14:50:01Z</time>
      </trkpt>
      <trkpt lat="43.56463" lon="1.31157">
        <ele>167.4</ele>
        <time>2022-07-12T14:50:02Z</time>
      </trkpt>
      <trkpt lat="43.56455" lon="1.31147">
        <ele>168</ele>
        <time>2022-07-12T14:50:05Z</time>
      </trkpt>
      <trkpt lat="43.56446" lon="1.31135">
        <ele>168.2</ele>
        <time>2022-07-12T14:50:06Z</time>
      </trkpt>
      <trkpt lat="43.56442" lon="1.31122">
        <ele>168.4</ele>
        <time>2022-07-12T14:50:08Z</time>
      </trkpt>
      <trkpt lat="43.56439" lon="1.31113">
        <ele>168.4</ele>
        <time>2022-07-12T14:50:09Z</time>
      </trkpt>
      <trkpt lat="43.56437" lon="1.31107">
        <ele>168.4</ele>
        <time>2022-07-12T14:50:10Z</time>
      </trkpt>
      <trkpt lat="43.56431" lon="1.311">
        <ele>168.6</ele>
        <time>2022-07-12T14:50:12Z</time>
      </trkpt>
      <trkpt lat="43.56425" lon="1.311">
        <ele>169.2</ele>
        <time>2022-07-12T14:50:15Z</time>
      </trkpt>
      <trkpt lat="43.56422" lon="1.31103">
        <ele>169.4</ele>
        <time>2022-07-12T14:50:17Z</time>
      </trkpt>
      <trkpt lat="43.56412" lon="1.31111">
        <ele>170.2</ele>
        <time>2022-07-12T14:50:21Z</time>
      </trkpt>
      <trkpt lat="43.56407" lon="1.31113">
        <ele>170.4</ele>
        <time>2022-07-12T14:50:23Z</time>
      </trkpt>
      <trkpt lat="43.56405" lon="1.31112">
        <ele>170.4</ele>
        <time>2022-07-12T14:50:24Z</time>
      </trkpt>
      <trkpt lat="43.56404" lon="1.31111">
        <ele>170.4</ele>
        <time>2022-07-12T14:50:25Z</time>
      </trkpt>
      <trkpt lat="43.56398" lon="1.31096">
        <ele>170.6</ele>
        <time>2022-07-12T14:50:28Z</time>
      </trkpt>
      <trkpt lat="43.56396" lon="1.3109">
        <ele>170.8</ele>
        <time>2022-07-12T14:50:29Z</time>
      </trkpt>
      <trkpt lat="43.56375" lon="1.31029">
        <ele>171</ele>
        <time>2022-07-12T14:50:38Z</time>
      </trkpt>
      <trkpt lat="43.5637" lon="1.31014">
        <ele>171</ele>
        <time>2022-07-12T14:50:40Z</time>
      </trkpt>
      <trkpt lat="43.56368" lon="1.30999">
        <ele>171</ele>
        <time>2022-07-12T14:50:42Z</time>
      </trkpt>
      <trkpt lat="43.56368" lon="1.30993">
        <ele>171</ele>
        <time>2022-07-12T14:50:43Z</time>
      </trkpt>
      <trkpt lat="43.56369" lon="1.30985">
        <ele>171</ele>
        <time>2022-07-12T14:50:44Z</time>
      </trkpt>
      <trkpt lat="43.56371" lon="1.30967">
        <ele>171</ele>
        <time>2022-07-12T14:50:46Z</time>
      </trkpt>
      <trkpt lat="43.56372" lon="1.30958">
        <ele>171</ele>
        <time>2022-07-12T14:50:47Z</time>
      </trkpt>
      <trkpt lat="43.56372" lon="1.3093">
        <ele>170.8</ele>
        <time>2022-07-12T14:50:50Z</time>
      </trkpt>
      <trkpt lat="43.5637" lon="1.30913">
        <ele>170.8</ele>
        <time>2022-07-12T14:50:52Z</time>
      </trkpt>
      <trkpt lat="43.56368" lon="1.30904">
        <ele>170.8</ele>
        <time>2022-07-12T14:50:53Z</time>
      </trkpt>
      <trkpt lat="43.56365" lon="1.30885">
        <ele>170.8</ele>
        <time>2022-07-12T14:50:55Z</time>
      </trkpt>
      <trkpt lat="43.56359" lon="1.30862">
        <ele>170.8</ele>
        <time>2022-07-12T14:50:58Z</time>
      </trkpt>
      <trkpt lat="43.56354" lon="1.30845">
        <ele>170.8</ele>
        <time>2022-07-12T14:51:00Z</time>
      </trkpt>
      <trkpt lat="43.56353" lon="1.30829">
        <ele>170.6</ele>
        <time>2022-07-12T14:51:02Z</time>
      </trkpt>
      <trkpt lat="43.56355" lon="1.30798">
        <ele>170.6</ele>
        <time>2022-07-12T14:51:06Z</time>
      </trkpt>
      <trkpt lat="43.56356" lon="1.30791">
        <ele>170.8</ele>
        <time>2022-07-12T14:51:07Z</time>
      </trkpt>
      <trkpt lat="43.56366" lon="1.30759">
        <ele>170.8</ele>
        <time>2022-07-12T14:51:11Z</time>
      </trkpt>
      <trkpt lat="43.56369" lon="1.30744">
        <ele>170.8</ele>
        <time>2022-07-12T14:51:13Z</time>
      </trkpt>
      <trkpt lat="43.5638" lon="1.30695">
        <ele>171</ele>
        <time>2022-07-12T14:51:19Z</time>
      </trkpt>
      <trkpt lat="43.56396" lon="1.30652">
        <ele>170.8</ele>
        <time>2022-07-12T14:51:25Z</time>
      </trkpt>
      <trkpt lat="43.56413" lon="1.30595">
        <ele>170.4</ele>
        <time>2022-07-12T14:51:32Z</time>
      </trkpt>
      <trkpt lat="43.5642" lon="1.30561">
        <ele>170.2</ele>
        <time>2022-07-12T14:51:36Z</time>
      </trkpt>
      <trkpt lat="43.56428" lon="1.30546">
        <ele>170.2</ele>
        <time>2022-07-12T14:51:38Z</time>
      </trkpt>
      <trkpt lat="43.56447" lon="1.30516">
        <ele>170</ele>
        <time>2022-07-12T14:51:42Z</time>
      </trkpt>
      <trkpt lat="43.56453" lon="1.3051">
        <ele>170</ele>
        <time>2022-07-12T14:51:43Z</time>
      </trkpt>
      <trkpt lat="43.56477" lon="1.305">
        <ele>169.6</ele>
        <time>2022-07-12T14:51:47Z</time>
      </trkpt>
      <trkpt lat="43.56483" lon="1.30498">
        <ele>169.6</ele>
        <time>2022-07-12T14:51:48Z</time>
      </trkpt>
      <trkpt lat="43.56502" lon="1.30492">
        <ele>169.4</ele>
        <time>2022-07-12T14:51:51Z</time>
      </trkpt>
      <trkpt lat="43.56511" lon="1.30486">
        <ele>169.4</ele>
        <time>2022-07-12T14:51:53Z</time>
      </trkpt>
      <trkpt lat="43.56516" lon="1.30481">
        <ele>169.4</ele>
        <time>2022-07-12T14:51:54Z</time>
      </trkpt>
      <trkpt lat="43.56519" lon="1.30475">
        <ele>169.4</ele>
        <time>2022-07-12T14:51:55Z</time>
      </trkpt>
      <trkpt lat="43.56525" lon="1.30452">
        <ele>169.4</ele>
        <time>2022-07-12T14:51:58Z</time>
      </trkpt>
      <trkpt lat="43.56541" lon="1.30377">
        <ele>169.2</ele>
        <time>2022-07-12T14:52:07Z</time>
      </trkpt>
      <trkpt lat="43.56544" lon="1.3036">
        <ele>169.2</ele>
        <time>2022-07-12T14:52:09Z</time>
      </trkpt>
      <trkpt lat="43.56551" lon="1.30328">
        <ele>169.4</ele>
        <time>2022-07-12T14:52:13Z</time>
      </trkpt>
      <trkpt lat="43.56553" lon="1.30312">
        <ele>169.4</ele>
        <time>2022-07-12T14:52:15Z</time>
      </trkpt>
      <trkpt lat="43.56555" lon="1.30289">
        <ele>169.4</ele>
        <time>2022-07-12T14:52:18Z</time>
      </trkpt>
      <trkpt lat="43.56554" lon="1.30258">
        <ele>169.4</ele>
        <time>2022-07-12T14:52:22Z</time>
      </trkpt>
      <trkpt lat="43.56553" lon="1.3025">
        <ele>169.4</ele>
        <time>2022-07-12T14:52:23Z</time>
      </trkpt>
      <trkpt lat="43.56552" lon="1.30243">
        <ele>169.4</ele>
        <time>2022-07-12T14:52:24Z</time>
      </trkpt>
      <trkpt lat="43.56548" lon="1.30209">
        <ele>169.6</ele>
        <time>2022-07-12T14:52:28Z</time>
      </trkpt>
      <trkpt lat="43.56545" lon="1.30191">
        <ele>169.8</ele>
        <time>2022-07-12T14:52:30Z</time>
      </trkpt>
      <trkpt lat="43.56541" lon="1.30175">
        <ele>170</ele>
        <time>2022-07-12T14:52:32Z</time>
      </trkpt>
      <trkpt lat="43.56537" lon="1.30167">
        <ele>170</ele>
        <time>2022-07-12T14:52:33Z</time>
      </trkpt>
      <trkpt lat="43.56533" lon="1.30158">
        <ele>170.4</ele>
        <time>2022-07-12T14:52:34Z</time>
      </trkpt>
      <trkpt lat="43.56526" lon="1.30149">
        <ele>170.6</ele>
        <time>2022-07-12T14:52:36Z</time>
      </trkpt>
      <trkpt lat="43.56522" lon="1.30144">
        <ele>170.8</ele>
        <time>2022-07-12T14:52:37Z</time>
      </trkpt>
      <trkpt lat="43.56514" lon="1.30136">
        <ele>171</ele>
        <time>2022-07-12T14:52:39Z</time>
      </trkpt>
      <trkpt lat="43.56506" lon="1.30133">
        <ele>171.2</ele>
        <time>2022-07-12T14:52:41Z</time>
      </trkpt>
      <trkpt lat="43.56473" lon="1.30119">
        <ele>171.6</ele>
        <time>2022-07-12T14:52:48Z</time>
      </trkpt>
      <trkpt lat="43.56467" lon="1.30116">
        <ele>171.8</ele>
        <time>2022-07-12T14:52:49Z</time>
      </trkpt>
      <trkpt lat="43.56457" lon="1.30111">
        <ele>171.6</ele>
        <time>2022-07-12T14:52:51Z</time>
      </trkpt>
      <trkpt lat="43.56445" lon="1.30101">
        <ele>172</ele>
        <time>2022-07-12T14:52:53Z</time>
      </trkpt>
      <trkpt lat="43.56398" lon="1.30069">
        <ele>172</ele>
        <time>2022-07-12T14:53:01Z</time>
      </trkpt>
      <trkpt lat="43.5637" lon="1.30059">
        <ele>172</ele>
        <time>2022-07-12T14:53:06Z</time>
      </trkpt>
      <trkpt lat="43.56353" lon="1.30053">
        <ele>172.2</ele>
        <time>2022-07-12T14:53:09Z</time>
      </trkpt>
      <trkpt lat="43.56348" lon="1.3005">
        <ele>172.2</ele>
        <time>2022-07-12T14:53:10Z</time>
      </trkpt>
      <trkpt lat="43.56328" lon="1.30034">
        <ele>172.4</ele>
        <time>2022-07-12T14:53:14Z</time>
      </trkpt>
      <trkpt lat="43.56323" lon="1.30026">
        <ele>172.6</ele>
        <time>2022-07-12T14:53:17Z</time>
      </trkpt>
      <trkpt lat="43.56318" lon="1.30018">
        <ele>172.6</ele>
        <time>2022-07-12T14:53:20Z</time>
      </trkpt>
      <trkpt lat="43.56314" lon="1.30017">
        <ele>172.6</ele>
        <time>2022-07-12T14:53:21Z</time>
      </trkpt>
      <trkpt lat="43.56293" lon="1.30007">
        <ele>172.6</ele>
        <time>2022-07-12T14:53:27Z</time>
      </trkpt>
      <trkpt lat="43.56275" lon="1.29986">
        <ele>173</ele>
        <time>2022-07-12T14:53:33Z</time>
      </trkpt>
      <trkpt lat="43.56256" lon="1.29964">
        <ele>173.4</ele>
        <time>2022-07-12T14:53:37Z</time>
      </trkpt>
      <trkpt lat="43.56239" lon="1.29935">
        <ele>173.6</ele>
        <time>2022-07-12T14:53:41Z</time>
      </trkpt>
      <trkpt lat="43.56236" lon="1.29929">
        <ele>173.6</ele>
        <time>2022-07-12T14:53:42Z</time>
      </trkpt>
      <trkpt lat="43.56216" lon="1.29887">
        <ele>173.8</ele>
        <time>2022-07-12T14:53:48Z</time>
      </trkpt>
      <trkpt lat="43.56213" lon="1.29879">
        <ele>174</ele>
        <time>2022-07-12T14:53:49Z</time>
      </trkpt>
      <trkpt lat="43.56207" lon="1.29867">
        <ele>174.2</ele>
        <time>2022-07-12T14:53:51Z</time>
      </trkpt>
      <trkpt lat="43.56202" lon="1.29861">
        <ele>174.2</ele>
        <time>2022-07-12T14:53:52Z</time>
      </trkpt>
      <trkpt lat="43.56197" lon="1.29854">
        <ele>174.2</ele>
        <time>2022-07-12T14:53:53Z</time>
      </trkpt>
      <trkpt lat="43.56189" lon="1.29844">
        <ele>174.2</ele>
        <time>2022-07-12T14:53:55Z</time>
      </trkpt>
      <trkpt lat="43.5618" lon="1.2984">
        <ele>174.2</ele>
        <time>2022-07-12T14:53:57Z</time>
      </trkpt>
      <trkpt lat="43.5617" lon="1.29842">
        <ele>174.2</ele>
        <time>2022-07-12T14:53:59Z</time>
      </trkpt>
      <trkpt lat="43.56159" lon="1.29839">
        <ele>174</ele>
        <time>2022-07-12T14:54:01Z</time>
      </trkpt>
      <trkpt lat="43.56153" lon="1.29835">
        <ele>174</ele>
        <time>2022-07-12T14:54:02Z</time>
      </trkpt>
      <trkpt lat="43.56133" lon="1.29816">
        <ele>174</ele>
        <time>2022-07-12T14:54:06Z</time>
      </trkpt>
      <trkpt lat="43.56119" lon="1.29803">
        <ele>173.2</ele>
        <time>2022-07-12T14:54:09Z</time>
      </trkpt>
      <trkpt lat="43.56094" lon="1.29782">
        <ele>172.4</ele>
        <time>2022-07-12T14:54:14Z</time>
      </trkpt>
      <trkpt lat="43.5609" lon="1.29779">
        <ele>172.2</ele>
        <time>2022-07-12T14:54:15Z</time>
      </trkpt>
      <trkpt lat="43.56086" lon="1.29773">
        <ele>171.8</ele>
        <time>2022-07-12T14:54:16Z</time>
      </trkpt>
      <trkpt lat="43.56083" lon="1.29768">
        <ele>171.8</ele>
        <time>2022-07-12T14:54:17Z</time>
      </trkpt>
      <trkpt lat="43.56082" lon="1.29764">
        <ele>171.6</ele>
        <time>2022-07-12T14:54:18Z</time>
      </trkpt>
      <trkpt lat="43.56082" lon="1.2975">
        <ele>171</ele>
        <time>2022-07-12T14:54:22Z</time>
      </trkpt>
      <trkpt lat="43.56083" lon="1.29743">
        <ele>170.8</ele>
        <time>2022-07-12T14:54:24Z</time>
      </trkpt>
      <trkpt lat="43.56084" lon="1.29739">
        <ele>170.8</ele>
        <time>2022-07-12T14:54:25Z</time>
      </trkpt>
      <trkpt lat="43.56083" lon="1.29737">
        <ele>170.8</ele>
        <time>2022-07-12T14:54:26Z</time>
      </trkpt>
      <trkpt lat="43.5608" lon="1.29732">
        <ele>170.6</ele>
        <time>2022-07-12T14:54:28Z</time>
      </trkpt>
      <trkpt lat="43.56081" lon="1.29724">
        <ele>170.4</ele>
        <time>2022-07-12T14:54:30Z</time>
      </trkpt>
      <trkpt lat="43.56094" lon="1.29714">
        <ele>170.4</ele>
        <time>2022-07-12T14:54:34Z</time>
      </trkpt>
      <trkpt lat="43.56117" lon="1.29692">
        <ele>170</ele>
        <time>2022-07-12T14:54:41Z</time>
      </trkpt>
      <trkpt lat="43.56132" lon="1.29676">
        <ele>169.8</ele>
        <time>2022-07-12T14:54:46Z</time>
      </trkpt>
      <trkpt lat="43.56148" lon="1.29668">
        <ele>170</ele>
        <time>2022-07-12T14:54:51Z</time>
      </trkpt>
      <trkpt lat="43.56149" lon="1.29666">
        <ele>170.2</ele>
        <time>2022-07-12T14:54:52Z</time>
      </trkpt>
      <trkpt lat="43.56148" lon="1.29664">
        <ele>170.2</ele>
        <time>2022-07-12T14:54:53Z</time>
      </trkpt>
      <trkpt lat="43.56141" lon="1.29657">
        <ele>170.2</ele>
        <time>2022-07-12T14:54:56Z</time>
      </trkpt>
      <trkpt lat="43.56137" lon="1.2965">
        <ele>170.2</ele>
        <time>2022-07-12T14:54:57Z</time>
      </trkpt>
      <trkpt lat="43.56123" lon="1.29621">
        <ele>170</ele>
        <time>2022-07-12T14:55:01Z</time>
      </trkpt>
      <trkpt lat="43.56095" lon="1.29571">
        <ele>169.6</ele>
        <time>2022-07-12T14:55:08Z</time>
      </trkpt>
      <trkpt lat="43.56078" lon="1.29544">
        <ele>169.6</ele>
        <time>2022-07-12T14:55:12Z</time>
      </trkpt>
      <trkpt lat="43.56069" lon="1.29531">
        <ele>169.6</ele>
        <time>2022-07-12T14:55:14Z</time>
      </trkpt>
      <trkpt lat="43.56041" lon="1.29494">
        <ele>169.6</ele>
        <time>2022-07-12T14:55:20Z</time>
      </trkpt>
      <trkpt lat="43.56014" lon="1.29458">
        <ele>169.8</ele>
        <time>2022-07-12T14:55:26Z</time>
      </trkpt>
      <trkpt lat="43.56006" lon="1.29448">
        <ele>169.8</ele>
        <time>2022-07-12T14:55:28Z</time>
      </trkpt>
      <trkpt lat="43.55996" lon="1.2943">
        <ele>169.8</ele>
        <time>2022-07-12T14:55:31Z</time>
      </trkpt>
      <trkpt lat="43.55993" lon="1.29425">
        <ele>169.6</ele>
        <time>2022-07-12T14:55:32Z</time>
      </trkpt>
      <trkpt lat="43.55982" lon="1.29418">
        <ele>169.4</ele>
        <time>2022-07-12T14:55:34Z</time>
      </trkpt>
      <trkpt lat="43.55971" lon="1.29418">
        <ele>169.4</ele>
        <time>2022-07-12T14:55:36Z</time>
      </trkpt>
      <trkpt lat="43.55965" lon="1.29417">
        <ele>169.4</ele>
        <time>2022-07-12T14:55:37Z</time>
      </trkpt>
      <trkpt lat="43.55959" lon="1.29414">
        <ele>169.2</ele>
        <time>2022-07-12T14:55:38Z</time>
      </trkpt>
      <trkpt lat="43.55945" lon="1.29402">
        <ele>169.2</ele>
        <time>2022-07-12T14:55:41Z</time>
      </trkpt>
      <trkpt lat="43.55933" lon="1.29393">
        <ele>169.2</ele>
        <time>2022-07-12T14:55:43Z</time>
      </trkpt>
      <trkpt lat="43.55922" lon="1.29391">
        <ele>169</ele>
        <time>2022-07-12T14:55:45Z</time>
      </trkpt>
      <trkpt lat="43.55907" lon="1.29395">
        <ele>169</ele>
        <time>2022-07-12T14:55:48Z</time>
      </trkpt>
      <trkpt lat="43.55902" lon="1.29396">
        <ele>168.8</ele>
        <time>2022-07-12T14:55:49Z</time>
      </trkpt>
      <trkpt lat="43.55892" lon="1.29398">
        <ele>168.8</ele>
        <time>2022-07-12T14:55:51Z</time>
      </trkpt>
      <trkpt lat="43.55881" lon="1.29396">
        <ele>168.4</ele>
        <time>2022-07-12T14:55:53Z</time>
      </trkpt>
      <trkpt lat="43.55878" lon="1.29393">
        <ele>168.2</ele>
        <time>2022-07-12T14:55:54Z</time>
      </trkpt>
      <trkpt lat="43.55876" lon="1.29388">
        <ele>168.2</ele>
        <time>2022-07-12T14:55:55Z</time>
      </trkpt>
      <trkpt lat="43.55875" lon="1.29376">
        <ele>168</ele>
        <time>2022-07-12T14:55:57Z</time>
      </trkpt>
      <trkpt lat="43.55874" lon="1.29351">
        <ele>168</ele>
        <time>2022-07-12T14:56:01Z</time>
      </trkpt>
      <trkpt lat="43.55874" lon="1.29339">
        <ele>168.2</ele>
        <time>2022-07-12T14:56:03Z</time>
      </trkpt>
      <trkpt lat="43.5587" lon="1.29326">
        <ele>168.4</ele>
        <time>2022-07-12T14:56:05Z</time>
      </trkpt>
      <trkpt lat="43.55864" lon="1.2931">
        <ele>168.6</ele>
        <time>2022-07-12T14:56:07Z</time>
      </trkpt>
      <trkpt lat="43.55861" lon="1.29278">
        <ele>169.8</ele>
        <time>2022-07-12T14:56:11Z</time>
      </trkpt>
      <trkpt lat="43.55861" lon="1.2927">
        <ele>170</ele>
        <time>2022-07-12T14:56:12Z</time>
      </trkpt>
      <trkpt lat="43.5586" lon="1.29263">
        <ele>170</ele>
        <time>2022-07-12T14:56:13Z</time>
      </trkpt>
      <trkpt lat="43.55853" lon="1.29241">
        <ele>170.2</ele>
        <time>2022-07-12T14:56:17Z</time>
      </trkpt>
      <trkpt lat="43.5585" lon="1.29232">
        <ele>170.4</ele>
        <time>2022-07-12T14:56:19Z</time>
      </trkpt>
      <trkpt lat="43.55848" lon="1.29223">
        <ele>170.8</ele>
        <time>2022-07-12T14:56:21Z</time>
      </trkpt>
      <trkpt lat="43.55848" lon="1.2922">
        <ele>171.2</ele>
        <time>2022-07-12T14:56:22Z</time>
      </trkpt>
      <trkpt lat="43.5584" lon="1.29189">
        <ele>171.4</ele>
        <time>2022-07-12T14:56:27Z</time>
      </trkpt>
      <trkpt lat="43.55832" lon="1.29177">
        <ele>171.6</ele>
        <time>2022-07-12T14:56:29Z</time>
      </trkpt>
      <trkpt lat="43.55823" lon="1.29169">
        <ele>171.6</ele>
        <time>2022-07-12T14:56:31Z</time>
      </trkpt>
      <trkpt lat="43.55813" lon="1.29165">
        <ele>171.6</ele>
        <time>2022-07-12T14:56:33Z</time>
      </trkpt>
      <trkpt lat="43.55804" lon="1.29155">
        <ele>171.8</ele>
        <time>2022-07-12T14:56:35Z</time>
      </trkpt>
      <trkpt lat="43.55801" lon="1.29152">
        <ele>171.6</ele>
        <time>2022-07-12T14:56:36Z</time>
      </trkpt>
      <trkpt lat="43.55766" lon="1.29108">
        <ele>171.4</ele>
        <time>2022-07-12T14:56:44Z</time>
      </trkpt>
      <trkpt lat="43.55724" lon="1.29061">
        <ele>170.6</ele>
        <time>2022-07-12T14:56:53Z</time>
      </trkpt>
      <trkpt lat="43.55693" lon="1.29023">
        <ele>170</ele>
        <time>2022-07-12T14:57:00Z</time>
      </trkpt>
      <trkpt lat="43.55684" lon="1.29012">
        <ele>170</ele>
        <time>2022-07-12T14:57:02Z</time>
      </trkpt>
      <trkpt lat="43.55651" lon="1.28975">
        <ele>170</ele>
        <time>2022-07-12T14:57:09Z</time>
      </trkpt>
      <trkpt lat="43.55611" lon="1.28931">
        <ele>170</ele>
        <time>2022-07-12T14:57:17Z</time>
      </trkpt>
      <trkpt lat="43.55567" lon="1.28882">
        <ele>170.2</ele>
        <time>2022-07-12T14:57:26Z</time>
      </trkpt>
      <trkpt lat="43.55555" lon="1.28872">
        <ele>170.2</ele>
        <time>2022-07-12T14:57:28Z</time>
      </trkpt>
      <trkpt lat="43.55544" lon="1.28864">
        <ele>170.2</ele>
        <time>2022-07-12T14:57:30Z</time>
      </trkpt>
      <trkpt lat="43.55525" lon="1.28858">
        <ele>170.2</ele>
        <time>2022-07-12T14:57:33Z</time>
      </trkpt>
      <trkpt lat="43.55467" lon="1.28845">
        <ele>170.4</ele>
        <time>2022-07-12T14:57:42Z</time>
      </trkpt>
      <trkpt lat="43.55461" lon="1.28841">
        <ele>170.4</ele>
        <time>2022-07-12T14:57:43Z</time>
      </trkpt>
      <trkpt lat="43.55431" lon="1.28814">
        <ele>170.6</ele>
        <time>2022-07-12T14:57:48Z</time>
      </trkpt>
      <trkpt lat="43.55414" lon="1.28795">
        <ele>170.8</ele>
        <time>2022-07-12T14:57:51Z</time>
      </trkpt>
      <trkpt lat="43.55376" lon="1.28748">
        <ele>171.2</ele>
        <time>2022-07-12T14:57:58Z</time>
      </trkpt>
      <trkpt lat="43.5537" lon="1.2874">
        <ele>171.4</ele>
        <time>2022-07-12T14:57:59Z</time>
      </trkpt>
      <trkpt lat="43.55332" lon="1.28679">
        <ele>171.6</ele>
        <time>2022-07-12T14:58:07Z</time>
      </trkpt>
      <trkpt lat="43.55326" lon="1.28669">
        <ele>171.6</ele>
        <time>2022-07-12T14:58:08Z</time>
      </trkpt>
      <trkpt lat="43.55285" lon="1.28619">
        <ele>171.8</ele>
        <time>2022-07-12T14:58:15Z</time>
      </trkpt>
      <trkpt lat="43.55239" lon="1.28578">
        <ele>172</ele>
        <time>2022-07-12T14:58:22Z</time>
      </trkpt>
      <trkpt lat="43.5523" lon="1.28572">
        <ele>172</ele>
        <time>2022-07-12T14:58:23Z</time>
      </trkpt>
      <trkpt lat="43.55179" lon="1.2854">
        <ele>172.2</ele>
        <time>2022-07-12T14:58:30Z</time>
      </trkpt>
      <trkpt lat="43.55164" lon="1.2853">
        <ele>172.2</ele>
        <time>2022-07-12T14:58:32Z</time>
      </trkpt>
      <trkpt lat="43.55115" lon="1.28494">
        <ele>172.2</ele>
        <time>2022-07-12T14:58:39Z</time>
      </trkpt>
      <trkpt lat="43.551" lon="1.28486">
        <ele>172</ele>
        <time>2022-07-12T14:58:41Z</time>
      </trkpt>
      <trkpt lat="43.55062" lon="1.28477">
        <ele>171.6</ele>
        <time>2022-07-12T14:58:46Z</time>
      </trkpt>
      <trkpt lat="43.55" lon="1.2847">
        <ele>171.6</ele>
        <time>2022-07-12T14:58:54Z</time>
      </trkpt>
      <trkpt lat="43.54946" lon="1.2846">
        <ele>171.4</ele>
        <time>2022-07-12T14:59:01Z</time>
      </trkpt>
      <trkpt lat="43.54931" lon="1.28457">
        <ele>171.2</ele>
        <time>2022-07-12T14:59:03Z</time>
      </trkpt>
      <trkpt lat="43.54923" lon="1.28456">
        <ele>171.2</ele>
        <time>2022-07-12T14:59:04Z</time>
      </trkpt>
      <trkpt lat="43.549" lon="1.28451">
        <ele>171.2</ele>
        <time>2022-07-12T14:59:07Z</time>
      </trkpt>
      <trkpt lat="43.5484" lon="1.28438">
        <ele>171.2</ele>
        <time>2022-07-12T14:59:15Z</time>
      </trkpt>
      <trkpt lat="43.54833" lon="1.28435">
        <ele>171.2</ele>
        <time>2022-07-12T14:59:16Z</time>
      </trkpt>
      <trkpt lat="43.54773" lon="1.28422">
        <ele>171.6</ele>
        <time>2022-07-12T14:59:24Z</time>
      </trkpt>
      <trkpt lat="43.54765" lon="1.2842">
        <ele>171.6</ele>
        <time>2022-07-12T14:59:25Z</time>
      </trkpt>
      <trkpt lat="43.54706" lon="1.28406">
        <ele>172.2</ele>
        <time>2022-07-12T14:59:33Z</time>
      </trkpt>
      <trkpt lat="43.54691" lon="1.284">
        <ele>172.2</ele>
        <time>2022-07-12T14:59:35Z</time>
      </trkpt>
      <trkpt lat="43.54651" lon="1.28375">
        <ele>172.2</ele>
        <time>2022-07-12T14:59:41Z</time>
      </trkpt>
      <trkpt lat="43.54644" lon="1.2837">
        <ele>172.4</ele>
        <time>2022-07-12T14:59:42Z</time>
      </trkpt>
      <trkpt lat="43.54638" lon="1.28365">
        <ele>172.4</ele>
        <time>2022-07-12T14:59:43Z</time>
      </trkpt>
      <trkpt lat="43.54627" lon="1.28352">
        <ele>172.6</ele>
        <time>2022-07-12T14:59:45Z</time>
      </trkpt>
      <trkpt lat="43.54622" lon="1.28344">
        <ele>172.6</ele>
        <time>2022-07-12T14:59:46Z</time>
      </trkpt>
      <trkpt lat="43.54604" lon="1.28311">
        <ele>172.8</ele>
        <time>2022-07-12T14:59:50Z</time>
      </trkpt>
      <trkpt lat="43.54566" lon="1.28248">
        <ele>173.2</ele>
        <time>2022-07-12T14:59:58Z</time>
      </trkpt>
      <trkpt lat="43.54561" lon="1.2824">
        <ele>173.2</ele>
        <time>2022-07-12T14:59:59Z</time>
      </trkpt>
      <trkpt lat="43.54542" lon="1.28211">
        <ele>173.4</ele>
        <time>2022-07-12T15:00:03Z</time>
      </trkpt>
      <trkpt lat="43.54517" lon="1.28176">
        <ele>173.8</ele>
        <time>2022-07-12T15:00:08Z</time>
      </trkpt>
      <trkpt lat="43.54496" lon="1.28148">
        <ele>173.8</ele>
        <time>2022-07-12T15:00:12Z</time>
      </trkpt>
      <trkpt lat="43.54476" lon="1.2812">
        <ele>173.8</ele>
        <time>2022-07-12T15:00:16Z</time>
      </trkpt>
      <trkpt lat="43.54437" lon="1.28061">
        <ele>173.6</ele>
        <time>2022-07-12T15:00:24Z</time>
      </trkpt>
      <trkpt lat="43.54433" lon="1.28054">
        <ele>173.6</ele>
        <time>2022-07-12T15:00:25Z</time>
      </trkpt>
      <trkpt lat="43.544" lon="1.27991">
        <ele>174</ele>
        <time>2022-07-12T15:00:33Z</time>
      </trkpt>
      <trkpt lat="43.54385" lon="1.27961">
        <ele>174</ele>
        <time>2022-07-12T15:00:37Z</time>
      </trkpt>
      <trkpt lat="43.54352" lon="1.27892">
        <ele>174.6</ele>
        <time>2022-07-12T15:00:46Z</time>
      </trkpt>
      <trkpt lat="43.54348" lon="1.27884">
        <ele>174.6</ele>
        <time>2022-07-12T15:00:47Z</time>
      </trkpt>
      <trkpt lat="43.54319" lon="1.27815">
        <ele>175.4</ele>
        <time>2022-07-12T15:00:56Z</time>
      </trkpt>
      <trkpt lat="43.54304" lon="1.27777">
        <ele>175.6</ele>
        <time>2022-07-12T15:01:01Z</time>
      </trkpt>
      <trkpt lat="43.54297" lon="1.27752">
        <ele>175.8</ele>
        <time>2022-07-12T15:01:04Z</time>
      </trkpt>
      <trkpt lat="43.54283" lon="1.27673">
        <ele>176.2</ele>
        <time>2022-07-12T15:01:13Z</time>
      </trkpt>
      <trkpt lat="43.54279" lon="1.27656">
        <ele>176.2</ele>
        <time>2022-07-12T15:01:15Z</time>
      </trkpt>
      <trkpt lat="43.54267" lon="1.27589">
        <ele>176.6</ele>
        <time>2022-07-12T15:01:23Z</time>
      </trkpt>
      <trkpt lat="43.54258" lon="1.2754">
        <ele>176.6</ele>
        <time>2022-07-12T15:01:29Z</time>
      </trkpt>
      <trkpt lat="43.54258" lon="1.27533">
        <ele>176.6</ele>
        <time>2022-07-12T15:01:30Z</time>
      </trkpt>
      <trkpt lat="43.5426" lon="1.27526">
        <ele>176.6</ele>
        <time>2022-07-12T15:01:31Z</time>
      </trkpt>
      <trkpt lat="43.54267" lon="1.27513">
        <ele>176.6</ele>
        <time>2022-07-12T15:01:33Z</time>
      </trkpt>
      <trkpt lat="43.54279" lon="1.27496">
        <ele>176.6</ele>
        <time>2022-07-12T15:01:36Z</time>
      </trkpt>
      <trkpt lat="43.54311" lon="1.27447">
        <ele>176.8</ele>
        <time>2022-07-12T15:01:44Z</time>
      </trkpt>
      <trkpt lat="43.54343" lon="1.27398">
        <ele>177.4</ele>
        <time>2022-07-12T15:01:52Z</time>
      </trkpt>
      <trkpt lat="43.54367" lon="1.27361">
        <ele>177.6</ele>
        <time>2022-07-12T15:01:58Z</time>
      </trkpt>
      <trkpt lat="43.54383" lon="1.27337">
        <ele>177.8</ele>
        <time>2022-07-12T15:02:02Z</time>
      </trkpt>
      <trkpt lat="43.54419" lon="1.2728">
        <ele>178</ele>
        <time>2022-07-12T15:02:11Z</time>
      </trkpt>
      <trkpt lat="43.54456" lon="1.27222">
        <ele>178</ele>
        <time>2022-07-12T15:02:20Z</time>
      </trkpt>
      <trkpt lat="43.54492" lon="1.27165">
        <ele>178.2</ele>
        <time>2022-07-12T15:02:29Z</time>
      </trkpt>
      <trkpt lat="43.54499" lon="1.27152">
        <ele>178.2</ele>
        <time>2022-07-12T15:02:31Z</time>
      </trkpt>
      <trkpt lat="43.5453" lon="1.27092">
        <ele>177.8</ele>
        <time>2022-07-12T15:02:40Z</time>
      </trkpt>
      <trkpt lat="43.54558" lon="1.27038">
        <ele>177.8</ele>
        <time>2022-07-12T15:02:48Z</time>
      </trkpt>
      <trkpt lat="43.54582" lon="1.26992">
        <ele>178</ele>
        <time>2022-07-12T15:02:55Z</time>
      </trkpt>
      <trkpt lat="43.5461" lon="1.26939">
        <ele>178.2</ele>
        <time>2022-07-12T15:03:03Z</time>
      </trkpt>
      <trkpt lat="43.5461" lon="1.26932">
        <ele>178.2</ele>
        <time>2022-07-12T15:03:04Z</time>
      </trkpt>
      <trkpt lat="43.54609" lon="1.26926">
        <ele>178.2</ele>
        <time>2022-07-12T15:03:05Z</time>
      </trkpt>
      <trkpt lat="43.54606" lon="1.26916">
        <ele>178.4</ele>
        <time>2022-07-12T15:03:07Z</time>
      </trkpt>
      <trkpt lat="43.54606" lon="1.26911">
        <ele>178.6</ele>
        <time>2022-07-12T15:03:09Z</time>
      </trkpt>
      <trkpt lat="43.54622" lon="1.26911">
        <ele>178.8</ele>
        <time>2022-07-12T15:03:14Z</time>
      </trkpt>
      <trkpt lat="43.5464" lon="1.26907">
        <ele>179.4</ele>
        <time>2022-07-12T15:03:18Z</time>
      </trkpt>
      <trkpt lat="43.54644" lon="1.26902">
        <ele>179.4</ele>
        <time>2022-07-12T15:03:19Z</time>
      </trkpt>
      <trkpt lat="43.54647" lon="1.26897">
        <ele>179.4</ele>
        <time>2022-07-12T15:03:20Z</time>
      </trkpt>
      <trkpt lat="43.54653" lon="1.26884">
        <ele>179.8</ele>
        <time>2022-07-12T15:03:23Z</time>
      </trkpt>
      <trkpt lat="43.54658" lon="1.26875">
        <ele>180.2</ele>
        <time>2022-07-12T15:03:26Z</time>
      </trkpt>
      <trkpt lat="43.5466" lon="1.26871">
        <ele>180.4</ele>
        <time>2022-07-12T15:03:27Z</time>
      </trkpt>
      <trkpt lat="43.54675" lon="1.26844">
        <ele>180.6</ele>
        <time>2022-07-12T15:03:32Z</time>
      </trkpt>
      <trkpt lat="43.54697" lon="1.268">
        <ele>181.2</ele>
        <time>2022-07-12T15:03:39Z</time>
      </trkpt>
      <trkpt lat="43.54704" lon="1.26788">
        <ele>181.2</ele>
        <time>2022-07-12T15:03:41Z</time>
      </trkpt>
      <trkpt lat="43.5471" lon="1.26777">
        <ele>181.2</ele>
        <time>2022-07-12T15:03:43Z</time>
      </trkpt>
      <trkpt lat="43.54712" lon="1.26772">
        <ele>181.2</ele>
        <time>2022-07-12T15:03:44Z</time>
      </trkpt>
      <trkpt lat="43.54706" lon="1.26748">
        <ele>181.6</ele>
        <time>2022-07-12T15:03:48Z</time>
      </trkpt>
      <trkpt lat="43.54704" lon="1.26742">
        <ele>181.6</ele>
        <time>2022-07-12T15:03:49Z</time>
      </trkpt>
      <trkpt lat="43.54697" lon="1.2671">
        <ele>181.4</ele>
        <time>2022-07-12T15:03:53Z</time>
      </trkpt>
      <trkpt lat="43.54687" lon="1.26646">
        <ele>181</ele>
        <time>2022-07-12T15:04:01Z</time>
      </trkpt>
      <trkpt lat="43.5468" lon="1.26576">
        <ele>180.2</ele>
        <time>2022-07-12T15:04:09Z</time>
      </trkpt>
      <trkpt lat="43.54679" lon="1.26567">
        <ele>180.2</ele>
        <time>2022-07-12T15:04:10Z</time>
      </trkpt>
      <trkpt lat="43.54678" lon="1.2654">
        <ele>179.8</ele>
        <time>2022-07-12T15:04:13Z</time>
      </trkpt>
      <trkpt lat="43.54679" lon="1.26522">
        <ele>180</ele>
        <time>2022-07-12T15:04:15Z</time>
      </trkpt>
      <trkpt lat="43.54681" lon="1.26504">
        <ele>179.8</ele>
        <time>2022-07-12T15:04:17Z</time>
      </trkpt>
      <trkpt lat="43.54678" lon="1.26487">
        <ele>179.6</ele>
        <time>2022-07-12T15:04:19Z</time>
      </trkpt>
      <trkpt lat="43.54669" lon="1.26473">
        <ele>179.6</ele>
        <time>2022-07-12T15:04:21Z</time>
      </trkpt>
      <trkpt lat="43.54663" lon="1.26469">
        <ele>179.6</ele>
        <time>2022-07-12T15:04:22Z</time>
      </trkpt>
      <trkpt lat="43.54645" lon="1.26455">
        <ele>179.6</ele>
        <time>2022-07-12T15:04:25Z</time>
      </trkpt>
      <trkpt lat="43.54636" lon="1.26443">
        <ele>179.4</ele>
        <time>2022-07-12T15:04:27Z</time>
      </trkpt>
      <trkpt lat="43.54617" lon="1.26412">
        <ele>179.4</ele>
        <time>2022-07-12T15:04:31Z</time>
      </trkpt>
      <trkpt lat="43.54612" lon="1.26405">
        <ele>179.4</ele>
        <time>2022-07-12T15:04:32Z</time>
      </trkpt>
      <trkpt lat="43.54591" lon="1.26382">
        <ele>179.2</ele>
        <time>2022-07-12T15:04:36Z</time>
      </trkpt>
      <trkpt lat="43.54585" lon="1.26373">
        <ele>179.2</ele>
        <time>2022-07-12T15:04:37Z</time>
      </trkpt>
      <trkpt lat="43.54582" lon="1.26365">
        <ele>179.2</ele>
        <time>2022-07-12T15:04:38Z</time>
      </trkpt>
      <trkpt lat="43.54582" lon="1.26356">
        <ele>179.2</ele>
        <time>2022-07-12T15:04:39Z</time>
      </trkpt>
      <trkpt lat="43.54584" lon="1.26347">
        <ele>179.2</ele>
        <time>2022-07-12T15:04:40Z</time>
      </trkpt>
      <trkpt lat="43.54593" lon="1.26311">
        <ele>179</ele>
        <time>2022-07-12T15:04:44Z</time>
      </trkpt>
      <trkpt lat="43.54606" lon="1.26239">
        <ele>179</ele>
        <time>2022-07-12T15:04:52Z</time>
      </trkpt>
      <trkpt lat="43.54615" lon="1.26187">
        <ele>179.2</ele>
        <time>2022-07-12T15:04:58Z</time>
      </trkpt>
      <trkpt lat="43.54617" lon="1.2617">
        <ele>179.2</ele>
        <time>2022-07-12T15:05:00Z</time>
      </trkpt>
      <trkpt lat="43.54617" lon="1.2609">
        <ele>179.2</ele>
        <time>2022-07-12T15:05:09Z</time>
      </trkpt>
      <trkpt lat="43.54618" lon="1.26029">
        <ele>179.4</ele>
        <time>2022-07-12T15:05:16Z</time>
      </trkpt>
      <trkpt lat="43.54621" lon="1.25985">
        <ele>179.4</ele>
        <time>2022-07-12T15:05:21Z</time>
      </trkpt>
      <trkpt lat="43.54621" lon="1.25976">
        <ele>179.4</ele>
        <time>2022-07-12T15:05:22Z</time>
      </trkpt>
      <trkpt lat="43.54619" lon="1.25958">
        <ele>179.4</ele>
        <time>2022-07-12T15:05:24Z</time>
      </trkpt>
      <trkpt lat="43.54613" lon="1.25932">
        <ele>179.6</ele>
        <time>2022-07-12T15:05:27Z</time>
      </trkpt>
      <trkpt lat="43.54608" lon="1.25867">
        <ele>179.4</ele>
        <time>2022-07-12T15:05:34Z</time>
      </trkpt>
      <trkpt lat="43.54615" lon="1.25812">
        <ele>179.6</ele>
        <time>2022-07-12T15:05:40Z</time>
      </trkpt>
      <trkpt lat="43.54622" lon="1.25763">
        <ele>180</ele>
        <time>2022-07-12T15:05:46Z</time>
      </trkpt>
      <trkpt lat="43.54624" lon="1.25756">
        <ele>180.2</ele>
        <time>2022-07-12T15:05:47Z</time>
      </trkpt>
      <trkpt lat="43.54636" lon="1.25732">
        <ele>180.4</ele>
        <time>2022-07-12T15:05:50Z</time>
      </trkpt>
      <trkpt lat="43.54661" lon="1.25687">
        <ele>180.4</ele>
        <time>2022-07-12T15:05:56Z</time>
      </trkpt>
      <trkpt lat="43.54694" lon="1.25633">
        <ele>180.4</ele>
        <time>2022-07-12T15:06:04Z</time>
      </trkpt>
      <trkpt lat="43.54733" lon="1.25575">
        <ele>180.2</ele>
        <time>2022-07-12T15:06:13Z</time>
      </trkpt>
      <trkpt lat="43.54742" lon="1.25562">
        <ele>180.2</ele>
        <time>2022-07-12T15:06:15Z</time>
      </trkpt>
      <trkpt lat="43.54781" lon="1.25509">
        <ele>180</ele>
        <time>2022-07-12T15:06:24Z</time>
      </trkpt>
      <trkpt lat="43.54785" lon="1.25503">
        <ele>180</ele>
        <time>2022-07-12T15:06:25Z</time>
      </trkpt>
      <trkpt lat="43.5481" lon="1.25466">
        <ele>180</ele>
        <time>2022-07-12T15:06:32Z</time>
      </trkpt>
      <trkpt lat="43.54816" lon="1.25453">
        <ele>180.4</ele>
        <time>2022-07-12T15:06:36Z</time>
      </trkpt>
      <trkpt lat="43.54814" lon="1.25436">
        <ele>180.6</ele>
        <time>2022-07-12T15:06:40Z</time>
      </trkpt>
      <trkpt lat="43.54808" lon="1.2542">
        <ele>180.8</ele>
        <time>2022-07-12T15:06:43Z</time>
      </trkpt>
      <trkpt lat="43.548" lon="1.25402">
        <ele>181.4</ele>
        <time>2022-07-12T15:06:46Z</time>
      </trkpt>
      <trkpt lat="43.54786" lon="1.25371">
        <ele>182</ele>
        <time>2022-07-12T15:06:51Z</time>
      </trkpt>
      <trkpt lat="43.54784" lon="1.25364">
        <ele>182.2</ele>
        <time>2022-07-12T15:06:52Z</time>
      </trkpt>
      <trkpt lat="43.54762" lon="1.25314">
        <ele>183.2</ele>
        <time>2022-07-12T15:06:59Z</time>
      </trkpt>
      <trkpt lat="43.54759" lon="1.25307">
        <ele>183.2</ele>
        <time>2022-07-12T15:07:00Z</time>
      </trkpt>
      <trkpt lat="43.54736" lon="1.25254">
        <ele>184.2</ele>
        <time>2022-07-12T15:07:07Z</time>
      </trkpt>
      <trkpt lat="43.54723" lon="1.25223">
        <ele>184.6</ele>
        <time>2022-07-12T15:07:11Z</time>
      </trkpt>
      <trkpt lat="43.54695" lon="1.25156">
        <ele>184.6</ele>
        <time>2022-07-12T15:07:20Z</time>
      </trkpt>
      <trkpt lat="43.54692" lon="1.25148">
        <ele>184.6</ele>
        <time>2022-07-12T15:07:21Z</time>
      </trkpt>
      <trkpt lat="43.54681" lon="1.25109">
        <ele>184.2</ele>
        <time>2022-07-12T15:07:26Z</time>
      </trkpt>
      <trkpt lat="43.54684" lon="1.25094">
        <ele>184</ele>
        <time>2022-07-12T15:07:28Z</time>
      </trkpt>
      <trkpt lat="43.54689" lon="1.25088">
        <ele>183.8</ele>
        <time>2022-07-12T15:07:29Z</time>
      </trkpt>
      <trkpt lat="43.54696" lon="1.25086">
        <ele>183.8</ele>
        <time>2022-07-12T15:07:30Z</time>
      </trkpt>
      <trkpt lat="43.54702" lon="1.25087">
        <ele>183.8</ele>
        <time>2022-07-12T15:07:31Z</time>
      </trkpt>
      <trkpt lat="43.54707" lon="1.25091">
        <ele>183.6</ele>
        <time>2022-07-12T15:07:32Z</time>
      </trkpt>
      <trkpt lat="43.54731" lon="1.25107">
        <ele>183.4</ele>
        <time>2022-07-12T15:07:36Z</time>
      </trkpt>
      <trkpt lat="43.54737" lon="1.25111">
        <ele>183.4</ele>
        <time>2022-07-12T15:07:37Z</time>
      </trkpt>
      <trkpt lat="43.5475" lon="1.25112">
        <ele>183.4</ele>
        <time>2022-07-12T15:07:39Z</time>
      </trkpt>
      <trkpt lat="43.5476" lon="1.25103">
        <ele>183.2</ele>
        <time>2022-07-12T15:07:41Z</time>
      </trkpt>
      <trkpt lat="43.54777" lon="1.2507">
        <ele>183.2</ele>
        <time>2022-07-12T15:07:46Z</time>
      </trkpt>
      <trkpt lat="43.54783" lon="1.25056">
        <ele>183</ele>
        <time>2022-07-12T15:07:48Z</time>
      </trkpt>
      <trkpt lat="43.5481" lon="1.24998">
        <ele>183</ele>
        <time>2022-07-12T15:07:57Z</time>
      </trkpt>
      <trkpt lat="43.54836" lon="1.2494">
        <ele>183.4</ele>
        <time>2022-07-12T15:08:06Z</time>
      </trkpt>
      <trkpt lat="43.54866" lon="1.24876">
        <ele>183.8</ele>
        <time>2022-07-12T15:08:17Z</time>
      </trkpt>
      <trkpt lat="43.54871" lon="1.24866">
        <ele>184</ele>
        <time>2022-07-12T15:08:19Z</time>
      </trkpt>
      <trkpt lat="43.54884" lon="1.24836">
        <ele>184.4</ele>
        <time>2022-07-12T15:08:25Z</time>
      </trkpt>
      <trkpt lat="43.54891" lon="1.24822">
        <ele>184.4</ele>
        <time>2022-07-12T15:08:28Z</time>
      </trkpt>
      <trkpt lat="43.54895" lon="1.24813">
        <ele>184.6</ele>
        <time>2022-07-12T15:08:30Z</time>
      </trkpt>
      <trkpt lat="43.54901" lon="1.24806">
        <ele>184.6</ele>
        <time>2022-07-12T15:08:32Z</time>
      </trkpt>
      <trkpt lat="43.54917" lon="1.24801">
        <ele>185.2</ele>
        <time>2022-07-12T15:08:37Z</time>
      </trkpt>
      <trkpt lat="43.54925" lon="1.24803">
        <ele>185.6</ele>
        <time>2022-07-12T15:08:40Z</time>
      </trkpt>
      <trkpt lat="43.54931" lon="1.24804">
        <ele>186</ele>
        <time>2022-07-12T15:08:42Z</time>
      </trkpt>
      <trkpt lat="43.54941" lon="1.24806">
        <ele>186.8</ele>
        <time>2022-07-12T15:08:45Z</time>
      </trkpt>
      <trkpt lat="43.54955" lon="1.24807">
        <ele>188</ele>
        <time>2022-07-12T15:08:49Z</time>
      </trkpt>
      <trkpt lat="43.54962" lon="1.24808">
        <ele>188.4</ele>
        <time>2022-07-12T15:08:51Z</time>
      </trkpt>
      <trkpt lat="43.54978" lon="1.24807">
        <ele>189.2</ele>
        <time>2022-07-12T15:08:55Z</time>
      </trkpt>
      <trkpt lat="43.54982" lon="1.24806">
        <ele>189.2</ele>
        <time>2022-07-12T15:08:56Z</time>
      </trkpt>
      <trkpt lat="43.55002" lon="1.24801">
        <ele>190.2</ele>
        <time>2022-07-12T15:09:01Z</time>
      </trkpt>
      <trkpt lat="43.5501" lon="1.24798">
        <ele>190.4</ele>
        <time>2022-07-12T15:09:03Z</time>
      </trkpt>
      <trkpt lat="43.55046" lon="1.24783">
        <ele>191</ele>
        <time>2022-07-12T15:09:12Z</time>
      </trkpt>
      <trkpt lat="43.55053" lon="1.24778">
        <ele>191.2</ele>
        <time>2022-07-12T15:09:14Z</time>
      </trkpt>
      <trkpt lat="43.55056" lon="1.24775">
        <ele>191.4</ele>
        <time>2022-07-12T15:09:15Z</time>
      </trkpt>
      <trkpt lat="43.55067" lon="1.24762">
        <ele>192.6</ele>
        <time>2022-07-12T15:09:19Z</time>
      </trkpt>
      <trkpt lat="43.55081" lon="1.2474">
        <ele>193.8</ele>
        <time>2022-07-12T15:09:24Z</time>
      </trkpt>
      <trkpt lat="43.55089" lon="1.24728">
        <ele>195.2</ele>
        <time>2022-07-12T15:09:27Z</time>
      </trkpt>
      <trkpt lat="43.55098" lon="1.24715">
        <ele>196.2</ele>
        <time>2022-07-12T15:09:30Z</time>
      </trkpt>
      <trkpt lat="43.55109" lon="1.24698">
        <ele>197.4</ele>
        <time>2022-07-12T15:09:34Z</time>
      </trkpt>
      <trkpt lat="43.55121" lon="1.24679">
        <ele>198.2</ele>
        <time>2022-07-12T15:09:38Z</time>
      </trkpt>
      <trkpt lat="43.55127" lon="1.24671">
        <ele>198.8</ele>
        <time>2022-07-12T15:09:40Z</time>
      </trkpt>
      <trkpt lat="43.55129" lon="1.24666">
        <ele>199</ele>
        <time>2022-07-12T15:09:41Z</time>
      </trkpt>
      <trkpt lat="43.55134" lon="1.24657">
        <ele>199.2</ele>
        <time>2022-07-12T15:09:43Z</time>
      </trkpt>
      <trkpt lat="43.55136" lon="1.24652">
        <ele>199.6</ele>
        <time>2022-07-12T15:09:44Z</time>
      </trkpt>
      <trkpt lat="43.55139" lon="1.24637">
        <ele>200.4</ele>
        <time>2022-07-12T15:09:47Z</time>
      </trkpt>
      <trkpt lat="43.55143" lon="1.24609">
        <ele>201.4</ele>
        <time>2022-07-12T15:09:52Z</time>
      </trkpt>
      <trkpt lat="43.55144" lon="1.24591">
        <ele>201.8</ele>
        <time>2022-07-12T15:09:55Z</time>
      </trkpt>
      <trkpt lat="43.55145" lon="1.24579">
        <ele>202.6</ele>
        <time>2022-07-12T15:09:57Z</time>
      </trkpt>
      <trkpt lat="43.55142" lon="1.24548">
        <ele>203.6</ele>
        <time>2022-07-12T15:10:02Z</time>
      </trkpt>
      <trkpt lat="43.55128" lon="1.24516">
        <ele>204.2</ele>
        <time>2022-07-12T15:10:08Z</time>
      </trkpt>
      <trkpt lat="43.55126" lon="1.24505">
        <ele>204.2</ele>
        <time>2022-07-12T15:10:10Z</time>
      </trkpt>
      <trkpt lat="43.55128" lon="1.24494">
        <ele>204.4</ele>
        <time>2022-07-12T15:10:12Z</time>
      </trkpt>
      <trkpt lat="43.55134" lon="1.24486">
        <ele>204.4</ele>
        <time>2022-07-12T15:10:14Z</time>
      </trkpt>
      <trkpt lat="43.55138" lon="1.24484">
        <ele>204.4</ele>
        <time>2022-07-12T15:10:15Z</time>
      </trkpt>
      <trkpt lat="43.55148" lon="1.24482">
        <ele>204.4</ele>
        <time>2022-07-12T15:10:17Z</time>
      </trkpt>
      <trkpt lat="43.55156" lon="1.24476">
        <ele>204.4</ele>
        <time>2022-07-12T15:10:19Z</time>
      </trkpt>
      <trkpt lat="43.5516" lon="1.24472">
        <ele>204.4</ele>
        <time>2022-07-12T15:10:20Z</time>
      </trkpt>
      <trkpt lat="43.55162" lon="1.24466">
        <ele>204.4</ele>
        <time>2022-07-12T15:10:21Z</time>
      </trkpt>
      <trkpt lat="43.55165" lon="1.24454">
        <ele>204.4</ele>
        <time>2022-07-12T15:10:23Z</time>
      </trkpt>
      <trkpt lat="43.55165" lon="1.24448">
        <ele>204.4</ele>
        <time>2022-07-12T15:10:24Z</time>
      </trkpt>
      <trkpt lat="43.55165" lon="1.24441">
        <ele>204.4</ele>
        <time>2022-07-12T15:10:25Z</time>
      </trkpt>
      <trkpt lat="43.55168" lon="1.24427">
        <ele>204.2</ele>
        <time>2022-07-12T15:10:27Z</time>
      </trkpt>
      <trkpt lat="43.55172" lon="1.2442">
        <ele>204.2</ele>
        <time>2022-07-12T15:10:28Z</time>
      </trkpt>
      <trkpt lat="43.5519" lon="1.24369">
        <ele>203.8</ele>
        <time>2022-07-12T15:10:35Z</time>
      </trkpt>
      <trkpt lat="43.55195" lon="1.24347">
        <ele>203.8</ele>
        <time>2022-07-12T15:10:38Z</time>
      </trkpt>
      <trkpt lat="43.552" lon="1.24324">
        <ele>203.6</ele>
        <time>2022-07-12T15:10:41Z</time>
      </trkpt>
      <trkpt lat="43.55219" lon="1.24248">
        <ele>203.4</ele>
        <time>2022-07-12T15:10:51Z</time>
      </trkpt>
      <trkpt lat="43.5522" lon="1.2424">
        <ele>203.4</ele>
        <time>2022-07-12T15:10:52Z</time>
      </trkpt>
      <trkpt lat="43.5524" lon="1.24166">
        <ele>203</ele>
        <time>2022-07-12T15:11:01Z</time>
      </trkpt>
      <trkpt lat="43.55258" lon="1.24093">
        <ele>203</ele>
        <time>2022-07-12T15:11:10Z</time>
      </trkpt>
      <trkpt lat="43.55265" lon="1.24031">
        <ele>203.2</ele>
        <time>2022-07-12T15:11:17Z</time>
      </trkpt>
      <trkpt lat="43.5527" lon="1.2395">
        <ele>203.4</ele>
        <time>2022-07-12T15:11:26Z</time>
      </trkpt>
      <trkpt lat="43.55271" lon="1.2393">
        <ele>203.6</ele>
        <time>2022-07-12T15:11:28Z</time>
      </trkpt>
      <trkpt lat="43.55275" lon="1.2388">
        <ele>203.6</ele>
        <time>2022-07-12T15:11:33Z</time>
      </trkpt>
      <trkpt lat="43.55282" lon="1.23812">
        <ele>203.4</ele>
        <time>2022-07-12T15:11:39Z</time>
      </trkpt>
      <trkpt lat="43.55285" lon="1.23777">
        <ele>202.6</ele>
        <time>2022-07-12T15:11:42Z</time>
      </trkpt>
      <trkpt lat="43.5529" lon="1.2373">
        <ele>201.8</ele>
        <time>2022-07-12T15:11:46Z</time>
      </trkpt>
      <trkpt lat="43.55292" lon="1.23706">
        <ele>201.4</ele>
        <time>2022-07-12T15:11:48Z</time>
      </trkpt>
      <trkpt lat="43.55295" lon="1.23652">
        <ele>200.6</ele>
        <time>2022-07-12T15:11:53Z</time>
      </trkpt>
      <trkpt lat="43.55294" lon="1.23614">
        <ele>200.4</ele>
        <time>2022-07-12T15:11:57Z</time>
      </trkpt>
      <trkpt lat="43.55296" lon="1.23608">
        <ele>200.4</ele>
        <time>2022-07-12T15:11:58Z</time>
      </trkpt>
      <trkpt lat="43.553" lon="1.23604">
        <ele>200.4</ele>
        <time>2022-07-12T15:11:59Z</time>
      </trkpt>
      <trkpt lat="43.55305" lon="1.23603">
        <ele>200.4</ele>
        <time>2022-07-12T15:12:00Z</time>
      </trkpt>
      <trkpt lat="43.5531" lon="1.23604">
        <ele>200.4</ele>
        <time>2022-07-12T15:12:01Z</time>
      </trkpt>
      <trkpt lat="43.55319" lon="1.23609">
        <ele>200.4</ele>
        <time>2022-07-12T15:12:03Z</time>
      </trkpt>
      <trkpt lat="43.55327" lon="1.23616">
        <ele>200.4</ele>
        <time>2022-07-12T15:12:05Z</time>
      </trkpt>
      <trkpt lat="43.55334" lon="1.23627">
        <ele>200.4</ele>
        <time>2022-07-12T15:12:07Z</time>
      </trkpt>
      <trkpt lat="43.55368" lon="1.23681">
        <ele>201</ele>
        <time>2022-07-12T15:12:16Z</time>
      </trkpt>
      <trkpt lat="43.55377" lon="1.23693">
        <ele>201.4</ele>
        <time>2022-07-12T15:12:18Z</time>
      </trkpt>
      <trkpt lat="43.55402" lon="1.23728">
        <ele>202.4</ele>
        <time>2022-07-12T15:12:24Z</time>
      </trkpt>
      <trkpt lat="43.55406" lon="1.23734">
        <ele>202.8</ele>
        <time>2022-07-12T15:12:25Z</time>
      </trkpt>
      <trkpt lat="43.55417" lon="1.23754">
        <ele>203.4</ele>
        <time>2022-07-12T15:12:28Z</time>
      </trkpt>
      <trkpt lat="43.55424" lon="1.23769">
        <ele>203.6</ele>
        <time>2022-07-12T15:12:30Z</time>
      </trkpt>
      <trkpt lat="43.55429" lon="1.23784">
        <ele>203.8</ele>
        <time>2022-07-12T15:12:32Z</time>
      </trkpt>
      <trkpt lat="43.55447" lon="1.23833">
        <ele>204.8</ele>
        <time>2022-07-12T15:12:38Z</time>
      </trkpt>
      <trkpt lat="43.5545" lon="1.23841">
        <ele>205.2</ele>
        <time>2022-07-12T15:12:39Z</time>
      </trkpt>
      <trkpt lat="43.55457" lon="1.23867">
        <ele>206</ele>
        <time>2022-07-12T15:12:42Z</time>
      </trkpt>
      <trkpt lat="43.55468" lon="1.23908">
        <ele>206.8</ele>
        <time>2022-07-12T15:12:47Z</time>
      </trkpt>
      <trkpt lat="43.55472" lon="1.23924">
        <ele>207</ele>
        <time>2022-07-12T15:12:49Z</time>
      </trkpt>
      <trkpt lat="43.55486" lon="1.23972">
        <ele>207.8</ele>
        <time>2022-07-12T15:12:55Z</time>
      </trkpt>
      <trkpt lat="43.5549" lon="1.23988">
        <ele>208.2</ele>
        <time>2022-07-12T15:12:57Z</time>
      </trkpt>
      <trkpt lat="43.55502" lon="1.24035">
        <ele>208.8</ele>
        <time>2022-07-12T15:13:03Z</time>
      </trkpt>
      <trkpt lat="43.55519" lon="1.24095">
        <ele>209.4</ele>
        <time>2022-07-12T15:13:10Z</time>
      </trkpt>
      <trkpt lat="43.55522" lon="1.24104">
        <ele>209.4</ele>
        <time>2022-07-12T15:13:11Z</time>
      </trkpt>
      <trkpt lat="43.55529" lon="1.24122">
        <ele>209.4</ele>
        <time>2022-07-12T15:13:13Z</time>
      </trkpt>
      <trkpt lat="43.55538" lon="1.24138">
        <ele>209.4</ele>
        <time>2022-07-12T15:13:15Z</time>
      </trkpt>
      <trkpt lat="43.55542" lon="1.24144">
        <ele>209.4</ele>
        <time>2022-07-12T15:13:16Z</time>
      </trkpt>
      <trkpt lat="43.55548" lon="1.24149">
        <ele>209.4</ele>
        <time>2022-07-12T15:13:17Z</time>
      </trkpt>
      <trkpt lat="43.55559" lon="1.24154">
        <ele>209.2</ele>
        <time>2022-07-12T15:13:19Z</time>
      </trkpt>
      <trkpt lat="43.55598" lon="1.2416">
        <ele>208.2</ele>
        <time>2022-07-12T15:13:25Z</time>
      </trkpt>
      <trkpt lat="43.55605" lon="1.2416">
        <ele>208.2</ele>
        <time>2022-07-12T15:13:26Z</time>
      </trkpt>
      <trkpt lat="43.55641" lon="1.24166">
        <ele>207.2</ele>
        <time>2022-07-12T15:13:31Z</time>
      </trkpt>
      <trkpt lat="43.55655" lon="1.24171">
        <ele>207</ele>
        <time>2022-07-12T15:13:33Z</time>
      </trkpt>
      <trkpt lat="43.55708" lon="1.24191">
        <ele>206.2</ele>
        <time>2022-07-12T15:13:41Z</time>
      </trkpt>
      <trkpt lat="43.55753" lon="1.24204">
        <ele>205.8</ele>
        <time>2022-07-12T15:13:47Z</time>
      </trkpt>
      <trkpt lat="43.55802" lon="1.24214">
        <ele>205.4</ele>
        <time>2022-07-12T15:13:53Z</time>
      </trkpt>
      <trkpt lat="43.55827" lon="1.24221">
        <ele>205.2</ele>
        <time>2022-07-12T15:13:56Z</time>
      </trkpt>
      <trkpt lat="43.55862" lon="1.2423">
        <ele>205</ele>
        <time>2022-07-12T15:14:00Z</time>
      </trkpt>
      <trkpt lat="43.55905" lon="1.24241">
        <ele>204.8</ele>
        <time>2022-07-12T15:14:05Z</time>
      </trkpt>
      <trkpt lat="43.55913" lon="1.24244">
        <ele>204.8</ele>
        <time>2022-07-12T15:14:06Z</time>
      </trkpt>
      <trkpt lat="43.55928" lon="1.24252">
        <ele>204.8</ele>
        <time>2022-07-12T15:14:08Z</time>
      </trkpt>
      <trkpt lat="43.55939" lon="1.24265">
        <ele>204.8</ele>
        <time>2022-07-12T15:14:10Z</time>
      </trkpt>
      <trkpt lat="43.55973" lon="1.24299">
        <ele>204.8</ele>
        <time>2022-07-12T15:14:16Z</time>
      </trkpt>
      <trkpt lat="43.56017" lon="1.24335">
        <ele>205</ele>
        <time>2022-07-12T15:14:24Z</time>
      </trkpt>
      <trkpt lat="43.5606" lon="1.24379">
        <ele>205.2</ele>
        <time>2022-07-12T15:14:32Z</time>
      </trkpt>
      <trkpt lat="43.56091" lon="1.24403">
        <ele>205.2</ele>
        <time>2022-07-12T15:14:37Z</time>
      </trkpt>
      <trkpt lat="43.56121" lon="1.24426">
        <ele>205.2</ele>
        <time>2022-07-12T15:14:42Z</time>
      </trkpt>
      <trkpt lat="43.56138" lon="1.2444">
        <ele>205.2</ele>
        <time>2022-07-12T15:14:45Z</time>
      </trkpt>
      <trkpt lat="43.56144" lon="1.24443">
        <ele>205.4</ele>
        <time>2022-07-12T15:14:46Z</time>
      </trkpt>
      <trkpt lat="43.56155" lon="1.24443">
        <ele>205.4</ele>
        <time>2022-07-12T15:14:48Z</time>
      </trkpt>
      <trkpt lat="43.56171" lon="1.24434">
        <ele>205.6</ele>
        <time>2022-07-12T15:14:52Z</time>
      </trkpt>
      <trkpt lat="43.56184" lon="1.24427">
        <ele>206.4</ele>
        <time>2022-07-12T15:14:56Z</time>
      </trkpt>
      <trkpt lat="43.56192" lon="1.24422">
        <ele>206.6</ele>
        <time>2022-07-12T15:14:58Z</time>
      </trkpt>
      <trkpt lat="43.56219" lon="1.24405">
        <ele>207</ele>
        <time>2022-07-12T15:15:04Z</time>
      </trkpt>
      <trkpt lat="43.56254" lon="1.24385">
        <ele>207.4</ele>
        <time>2022-07-12T15:15:10Z</time>
      </trkpt>
      <trkpt lat="43.56261" lon="1.24382">
        <ele>207.4</ele>
        <time>2022-07-12T15:15:11Z</time>
      </trkpt>
      <trkpt lat="43.56284" lon="1.24379">
        <ele>207.2</ele>
        <time>2022-07-12T15:15:14Z</time>
      </trkpt>
      <trkpt lat="43.56294" lon="1.24383">
        <ele>206.8</ele>
        <time>2022-07-12T15:15:16Z</time>
      </trkpt>
      <trkpt lat="43.56298" lon="1.24388">
        <ele>206.4</ele>
        <time>2022-07-12T15:15:17Z</time>
      </trkpt>
      <trkpt lat="43.56302" lon="1.24394">
        <ele>206.2</ele>
        <time>2022-07-12T15:15:18Z</time>
      </trkpt>
      <trkpt lat="43.56308" lon="1.24409">
        <ele>205.2</ele>
        <time>2022-07-12T15:15:20Z</time>
      </trkpt>
      <trkpt lat="43.56311" lon="1.24417">
        <ele>204.6</ele>
        <time>2022-07-12T15:15:21Z</time>
      </trkpt>
      <trkpt lat="43.56318" lon="1.24432">
        <ele>204.2</ele>
        <time>2022-07-12T15:15:23Z</time>
      </trkpt>
      <trkpt lat="43.56329" lon="1.24455">
        <ele>203.6</ele>
        <time>2022-07-12T15:15:26Z</time>
      </trkpt>
      <trkpt lat="43.56332" lon="1.24465">
        <ele>203.4</ele>
        <time>2022-07-12T15:15:27Z</time>
      </trkpt>
      <trkpt lat="43.56335" lon="1.24475">
        <ele>203</ele>
        <time>2022-07-12T15:15:28Z</time>
      </trkpt>
      <trkpt lat="43.56339" lon="1.24495">
        <ele>202.4</ele>
        <time>2022-07-12T15:15:30Z</time>
      </trkpt>
      <trkpt lat="43.56345" lon="1.24525">
        <ele>202</ele>
        <time>2022-07-12T15:15:33Z</time>
      </trkpt>
      <trkpt lat="43.56345" lon="1.24535">
        <ele>202</ele>
        <time>2022-07-12T15:15:34Z</time>
      </trkpt>
      <trkpt lat="43.56346" lon="1.24545">
        <ele>201.6</ele>
        <time>2022-07-12T15:15:35Z</time>
      </trkpt>
      <trkpt lat="43.56346" lon="1.24556">
        <ele>201.2</ele>
        <time>2022-07-12T15:15:36Z</time>
      </trkpt>
      <trkpt lat="43.56342" lon="1.24575">
        <ele>200.6</ele>
        <time>2022-07-12T15:15:38Z</time>
      </trkpt>
      <trkpt lat="43.56339" lon="1.24584">
        <ele>200.2</ele>
        <time>2022-07-12T15:15:39Z</time>
      </trkpt>
      <trkpt lat="43.56337" lon="1.24592">
        <ele>200.2</ele>
        <time>2022-07-12T15:15:40Z</time>
      </trkpt>
      <trkpt lat="43.56331" lon="1.24614">
        <ele>199.6</ele>
        <time>2022-07-12T15:15:43Z</time>
      </trkpt>
      <trkpt lat="43.56327" lon="1.24629">
        <ele>199.2</ele>
        <time>2022-07-12T15:15:45Z</time>
      </trkpt>
      <trkpt lat="43.56327" lon="1.24647">
        <ele>199</ele>
        <time>2022-07-12T15:15:47Z</time>
      </trkpt>
      <trkpt lat="43.56327" lon="1.24655">
        <ele>199</ele>
        <time>2022-07-12T15:15:48Z</time>
      </trkpt>
      <trkpt lat="43.56332" lon="1.24672">
        <ele>199</ele>
        <time>2022-07-12T15:15:50Z</time>
      </trkpt>
      <trkpt lat="43.56351" lon="1.24723">
        <ele>199</ele>
        <time>2022-07-12T15:15:56Z</time>
      </trkpt>
      <trkpt lat="43.56366" lon="1.24758">
        <ele>198.4</ele>
        <time>2022-07-12T15:16:01Z</time>
      </trkpt>
      <trkpt lat="43.56369" lon="1.24764">
        <ele>198.4</ele>
        <time>2022-07-12T15:16:02Z</time>
      </trkpt>
      <trkpt lat="43.56394" lon="1.248">
        <ele>197.6</ele>
        <time>2022-07-12T15:16:08Z</time>
      </trkpt>
      <trkpt lat="43.56407" lon="1.24822">
        <ele>196.4</ele>
        <time>2022-07-12T15:16:11Z</time>
      </trkpt>
      <trkpt lat="43.56412" lon="1.24829">
        <ele>196.4</ele>
        <time>2022-07-12T15:16:12Z</time>
      </trkpt>
      <trkpt lat="43.56418" lon="1.24835">
        <ele>196.2</ele>
        <time>2022-07-12T15:16:13Z</time>
      </trkpt>
      <trkpt lat="43.56423" lon="1.24839">
        <ele>196</ele>
        <time>2022-07-12T15:16:14Z</time>
      </trkpt>
      <trkpt lat="43.56435" lon="1.24843">
        <ele>195.6</ele>
        <time>2022-07-12T15:16:16Z</time>
      </trkpt>
      <trkpt lat="43.56447" lon="1.24845">
        <ele>195.2</ele>
        <time>2022-07-12T15:16:18Z</time>
      </trkpt>
      <trkpt lat="43.56459" lon="1.24846">
        <ele>194.6</ele>
        <time>2022-07-12T15:16:20Z</time>
      </trkpt>
      <trkpt lat="43.56466" lon="1.24845">
        <ele>194.4</ele>
        <time>2022-07-12T15:16:21Z</time>
      </trkpt>
      <trkpt lat="43.56473" lon="1.24844">
        <ele>194.2</ele>
        <time>2022-07-12T15:16:22Z</time>
      </trkpt>
      <trkpt lat="43.56491" lon="1.24841">
        <ele>193.2</ele>
        <time>2022-07-12T15:16:25Z</time>
      </trkpt>
      <trkpt lat="43.56498" lon="1.24838">
        <ele>193</ele>
        <time>2022-07-12T15:16:26Z</time>
      </trkpt>
      <trkpt lat="43.56504" lon="1.24836">
        <ele>192.8</ele>
        <time>2022-07-12T15:16:27Z</time>
      </trkpt>
      <trkpt lat="43.56532" lon="1.2483">
        <ele>191.6</ele>
        <time>2022-07-12T15:16:32Z</time>
      </trkpt>
      <trkpt lat="43.56537" lon="1.24836">
        <ele>190.8</ele>
        <time>2022-07-12T15:16:34Z</time>
      </trkpt>
      <trkpt lat="43.5654" lon="1.2484">
        <ele>190.6</ele>
        <time>2022-07-12T15:16:35Z</time>
      </trkpt>
      <trkpt lat="43.56559" lon="1.24864">
        <ele>190.2</ele>
        <time>2022-07-12T15:16:40Z</time>
      </trkpt>
      <trkpt lat="43.56578" lon="1.24881">
        <ele>190.2</ele>
        <time>2022-07-12T15:16:44Z</time>
      </trkpt>
      <trkpt lat="43.56587" lon="1.24889">
        <ele>190.4</ele>
        <time>2022-07-12T15:16:46Z</time>
      </trkpt>
      <trkpt lat="43.56599" lon="1.24904">
        <ele>190.4</ele>
        <time>2022-07-12T15:16:49Z</time>
      </trkpt>
      <trkpt lat="43.56606" lon="1.24918">
        <ele>190.4</ele>
        <time>2022-07-12T15:16:51Z</time>
      </trkpt>
      <trkpt lat="43.56613" lon="1.24936">
        <ele>190.2</ele>
        <time>2022-07-12T15:16:54Z</time>
      </trkpt>
      <trkpt lat="43.56621" lon="1.24963">
        <ele>190.2</ele>
        <time>2022-07-12T15:16:58Z</time>
      </trkpt>
      <trkpt lat="43.56636" lon="1.25011">
        <ele>190.4</ele>
        <time>2022-07-12T15:17:05Z</time>
      </trkpt>
      <trkpt lat="43.56652" lon="1.25056">
        <ele>190.8</ele>
        <time>2022-07-12T15:17:12Z</time>
      </trkpt>
      <trkpt lat="43.5666" lon="1.25078">
        <ele>191</ele>
        <time>2022-07-12T15:17:16Z</time>
      </trkpt>
      <trkpt lat="43.56662" lon="1.25084">
        <ele>191.4</ele>
        <time>2022-07-12T15:17:17Z</time>
      </trkpt>
      <trkpt lat="43.56669" lon="1.25108">
        <ele>191.6</ele>
        <time>2022-07-12T15:17:21Z</time>
      </trkpt>
      <trkpt lat="43.56671" lon="1.25114">
        <ele>191.8</ele>
        <time>2022-07-12T15:17:22Z</time>
      </trkpt>
      <trkpt lat="43.56672" lon="1.2512">
        <ele>191.8</ele>
        <time>2022-07-12T15:17:23Z</time>
      </trkpt>
      <trkpt lat="43.56678" lon="1.25139">
        <ele>192.8</ele>
        <time>2022-07-12T15:17:27Z</time>
      </trkpt>
      <trkpt lat="43.56679" lon="1.25143">
        <ele>192.8</ele>
        <time>2022-07-12T15:17:28Z</time>
      </trkpt>
      <trkpt lat="43.56697" lon="1.25186">
        <ele>194</ele>
        <time>2022-07-12T15:17:35Z</time>
      </trkpt>
      <trkpt lat="43.56705" lon="1.25215">
        <ele>194.2</ele>
        <time>2022-07-12T15:17:39Z</time>
      </trkpt>
      <trkpt lat="43.56708" lon="1.25224">
        <ele>194.2</ele>
        <time>2022-07-12T15:17:40Z</time>
      </trkpt>
      <trkpt lat="43.56715" lon="1.2526">
        <ele>195</ele>
        <time>2022-07-12T15:17:44Z</time>
      </trkpt>
      <trkpt lat="43.56724" lon="1.25326">
        <ele>195.4</ele>
        <time>2022-07-12T15:17:51Z</time>
      </trkpt>
      <trkpt lat="43.56734" lon="1.25394">
        <ele>195.4</ele>
        <time>2022-07-12T15:17:58Z</time>
      </trkpt>
      <trkpt lat="43.56746" lon="1.25456">
        <ele>195</ele>
        <time>2022-07-12T15:18:05Z</time>
      </trkpt>
      <trkpt lat="43.56759" lon="1.25527">
        <ele>194.8</ele>
        <time>2022-07-12T15:18:13Z</time>
      </trkpt>
      <trkpt lat="43.56769" lon="1.25605">
        <ele>194.8</ele>
        <time>2022-07-12T15:18:21Z</time>
      </trkpt>
      <trkpt lat="43.56779" lon="1.2568">
        <ele>194.2</ele>
        <time>2022-07-12T15:18:29Z</time>
      </trkpt>
      <trkpt lat="43.56779" lon="1.25698">
        <ele>194.2</ele>
        <time>2022-07-12T15:18:31Z</time>
      </trkpt>
      <trkpt lat="43.56776" lon="1.25715">
        <ele>194</ele>
        <time>2022-07-12T15:18:33Z</time>
      </trkpt>
      <trkpt lat="43.56771" lon="1.25743">
        <ele>193.6</ele>
        <time>2022-07-12T15:18:37Z</time>
      </trkpt>
      <trkpt lat="43.56768" lon="1.25757">
        <ele>193.4</ele>
        <time>2022-07-12T15:18:39Z</time>
      </trkpt>
      <trkpt lat="43.56762" lon="1.25784">
        <ele>193.4</ele>
        <time>2022-07-12T15:18:43Z</time>
      </trkpt>
      <trkpt lat="43.56761" lon="1.258">
        <ele>193.2</ele>
        <time>2022-07-12T15:18:45Z</time>
      </trkpt>
      <trkpt lat="43.56765" lon="1.25856">
        <ele>193.4</ele>
        <time>2022-07-12T15:18:53Z</time>
      </trkpt>
      <trkpt lat="43.5677" lon="1.25891">
        <ele>193.4</ele>
        <time>2022-07-12T15:18:59Z</time>
      </trkpt>
      <trkpt lat="43.56773" lon="1.25921">
        <ele>194</ele>
        <time>2022-07-12T15:19:05Z</time>
      </trkpt>
      <trkpt lat="43.5677" lon="1.25966">
        <ele>195</ele>
        <time>2022-07-12T15:19:13Z</time>
      </trkpt>
      <trkpt lat="43.56767" lon="1.25977">
        <ele>195.4</ele>
        <time>2022-07-12T15:19:15Z</time>
      </trkpt>
      <trkpt lat="43.56765" lon="1.25982">
        <ele>195.6</ele>
        <time>2022-07-12T15:19:16Z</time>
      </trkpt>
      <trkpt lat="43.56762" lon="1.26003">
        <ele>196</ele>
        <time>2022-07-12T15:19:19Z</time>
      </trkpt>
      <trkpt lat="43.56761" lon="1.26017">
        <ele>196.4</ele>
        <time>2022-07-12T15:19:21Z</time>
      </trkpt>
      <trkpt lat="43.5676" lon="1.26032">
        <ele>197</ele>
        <time>2022-07-12T15:19:24Z</time>
      </trkpt>
      <trkpt lat="43.5676" lon="1.26035">
        <ele>197.2</ele>
        <time>2022-07-12T15:19:25Z</time>
      </trkpt>
      <trkpt lat="43.56761" lon="1.26037">
        <ele>197.2</ele>
        <time>2022-07-12T15:19:26Z</time>
      </trkpt>
      <trkpt lat="43.56762" lon="1.26042">
        <ele>197.6</ele>
        <time>2022-07-12T15:19:28Z</time>
      </trkpt>
      <trkpt lat="43.56761" lon="1.26052">
        <ele>198</ele>
        <time>2022-07-12T15:19:30Z</time>
      </trkpt>
      <trkpt lat="43.56765" lon="1.26075">
        <ele>198.8</ele>
        <time>2022-07-12T15:19:35Z</time>
      </trkpt>
      <trkpt lat="43.56765" lon="1.26081">
        <ele>198.8</ele>
        <time>2022-07-12T15:19:36Z</time>
      </trkpt>
      <trkpt lat="43.56767" lon="1.26117">
        <ele>199.4</ele>
        <time>2022-07-12T15:19:43Z</time>
      </trkpt>
      <trkpt lat="43.56768" lon="1.26139">
        <ele>199.8</ele>
        <time>2022-07-12T15:19:47Z</time>
      </trkpt>
      <trkpt lat="43.5677" lon="1.26157">
        <ele>200.2</ele>
        <time>2022-07-12T15:19:50Z</time>
      </trkpt>
      <trkpt lat="43.56769" lon="1.26174">
        <ele>200.8</ele>
        <time>2022-07-12T15:19:53Z</time>
      </trkpt>
      <trkpt lat="43.56766" lon="1.26207">
        <ele>201.4</ele>
        <time>2022-07-12T15:19:58Z</time>
      </trkpt>
      <trkpt lat="43.56764" lon="1.26221">
        <ele>201.8</ele>
        <time>2022-07-12T15:20:00Z</time>
      </trkpt>
      <trkpt lat="43.56758" lon="1.26266">
        <ele>202.6</ele>
        <time>2022-07-12T15:20:06Z</time>
      </trkpt>
      <trkpt lat="43.56756" lon="1.26281">
        <ele>202.8</ele>
        <time>2022-07-12T15:20:08Z</time>
      </trkpt>
      <trkpt lat="43.56755" lon="1.26321">
        <ele>203.2</ele>
        <time>2022-07-12T15:20:13Z</time>
      </trkpt>
      <trkpt lat="43.56755" lon="1.26384">
        <ele>203.6</ele>
        <time>2022-07-12T15:20:21Z</time>
      </trkpt>
      <trkpt lat="43.56756" lon="1.26399">
        <ele>204</ele>
        <time>2022-07-12T15:20:23Z</time>
      </trkpt>
      <trkpt lat="43.56761" lon="1.2645">
        <ele>204.4</ele>
        <time>2022-07-12T15:20:29Z</time>
      </trkpt>
      <trkpt lat="43.56767" lon="1.2652">
        <ele>204.6</ele>
        <time>2022-07-12T15:20:37Z</time>
      </trkpt>
      <trkpt lat="43.56776" lon="1.26596">
        <ele>204.2</ele>
        <time>2022-07-12T15:20:46Z</time>
      </trkpt>
      <trkpt lat="43.56778" lon="1.26603">
        <ele>204.2</ele>
        <time>2022-07-12T15:20:47Z</time>
      </trkpt>
      <trkpt lat="43.5678" lon="1.2661">
        <ele>204.2</ele>
        <time>2022-07-12T15:20:48Z</time>
      </trkpt>
      <trkpt lat="43.56787" lon="1.26618">
        <ele>204.2</ele>
        <time>2022-07-12T15:20:50Z</time>
      </trkpt>
      <trkpt lat="43.56817" lon="1.26633">
        <ele>204</ele>
        <time>2022-07-12T15:20:56Z</time>
      </trkpt>
      <trkpt lat="43.56844" lon="1.26645">
        <ele>203.8</ele>
        <time>2022-07-12T15:21:01Z</time>
      </trkpt>
      <trkpt lat="43.56849" lon="1.26649">
        <ele>203.6</ele>
        <time>2022-07-12T15:21:02Z</time>
      </trkpt>
      <trkpt lat="43.56854" lon="1.26652">
        <ele>203.4</ele>
        <time>2022-07-12T15:21:03Z</time>
      </trkpt>
      <trkpt lat="43.56884" lon="1.2667">
        <ele>202.8</ele>
        <time>2022-07-12T15:21:09Z</time>
      </trkpt>
      <trkpt lat="43.56889" lon="1.26673">
        <ele>202.8</ele>
        <time>2022-07-12T15:21:10Z</time>
      </trkpt>
      <trkpt lat="43.56912" lon="1.26689">
        <ele>202.4</ele>
        <time>2022-07-12T15:21:15Z</time>
      </trkpt>
      <trkpt lat="43.56914" lon="1.26691">
        <ele>202.4</ele>
        <time>2022-07-12T15:21:16Z</time>
      </trkpt>
      <trkpt lat="43.56943" lon="1.26713">
        <ele>202</ele>
        <time>2022-07-12T15:21:23Z</time>
      </trkpt>
      <trkpt lat="43.56948" lon="1.26717">
        <ele>201.8</ele>
        <time>2022-07-12T15:21:24Z</time>
      </trkpt>
      <trkpt lat="43.56968" lon="1.26733">
        <ele>201.8</ele>
        <time>2022-07-12T15:21:28Z</time>
      </trkpt>
      <trkpt lat="43.56993" lon="1.26752">
        <ele>202</ele>
        <time>2022-07-12T15:21:33Z</time>
      </trkpt>
      <trkpt lat="43.57002" lon="1.2676">
        <ele>202</ele>
        <time>2022-07-12T15:21:35Z</time>
      </trkpt>
      <trkpt lat="43.5705" lon="1.26794">
        <ele>202</ele>
        <time>2022-07-12T15:21:44Z</time>
      </trkpt>
      <trkpt lat="43.57073" lon="1.26812">
        <ele>201.8</ele>
        <time>2022-07-12T15:21:49Z</time>
      </trkpt>
      <trkpt lat="43.57101" lon="1.26834">
        <ele>201.4</ele>
        <time>2022-07-12T15:21:56Z</time>
      </trkpt>
      <trkpt lat="43.57106" lon="1.26842">
        <ele>201</ele>
        <time>2022-07-12T15:21:59Z</time>
      </trkpt>
      <trkpt lat="43.57109" lon="1.26847">
        <ele>200.8</ele>
        <time>2022-07-12T15:22:01Z</time>
      </trkpt>
      <trkpt lat="43.57121" lon="1.26858">
        <ele>200.6</ele>
        <time>2022-07-12T15:22:06Z</time>
      </trkpt>
      <trkpt lat="43.57143" lon="1.26875">
        <ele>199.8</ele>
        <time>2022-07-12T15:22:11Z</time>
      </trkpt>
      <trkpt lat="43.5718" lon="1.26901">
        <ele>199</ele>
        <time>2022-07-12T15:22:18Z</time>
      </trkpt>
      <trkpt lat="43.57229" lon="1.26938">
        <ele>199.2</ele>
        <time>2022-07-12T15:22:27Z</time>
      </trkpt>
      <trkpt lat="43.57234" lon="1.26942">
        <ele>199.2</ele>
        <time>2022-07-12T15:22:28Z</time>
      </trkpt>
      <trkpt lat="43.5728" lon="1.26977">
        <ele>199.8</ele>
        <time>2022-07-12T15:22:36Z</time>
      </trkpt>
      <trkpt lat="43.57316" lon="1.27015">
        <ele>200.2</ele>
        <time>2022-07-12T15:22:43Z</time>
      </trkpt>
      <trkpt lat="43.57317" lon="1.2703">
        <ele>200.2</ele>
        <time>2022-07-12T15:22:45Z</time>
      </trkpt>
      <trkpt lat="43.57311" lon="1.27046">
        <ele>200.4</ele>
        <time>2022-07-12T15:22:47Z</time>
      </trkpt>
      <trkpt lat="43.57307" lon="1.27053">
        <ele>200.4</ele>
        <time>2022-07-12T15:22:48Z</time>
      </trkpt>
      <trkpt lat="43.57284" lon="1.27097">
        <ele>200.4</ele>
        <time>2022-07-12T15:22:54Z</time>
      </trkpt>
      <trkpt lat="43.57279" lon="1.27114">
        <ele>200.4</ele>
        <time>2022-07-12T15:22:56Z</time>
      </trkpt>
      <trkpt lat="43.57277" lon="1.27132">
        <ele>200.4</ele>
        <time>2022-07-12T15:22:58Z</time>
      </trkpt>
      <trkpt lat="43.57277" lon="1.27159">
        <ele>200.6</ele>
        <time>2022-07-12T15:23:01Z</time>
      </trkpt>
      <trkpt lat="43.57272" lon="1.27222">
        <ele>200.6</ele>
        <time>2022-07-12T15:23:08Z</time>
      </trkpt>
      <trkpt lat="43.57261" lon="1.27255">
        <ele>200.8</ele>
        <time>2022-07-12T15:23:12Z</time>
      </trkpt>
      <trkpt lat="43.57235" lon="1.27311">
        <ele>200.8</ele>
        <time>2022-07-12T15:23:19Z</time>
      </trkpt>
      <trkpt lat="43.57227" lon="1.27327">
        <ele>201</ele>
        <time>2022-07-12T15:23:21Z</time>
      </trkpt>
      <trkpt lat="43.57222" lon="1.27341">
        <ele>200.6</ele>
        <time>2022-07-12T15:23:23Z</time>
      </trkpt>
      <trkpt lat="43.57221" lon="1.27349">
        <ele>200.6</ele>
        <time>2022-07-12T15:23:24Z</time>
      </trkpt>
      <trkpt lat="43.57225" lon="1.27356">
        <ele>200.6</ele>
        <time>2022-07-12T15:23:25Z</time>
      </trkpt>
      <trkpt lat="43.5723" lon="1.2736">
        <ele>200.6</ele>
        <time>2022-07-12T15:23:26Z</time>
      </trkpt>
      <trkpt lat="43.57273" lon="1.27385">
        <ele>200.6</ele>
        <time>2022-07-12T15:23:33Z</time>
      </trkpt>
      <trkpt lat="43.5733" lon="1.2741">
        <ele>201</ele>
        <time>2022-07-12T15:23:42Z</time>
      </trkpt>
      <trkpt lat="43.57378" lon="1.27427">
        <ele>200.6</ele>
        <time>2022-07-12T15:23:50Z</time>
      </trkpt>
      <trkpt lat="43.57425" lon="1.27449">
        <ele>199.8</ele>
        <time>2022-07-12T15:23:58Z</time>
      </trkpt>
      <trkpt lat="43.57436" lon="1.27454">
        <ele>199.6</ele>
        <time>2022-07-12T15:24:00Z</time>
      </trkpt>
      <trkpt lat="43.57466" lon="1.27467">
        <ele>199.4</ele>
        <time>2022-07-12T15:24:05Z</time>
      </trkpt>
      <trkpt lat="43.57475" lon="1.27475">
        <ele>199.2</ele>
        <time>2022-07-12T15:24:07Z</time>
      </trkpt>
      <trkpt lat="43.57482" lon="1.27486">
        <ele>199.2</ele>
        <time>2022-07-12T15:24:09Z</time>
      </trkpt>
      <trkpt lat="43.57488" lon="1.27491">
        <ele>199</ele>
        <time>2022-07-12T15:24:11Z</time>
      </trkpt>
      <trkpt lat="43.57508" lon="1.27503">
        <ele>199.4</ele>
        <time>2022-07-12T15:24:16Z</time>
      </trkpt>
      <trkpt lat="43.57523" lon="1.27513">
        <ele>199.6</ele>
        <time>2022-07-12T15:24:19Z</time>
      </trkpt>
      <trkpt lat="43.57539" lon="1.27522">
        <ele>199.8</ele>
        <time>2022-07-12T15:24:22Z</time>
      </trkpt>
      <trkpt lat="43.57548" lon="1.2753">
        <ele>200</ele>
        <time>2022-07-12T15:24:24Z</time>
      </trkpt>
      <trkpt lat="43.57558" lon="1.27539">
        <ele>200.2</ele>
        <time>2022-07-12T15:24:26Z</time>
      </trkpt>
      <trkpt lat="43.57562" lon="1.27543">
        <ele>200.2</ele>
        <time>2022-07-12T15:24:27Z</time>
      </trkpt>
      <trkpt lat="43.57566" lon="1.27548">
        <ele>200.4</ele>
        <time>2022-07-12T15:24:28Z</time>
      </trkpt>
      <trkpt lat="43.57575" lon="1.27566">
        <ele>200.4</ele>
        <time>2022-07-12T15:24:31Z</time>
      </trkpt>
      <trkpt lat="43.57585" lon="1.27585">
        <ele>200.6</ele>
        <time>2022-07-12T15:24:34Z</time>
      </trkpt>
      <trkpt lat="43.57591" lon="1.27597">
        <ele>200.6</ele>
        <time>2022-07-12T15:24:36Z</time>
      </trkpt>
      <trkpt lat="43.5759" lon="1.2761">
        <ele>200.6</ele>
        <time>2022-07-12T15:24:38Z</time>
      </trkpt>
      <trkpt lat="43.57588" lon="1.27617">
        <ele>200.4</ele>
        <time>2022-07-12T15:24:39Z</time>
      </trkpt>
      <trkpt lat="43.57579" lon="1.27647">
        <ele>200.4</ele>
        <time>2022-07-12T15:24:43Z</time>
      </trkpt>
      <trkpt lat="43.57578" lon="1.27655">
        <ele>200.4</ele>
        <time>2022-07-12T15:24:44Z</time>
      </trkpt>
      <trkpt lat="43.57579" lon="1.27664">
        <ele>200.6</ele>
        <time>2022-07-12T15:24:45Z</time>
      </trkpt>
      <trkpt lat="43.5758" lon="1.27681">
        <ele>200.6</ele>
        <time>2022-07-12T15:24:47Z</time>
      </trkpt>
      <trkpt lat="43.57578" lon="1.27689">
        <ele>200.6</ele>
        <time>2022-07-12T15:24:48Z</time>
      </trkpt>
      <trkpt lat="43.57557" lon="1.27753">
        <ele>200.6</ele>
        <time>2022-07-12T15:24:56Z</time>
      </trkpt>
      <trkpt lat="43.57556" lon="1.27761">
        <ele>200.6</ele>
        <time>2022-07-12T15:24:57Z</time>
      </trkpt>
      <trkpt lat="43.57558" lon="1.27768">
        <ele>200.4</ele>
        <time>2022-07-12T15:24:58Z</time>
      </trkpt>
      <trkpt lat="43.57562" lon="1.2778">
        <ele>200.2</ele>
        <time>2022-07-12T15:25:00Z</time>
      </trkpt>
      <trkpt lat="43.57562" lon="1.27793">
        <ele>200.2</ele>
        <time>2022-07-12T15:25:02Z</time>
      </trkpt>
      <trkpt lat="43.5756" lon="1.278">
        <ele>200.2</ele>
        <time>2022-07-12T15:25:03Z</time>
      </trkpt>
      <trkpt lat="43.57543" lon="1.27859">
        <ele>199.8</ele>
        <time>2022-07-12T15:25:11Z</time>
      </trkpt>
      <trkpt lat="43.57525" lon="1.27916">
        <ele>199.8</ele>
        <time>2022-07-12T15:25:18Z</time>
      </trkpt>
      <trkpt lat="43.57505" lon="1.27981">
        <ele>199.6</ele>
        <time>2022-07-12T15:25:27Z</time>
      </trkpt>
      <trkpt lat="43.57503" lon="1.27988">
        <ele>199.4</ele>
        <time>2022-07-12T15:25:28Z</time>
      </trkpt>
      <trkpt lat="43.57498" lon="1.28002">
        <ele>199.6</ele>
        <time>2022-07-12T15:25:30Z</time>
      </trkpt>
      <trkpt lat="43.57496" lon="1.2801">
        <ele>199.6</ele>
        <time>2022-07-12T15:25:31Z</time>
      </trkpt>
      <trkpt lat="43.57478" lon="1.28071">
        <ele>199.6</ele>
        <time>2022-07-12T15:25:39Z</time>
      </trkpt>
      <trkpt lat="43.57473" lon="1.28083">
        <ele>199.4</ele>
        <time>2022-07-12T15:25:42Z</time>
      </trkpt>
      <trkpt lat="43.57473" lon="1.28087">
        <ele>198.8</ele>
        <time>2022-07-12T15:25:45Z</time>
      </trkpt>
      <trkpt lat="43.57474" lon="1.28089">
        <ele>198.8</ele>
        <time>2022-07-12T15:25:46Z</time>
      </trkpt>
      <trkpt lat="43.57477" lon="1.28093">
        <ele>198.6</ele>
        <time>2022-07-12T15:25:48Z</time>
      </trkpt>
      <trkpt lat="43.5748" lon="1.28101">
        <ele>198.6</ele>
        <time>2022-07-12T15:25:50Z</time>
      </trkpt>
      <trkpt lat="43.57487" lon="1.28109">
        <ele>198.4</ele>
        <time>2022-07-12T15:25:52Z</time>
      </trkpt>
      <trkpt lat="43.57495" lon="1.28115">
        <ele>198.4</ele>
        <time>2022-07-12T15:25:54Z</time>
      </trkpt>
      <trkpt lat="43.57499" lon="1.28117">
        <ele>198.4</ele>
        <time>2022-07-12T15:25:55Z</time>
      </trkpt>
      <trkpt lat="43.57522" lon="1.2813">
        <ele>198</ele>
        <time>2022-07-12T15:26:00Z</time>
      </trkpt>
      <trkpt lat="43.57553" lon="1.28153">
        <ele>198</ele>
        <time>2022-07-12T15:26:06Z</time>
      </trkpt>
      <trkpt lat="43.57591" lon="1.2818">
        <ele>198.2</ele>
        <time>2022-07-12T15:26:13Z</time>
      </trkpt>
      <trkpt lat="43.57624" lon="1.28203">
        <ele>198.4</ele>
        <time>2022-07-12T15:26:19Z</time>
      </trkpt>
      <trkpt lat="43.57673" lon="1.2824">
        <ele>198.8</ele>
        <time>2022-07-12T15:26:28Z</time>
      </trkpt>
      <trkpt lat="43.57679" lon="1.28244">
        <ele>199</ele>
        <time>2022-07-12T15:26:29Z</time>
      </trkpt>
      <trkpt lat="43.57707" lon="1.28264">
        <ele>199.2</ele>
        <time>2022-07-12T15:26:34Z</time>
      </trkpt>
      <trkpt lat="43.57722" lon="1.28282">
        <ele>199.4</ele>
        <time>2022-07-12T15:26:37Z</time>
      </trkpt>
      <trkpt lat="43.57747" lon="1.28316">
        <ele>199</ele>
        <time>2022-07-12T15:26:42Z</time>
      </trkpt>
      <trkpt lat="43.57752" lon="1.28321">
        <ele>199</ele>
        <time>2022-07-12T15:26:43Z</time>
      </trkpt>
      <trkpt lat="43.57792" lon="1.28351">
        <ele>199.2</ele>
        <time>2022-07-12T15:26:50Z</time>
      </trkpt>
      <trkpt lat="43.57833" lon="1.28379">
        <ele>199</ele>
        <time>2022-07-12T15:26:57Z</time>
      </trkpt>
      <trkpt lat="43.57838" lon="1.28378">
        <ele>199</ele>
        <time>2022-07-12T15:26:58Z</time>
      </trkpt>
      <trkpt lat="43.57843" lon="1.28374">
        <ele>199</ele>
        <time>2022-07-12T15:26:59Z</time>
      </trkpt>
      <trkpt lat="43.57853" lon="1.28362">
        <ele>199</ele>
        <time>2022-07-12T15:27:01Z</time>
      </trkpt>
      <trkpt lat="43.57876" lon="1.28332">
        <ele>198.8</ele>
        <time>2022-07-12T15:27:06Z</time>
      </trkpt>
      <trkpt lat="43.57882" lon="1.28328">
        <ele>198.8</ele>
        <time>2022-07-12T15:27:07Z</time>
      </trkpt>
      <trkpt lat="43.57887" lon="1.28326">
        <ele>198.8</ele>
        <time>2022-07-12T15:27:08Z</time>
      </trkpt>
      <trkpt lat="43.57899" lon="1.28329">
        <ele>198.4</ele>
        <time>2022-07-12T15:27:10Z</time>
      </trkpt>
      <trkpt lat="43.57904" lon="1.28343">
        <ele>198.2</ele>
        <time>2022-07-12T15:27:12Z</time>
      </trkpt>
      <trkpt lat="43.57906" lon="1.28351">
        <ele>198.2</ele>
        <time>2022-07-12T15:27:13Z</time>
      </trkpt>
      <trkpt lat="43.57912" lon="1.2841">
        <ele>198.2</ele>
        <time>2022-07-12T15:27:20Z</time>
      </trkpt>
      <trkpt lat="43.57918" lon="1.28475">
        <ele>198.4</ele>
        <time>2022-07-12T15:27:27Z</time>
      </trkpt>
      <trkpt lat="43.57926" lon="1.28529">
        <ele>198.6</ele>
        <time>2022-07-12T15:27:34Z</time>
      </trkpt>
      <trkpt lat="43.57926" lon="1.28533">
        <ele>198.8</ele>
        <time>2022-07-12T15:27:37Z</time>
      </trkpt>
      <trkpt lat="43.57929" lon="1.28545">
        <ele>199</ele>
        <time>2022-07-12T15:27:43Z</time>
      </trkpt>
      <trkpt lat="43.57941" lon="1.28561">
        <ele>198.8</ele>
        <time>2022-07-12T15:27:47Z</time>
      </trkpt>
      <trkpt lat="43.57968" lon="1.28604">
        <ele>197.4</ele>
        <time>2022-07-12T15:27:56Z</time>
      </trkpt>
      <trkpt lat="43.57971" lon="1.28609">
        <ele>197.4</ele>
        <time>2022-07-12T15:27:57Z</time>
      </trkpt>
      <trkpt lat="43.57988" lon="1.28638">
        <ele>197</ele>
        <time>2022-07-12T15:28:02Z</time>
      </trkpt>
      <trkpt lat="43.58015" lon="1.28685">
        <ele>196.6</ele>
        <time>2022-07-12T15:28:09Z</time>
      </trkpt>
      <trkpt lat="43.58026" lon="1.28707">
        <ele>196.4</ele>
        <time>2022-07-12T15:28:12Z</time>
      </trkpt>
      <trkpt lat="43.5803" lon="1.28714">
        <ele>196.4</ele>
        <time>2022-07-12T15:28:13Z</time>
      </trkpt>
      <trkpt lat="43.58043" lon="1.28744">
        <ele>196.2</ele>
        <time>2022-07-12T15:28:17Z</time>
      </trkpt>
      <trkpt lat="43.58061" lon="1.28804">
        <ele>196.2</ele>
        <time>2022-07-12T15:28:24Z</time>
      </trkpt>
      <trkpt lat="43.58069" lon="1.28871">
        <ele>196.4</ele>
        <time>2022-07-12T15:28:32Z</time>
      </trkpt>
      <trkpt lat="43.58077" lon="1.28944">
        <ele>197</ele>
        <time>2022-07-12T15:28:41Z</time>
      </trkpt>
      <trkpt lat="43.58081" lon="1.28985">
        <ele>197.4</ele>
        <time>2022-07-12T15:28:47Z</time>
      </trkpt>
      <trkpt lat="43.58081" lon="1.28991">
        <ele>197.4</ele>
        <time>2022-07-12T15:28:48Z</time>
      </trkpt>
      <trkpt lat="43.58081" lon="1.28995">
        <ele>197.4</ele>
        <time>2022-07-12T15:28:49Z</time>
      </trkpt>
      <trkpt lat="43.58081" lon="1.29001">
        <ele>197.6</ele>
        <time>2022-07-12T15:28:51Z</time>
      </trkpt>
      <trkpt lat="43.58079" lon="1.29005">
        <ele>197.4</ele>
        <time>2022-07-12T15:28:56Z</time>
      </trkpt>
      <trkpt lat="43.58079" lon="1.29007">
        <ele>197.4</ele>
        <time>2022-07-12T15:28:57Z</time>
      </trkpt>
      <trkpt lat="43.58084" lon="1.29019">
        <ele>197.4</ele>
        <time>2022-07-12T15:29:00Z</time>
      </trkpt>
      <trkpt lat="43.58087" lon="1.2903">
        <ele>197.2</ele>
        <time>2022-07-12T15:29:02Z</time>
      </trkpt>
      <trkpt lat="43.58088" lon="1.29043">
        <ele>197.2</ele>
        <time>2022-07-12T15:29:04Z</time>
      </trkpt>
      <trkpt lat="43.58092" lon="1.29094">
        <ele>197.2</ele>
        <time>2022-07-12T15:29:11Z</time>
      </trkpt>
      <trkpt lat="43.58093" lon="1.29102">
        <ele>197.4</ele>
        <time>2022-07-12T15:29:12Z</time>
      </trkpt>
      <trkpt lat="43.5809" lon="1.29117">
        <ele>197.6</ele>
        <time>2022-07-12T15:29:14Z</time>
      </trkpt>
      <trkpt lat="43.58088" lon="1.29124">
        <ele>197.6</ele>
        <time>2022-07-12T15:29:15Z</time>
      </trkpt>
      <trkpt lat="43.58063" lon="1.29172">
        <ele>197.8</ele>
        <time>2022-07-12T15:29:22Z</time>
      </trkpt>
      <trkpt lat="43.58029" lon="1.29236">
        <ele>198</ele>
        <time>2022-07-12T15:29:31Z</time>
      </trkpt>
      <trkpt lat="43.58025" lon="1.29243">
        <ele>198</ele>
        <time>2022-07-12T15:29:32Z</time>
      </trkpt>
      <trkpt lat="43.57997" lon="1.29297">
        <ele>198.6</ele>
        <time>2022-07-12T15:29:39Z</time>
      </trkpt>
      <trkpt lat="43.57993" lon="1.29305">
        <ele>198.8</ele>
        <time>2022-07-12T15:29:40Z</time>
      </trkpt>
      <trkpt lat="43.57961" lon="1.29366">
        <ele>199.2</ele>
        <time>2022-07-12T15:29:48Z</time>
      </trkpt>
      <trkpt lat="43.57953" lon="1.29381">
        <ele>199.2</ele>
        <time>2022-07-12T15:29:50Z</time>
      </trkpt>
      <trkpt lat="43.57937" lon="1.29418">
        <ele>199.4</ele>
        <time>2022-07-12T15:29:55Z</time>
      </trkpt>
      <trkpt lat="43.5793" lon="1.29448">
        <ele>199.2</ele>
        <time>2022-07-12T15:29:59Z</time>
      </trkpt>
      <trkpt lat="43.57922" lon="1.29455">
        <ele>199.2</ele>
        <time>2022-07-12T15:30:01Z</time>
      </trkpt>
      <trkpt lat="43.57917" lon="1.29455">
        <ele>199</ele>
        <time>2022-07-12T15:30:02Z</time>
      </trkpt>
      <trkpt lat="43.57913" lon="1.29453">
        <ele>199</ele>
        <time>2022-07-12T15:30:03Z</time>
      </trkpt>
      <trkpt lat="43.57903" lon="1.29445">
        <ele>198.8</ele>
        <time>2022-07-12T15:30:05Z</time>
      </trkpt>
      <trkpt lat="43.57878" lon="1.29424">
        <ele>197.6</ele>
        <time>2022-07-12T15:30:10Z</time>
      </trkpt>
      <trkpt lat="43.57862" lon="1.29412">
        <ele>197.4</ele>
        <time>2022-07-12T15:30:13Z</time>
      </trkpt>
      <trkpt lat="43.57851" lon="1.29404">
        <ele>197.2</ele>
        <time>2022-07-12T15:30:15Z</time>
      </trkpt>
      <trkpt lat="43.57837" lon="1.29387">
        <ele>197.2</ele>
        <time>2022-07-12T15:30:18Z</time>
      </trkpt>
      <trkpt lat="43.57806" lon="1.2936">
        <ele>196.8</ele>
        <time>2022-07-12T15:30:24Z</time>
      </trkpt>
      <trkpt lat="43.57759" lon="1.29325">
        <ele>196.6</ele>
        <time>2022-07-12T15:30:33Z</time>
      </trkpt>
      <trkpt lat="43.57748" lon="1.29324">
        <ele>196.4</ele>
        <time>2022-07-12T15:30:35Z</time>
      </trkpt>
      <trkpt lat="43.57744" lon="1.29327">
        <ele>196.4</ele>
        <time>2022-07-12T15:30:36Z</time>
      </trkpt>
      <trkpt lat="43.57741" lon="1.29333">
        <ele>196.4</ele>
        <time>2022-07-12T15:30:37Z</time>
      </trkpt>
      <trkpt lat="43.57733" lon="1.29353">
        <ele>196.2</ele>
        <time>2022-07-12T15:30:40Z</time>
      </trkpt>
      <trkpt lat="43.57722" lon="1.29382">
        <ele>195.4</ele>
        <time>2022-07-12T15:30:44Z</time>
      </trkpt>
      <trkpt lat="43.57716" lon="1.29404">
        <ele>195.2</ele>
        <time>2022-07-12T15:30:47Z</time>
      </trkpt>
      <trkpt lat="43.57695" lon="1.29466">
        <ele>194.4</ele>
        <time>2022-07-12T15:30:55Z</time>
      </trkpt>
      <trkpt lat="43.57692" lon="1.29474">
        <ele>194.4</ele>
        <time>2022-07-12T15:30:56Z</time>
      </trkpt>
      <trkpt lat="43.5769" lon="1.29481">
        <ele>194.2</ele>
        <time>2022-07-12T15:30:57Z</time>
      </trkpt>
      <trkpt lat="43.57685" lon="1.295">
        <ele>194</ele>
        <time>2022-07-12T15:31:00Z</time>
      </trkpt>
      <trkpt lat="43.57671" lon="1.29556">
        <ele>193.6</ele>
        <time>2022-07-12T15:31:08Z</time>
      </trkpt>
      <trkpt lat="43.57668" lon="1.29569">
        <ele>193.6</ele>
        <time>2022-07-12T15:31:10Z</time>
      </trkpt>
      <trkpt lat="43.57669" lon="1.29576">
        <ele>193.6</ele>
        <time>2022-07-12T15:31:12Z</time>
      </trkpt>
      <trkpt lat="43.5769" lon="1.2959">
        <ele>193.8</ele>
        <time>2022-07-12T15:31:18Z</time>
      </trkpt>
      <trkpt lat="43.57712" lon="1.29607">
        <ele>194</ele>
        <time>2022-07-12T15:31:24Z</time>
      </trkpt>
      <trkpt lat="43.57711" lon="1.29621">
        <ele>194.2</ele>
        <time>2022-07-12T15:31:27Z</time>
      </trkpt>
      <trkpt lat="43.57701" lon="1.29651">
        <ele>194.6</ele>
        <time>2022-07-12T15:31:32Z</time>
      </trkpt>
      <trkpt lat="43.57698" lon="1.29657">
        <ele>194.6</ele>
        <time>2022-07-12T15:31:33Z</time>
      </trkpt>
      <trkpt lat="43.57691" lon="1.29669">
        <ele>194.8</ele>
        <time>2022-07-12T15:31:35Z</time>
      </trkpt>
      <trkpt lat="43.57687" lon="1.29677">
        <ele>195</ele>
        <time>2022-07-12T15:31:36Z</time>
      </trkpt>
      <trkpt lat="43.57684" lon="1.29685">
        <ele>195.2</ele>
        <time>2022-07-12T15:31:37Z</time>
      </trkpt>
      <trkpt lat="43.57679" lon="1.29702">
        <ele>195.2</ele>
        <time>2022-07-12T15:31:39Z</time>
      </trkpt>
      <trkpt lat="43.57677" lon="1.2972">
        <ele>195.2</ele>
        <time>2022-07-12T15:31:41Z</time>
      </trkpt>
      <trkpt lat="43.5768" lon="1.29731">
        <ele>194.8</ele>
        <time>2022-07-12T15:31:43Z</time>
      </trkpt>
      <trkpt lat="43.57691" lon="1.2974">
        <ele>194.6</ele>
        <time>2022-07-12T15:31:47Z</time>
      </trkpt>
      <trkpt lat="43.57693" lon="1.29744">
        <ele>194.4</ele>
        <time>2022-07-12T15:31:49Z</time>
      </trkpt>
      <trkpt lat="43.57691" lon="1.29748">
        <ele>194.6</ele>
        <time>2022-07-12T15:31:51Z</time>
      </trkpt>
      <trkpt lat="43.57683" lon="1.29759">
        <ele>194.6</ele>
        <time>2022-07-12T15:31:54Z</time>
      </trkpt>
      <trkpt lat="43.57679" lon="1.29765">
        <ele>194.8</ele>
        <time>2022-07-12T15:31:55Z</time>
      </trkpt>
      <trkpt lat="43.57675" lon="1.29771">
        <ele>194.8</ele>
        <time>2022-07-12T15:31:56Z</time>
      </trkpt>
      <trkpt lat="43.5766" lon="1.29797">
        <ele>194.8</ele>
        <time>2022-07-12T15:31:59Z</time>
      </trkpt>
      <trkpt lat="43.57655" lon="1.29806">
        <ele>194.8</ele>
        <time>2022-07-12T15:32:00Z</time>
      </trkpt>
      <trkpt lat="43.57636" lon="1.29849">
        <ele>193.8</ele>
        <time>2022-07-12T15:32:04Z</time>
      </trkpt>
      <trkpt lat="43.5763" lon="1.29866">
        <ele>193.4</ele>
        <time>2022-07-12T15:32:06Z</time>
      </trkpt>
      <trkpt lat="43.57628" lon="1.29873">
        <ele>193.2</ele>
        <time>2022-07-12T15:32:07Z</time>
      </trkpt>
      <trkpt lat="43.57627" lon="1.29878">
        <ele>193.2</ele>
        <time>2022-07-12T15:32:08Z</time>
      </trkpt>
      <trkpt lat="43.57629" lon="1.29884">
        <ele>192.2</ele>
        <time>2022-07-12T15:32:10Z</time>
      </trkpt>
      <trkpt lat="43.5763" lon="1.29887">
        <ele>192</ele>
        <time>2022-07-12T15:32:11Z</time>
      </trkpt>
      <trkpt lat="43.57631" lon="1.299">
        <ele>190.8</ele>
        <time>2022-07-12T15:32:14Z</time>
      </trkpt>
      <trkpt lat="43.57635" lon="1.29909">
        <ele>190.2</ele>
        <time>2022-07-12T15:32:16Z</time>
      </trkpt>
      <trkpt lat="43.57638" lon="1.29916">
        <ele>189.6</ele>
        <time>2022-07-12T15:32:18Z</time>
      </trkpt>
      <trkpt lat="43.5764" lon="1.29922">
        <ele>188.8</ele>
        <time>2022-07-12T15:32:20Z</time>
      </trkpt>
      <trkpt lat="43.57642" lon="1.29924">
        <ele>188.6</ele>
        <time>2022-07-12T15:32:21Z</time>
      </trkpt>
      <trkpt lat="43.57645" lon="1.29926">
        <ele>188.4</ele>
        <time>2022-07-12T15:32:22Z</time>
      </trkpt>
      <trkpt lat="43.57647" lon="1.29929">
        <ele>188.4</ele>
        <time>2022-07-12T15:32:23Z</time>
      </trkpt>
      <trkpt lat="43.57646" lon="1.29936">
        <ele>188.4</ele>
        <time>2022-07-12T15:32:25Z</time>
      </trkpt>
      <trkpt lat="43.57645" lon="1.29958">
        <ele>187.8</ele>
        <time>2022-07-12T15:32:29Z</time>
      </trkpt>
      <trkpt lat="43.57643" lon="1.29962">
        <ele>187.4</ele>
        <time>2022-07-12T15:32:30Z</time>
      </trkpt>
      <trkpt lat="43.57638" lon="1.29978">
        <ele>186.4</ele>
        <time>2022-07-12T15:32:33Z</time>
      </trkpt>
      <trkpt lat="43.57644" lon="1.29988">
        <ele>185.8</ele>
        <time>2022-07-12T15:32:35Z</time>
      </trkpt>
      <trkpt lat="43.57664" lon="1.30005">
        <ele>185.6</ele>
        <time>2022-07-12T15:32:40Z</time>
      </trkpt>
      <trkpt lat="43.57673" lon="1.30016">
        <ele>185.4</ele>
        <time>2022-07-12T15:32:43Z</time>
      </trkpt>
      <trkpt lat="43.57674" lon="1.3002">
        <ele>185.2</ele>
        <time>2022-07-12T15:32:44Z</time>
      </trkpt>
      <trkpt lat="43.57674" lon="1.30025">
        <ele>185.2</ele>
        <time>2022-07-12T15:32:45Z</time>
      </trkpt>
      <trkpt lat="43.57672" lon="1.30037">
        <ele>184.4</ele>
        <time>2022-07-12T15:32:47Z</time>
      </trkpt>
      <trkpt lat="43.5767" lon="1.30046">
        <ele>184.2</ele>
        <time>2022-07-12T15:32:49Z</time>
      </trkpt>
      <trkpt lat="43.57671" lon="1.3005">
        <ele>184.2</ele>
        <time>2022-07-12T15:32:50Z</time>
      </trkpt>
      <trkpt lat="43.57675" lon="1.30053">
        <ele>184</ele>
        <time>2022-07-12T15:32:51Z</time>
      </trkpt>
      <trkpt lat="43.57677" lon="1.30058">
        <ele>183.8</ele>
        <time>2022-07-12T15:32:52Z</time>
      </trkpt>
      <trkpt lat="43.57675" lon="1.30066">
        <ele>183.4</ele>
        <time>2022-07-12T15:32:54Z</time>
      </trkpt>
      <trkpt lat="43.57667" lon="1.30074">
        <ele>183</ele>
        <time>2022-07-12T15:32:56Z</time>
      </trkpt>
      <trkpt lat="43.57662" lon="1.30084">
        <ele>182.6</ele>
        <time>2022-07-12T15:32:58Z</time>
      </trkpt>
      <trkpt lat="43.5766" lon="1.3009">
        <ele>182.4</ele>
        <time>2022-07-12T15:32:59Z</time>
      </trkpt>
      <trkpt lat="43.57651" lon="1.30111">
        <ele>182.2</ele>
        <time>2022-07-12T15:33:02Z</time>
      </trkpt>
      <trkpt lat="43.57647" lon="1.30117">
        <ele>181.6</ele>
        <time>2022-07-12T15:33:03Z</time>
      </trkpt>
      <trkpt lat="43.57629" lon="1.30148">
        <ele>181.2</ele>
        <time>2022-07-12T15:33:08Z</time>
      </trkpt>
      <trkpt lat="43.57625" lon="1.30154">
        <ele>180.6</ele>
        <time>2022-07-12T15:33:09Z</time>
      </trkpt>
      <trkpt lat="43.57615" lon="1.30172">
        <ele>180.2</ele>
        <time>2022-07-12T15:33:12Z</time>
      </trkpt>
      <trkpt lat="43.57606" lon="1.3018">
        <ele>179.4</ele>
        <time>2022-07-12T15:33:14Z</time>
      </trkpt>
      <trkpt lat="43.576" lon="1.30184">
        <ele>179</ele>
        <time>2022-07-12T15:33:16Z</time>
      </trkpt>
      <trkpt lat="43.57598" lon="1.30186">
        <ele>179</ele>
        <time>2022-07-12T15:33:17Z</time>
      </trkpt>
      <trkpt lat="43.57597" lon="1.30186">
        <ele>178.6</ele>
        <time>2022-07-12T15:33:18Z</time>
      </trkpt>
      <trkpt lat="43.57594" lon="1.30186">
        <ele>178.4</ele>
        <time>2022-07-12T15:33:19Z</time>
      </trkpt>
      <trkpt lat="43.5759" lon="1.30186">
        <ele>177.8</ele>
        <time>2022-07-12T15:33:21Z</time>
      </trkpt>
      <trkpt lat="43.57587" lon="1.30191">
        <ele>177</ele>
        <time>2022-07-12T15:33:23Z</time>
      </trkpt>
      <trkpt lat="43.57587" lon="1.30194">
        <ele>176.8</ele>
        <time>2022-07-12T15:33:24Z</time>
      </trkpt>
      <trkpt lat="43.57587" lon="1.30201">
        <ele>176.6</ele>
        <time>2022-07-12T15:33:26Z</time>
      </trkpt>
      <trkpt lat="43.57584" lon="1.30208">
        <ele>176.4</ele>
        <time>2022-07-12T15:33:28Z</time>
      </trkpt>
      <trkpt lat="43.57578" lon="1.30224">
        <ele>176.4</ele>
        <time>2022-07-12T15:33:32Z</time>
      </trkpt>
      <trkpt lat="43.57577" lon="1.30239">
        <ele>176.4</ele>
        <time>2022-07-12T15:33:35Z</time>
      </trkpt>
      <trkpt lat="43.57575" lon="1.30244">
        <ele>176.4</ele>
        <time>2022-07-12T15:33:36Z</time>
      </trkpt>
      <trkpt lat="43.57572" lon="1.3025">
        <ele>176.4</ele>
        <time>2022-07-12T15:33:37Z</time>
      </trkpt>
      <trkpt lat="43.57564" lon="1.30266">
        <ele>175.8</ele>
        <time>2022-07-12T15:33:40Z</time>
      </trkpt>
      <trkpt lat="43.5756" lon="1.30272">
        <ele>175.6</ele>
        <time>2022-07-12T15:33:41Z</time>
      </trkpt>
      <trkpt lat="43.57535" lon="1.30313">
        <ele>175</ele>
        <time>2022-07-12T15:33:48Z</time>
      </trkpt>
      <trkpt lat="43.57507" lon="1.30363">
        <ele>175.2</ele>
        <time>2022-07-12T15:33:56Z</time>
      </trkpt>
      <trkpt lat="43.57511" lon="1.30374">
        <ele>175.2</ele>
        <time>2022-07-12T15:33:58Z</time>
      </trkpt>
      <trkpt lat="43.5752" lon="1.30389">
        <ele>175.4</ele>
        <time>2022-07-12T15:34:01Z</time>
      </trkpt>
      <trkpt lat="43.5752" lon="1.30403">
        <ele>174.8</ele>
        <time>2022-07-12T15:34:03Z</time>
      </trkpt>
      <trkpt lat="43.57506" lon="1.30435">
        <ele>173.6</ele>
        <time>2022-07-12T15:34:08Z</time>
      </trkpt>
      <trkpt lat="43.57485" lon="1.30474">
        <ele>172.8</ele>
        <time>2022-07-12T15:34:14Z</time>
      </trkpt>
      <trkpt lat="43.57475" lon="1.30493">
        <ele>172.6</ele>
        <time>2022-07-12T15:34:17Z</time>
      </trkpt>
      <trkpt lat="43.57465" lon="1.3051">
        <ele>172.4</ele>
        <time>2022-07-12T15:34:20Z</time>
      </trkpt>
      <trkpt lat="43.57441" lon="1.3055">
        <ele>172.4</ele>
        <time>2022-07-12T15:34:27Z</time>
      </trkpt>
      <trkpt lat="43.57434" lon="1.30551">
        <ele>172.2</ele>
        <time>2022-07-12T15:34:29Z</time>
      </trkpt>
      <trkpt lat="43.57431" lon="1.30548">
        <ele>172</ele>
        <time>2022-07-12T15:34:30Z</time>
      </trkpt>
      <trkpt lat="43.57422" lon="1.30541">
        <ele>171.6</ele>
        <time>2022-07-12T15:34:33Z</time>
      </trkpt>
      <trkpt lat="43.5742" lon="1.30542">
        <ele>171.4</ele>
        <time>2022-07-12T15:34:34Z</time>
      </trkpt>
      <trkpt lat="43.57424" lon="1.3055">
        <ele>171.2</ele>
        <time>2022-07-12T15:34:37Z</time>
      </trkpt>
      <trkpt lat="43.57444" lon="1.30574">
        <ele>171</ele>
        <time>2022-07-12T15:34:43Z</time>
      </trkpt>
      <trkpt lat="43.5747" lon="1.30601">
        <ele>171.2</ele>
        <time>2022-07-12T15:34:49Z</time>
      </trkpt>
      <trkpt lat="43.57506" lon="1.30637">
        <ele>172.2</ele>
        <time>2022-07-12T15:34:57Z</time>
      </trkpt>
      <trkpt lat="43.57525" lon="1.30655">
        <ele>172.6</ele>
        <time>2022-07-12T15:35:01Z</time>
      </trkpt>
      <trkpt lat="43.57538" lon="1.30671">
        <ele>172.4</ele>
        <time>2022-07-12T15:35:04Z</time>
      </trkpt>
      <trkpt lat="43.57576" lon="1.3072">
        <ele>172.4</ele>
        <time>2022-07-12T15:35:13Z</time>
      </trkpt>
      <trkpt lat="43.57616" lon="1.30771">
        <ele>172.8</ele>
        <time>2022-07-12T15:35:22Z</time>
      </trkpt>
      <trkpt lat="43.57626" lon="1.30783">
        <ele>172.8</ele>
        <time>2022-07-12T15:35:24Z</time>
      </trkpt>
      <trkpt lat="43.5767" lon="1.30838">
        <ele>173.4</ele>
        <time>2022-07-12T15:35:34Z</time>
      </trkpt>
      <trkpt lat="43.57698" lon="1.30867">
        <ele>173.6</ele>
        <time>2022-07-12T15:35:40Z</time>
      </trkpt>
      <trkpt lat="43.57732" lon="1.30902">
        <ele>174</ele>
        <time>2022-07-12T15:35:47Z</time>
      </trkpt>
      <trkpt lat="43.57777" lon="1.30949">
        <ele>174.6</ele>
        <time>2022-07-12T15:35:56Z</time>
      </trkpt>
      <trkpt lat="43.57782" lon="1.30954">
        <ele>174.6</ele>
        <time>2022-07-12T15:35:57Z</time>
      </trkpt>
      <trkpt lat="43.57827" lon="1.31003">
        <ele>174.4</ele>
        <time>2022-07-12T15:36:06Z</time>
      </trkpt>
      <trkpt lat="43.57838" lon="1.31013">
        <ele>174.2</ele>
        <time>2022-07-12T15:36:08Z</time>
      </trkpt>
      <trkpt lat="43.57883" lon="1.31059">
        <ele>174.2</ele>
        <time>2022-07-12T15:36:17Z</time>
      </trkpt>
      <trkpt lat="43.57888" lon="1.31064">
        <ele>174.2</ele>
        <time>2022-07-12T15:36:18Z</time>
      </trkpt>
      <trkpt lat="43.57933" lon="1.3111">
        <ele>174.4</ele>
        <time>2022-07-12T15:36:27Z</time>
      </trkpt>
      <trkpt lat="43.57938" lon="1.31116">
        <ele>174.4</ele>
        <time>2022-07-12T15:36:28Z</time>
      </trkpt>
      <trkpt lat="43.57982" lon="1.31165">
        <ele>174.8</ele>
        <time>2022-07-12T15:36:37Z</time>
      </trkpt>
      <trkpt lat="43.57995" lon="1.31182">
        <ele>174.8</ele>
        <time>2022-07-12T15:36:40Z</time>
      </trkpt>
      <trkpt lat="43.58026" lon="1.3122">
        <ele>174.6</ele>
        <time>2022-07-12T15:36:47Z</time>
      </trkpt>
      <trkpt lat="43.58034" lon="1.31234">
        <ele>174.4</ele>
        <time>2022-07-12T15:36:49Z</time>
      </trkpt>
      <trkpt lat="43.58042" lon="1.31245">
        <ele>174.2</ele>
        <time>2022-07-12T15:36:51Z</time>
      </trkpt>
      <trkpt lat="43.58056" lon="1.31261">
        <ele>174</ele>
        <time>2022-07-12T15:36:54Z</time>
      </trkpt>
      <trkpt lat="43.5806" lon="1.31267">
        <ele>173.8</ele>
        <time>2022-07-12T15:36:55Z</time>
      </trkpt>
      <trkpt lat="43.58092" lon="1.31312">
        <ele>173.6</ele>
        <time>2022-07-12T15:37:03Z</time>
      </trkpt>
      <trkpt lat="43.58128" lon="1.31361">
        <ele>173.4</ele>
        <time>2022-07-12T15:37:12Z</time>
      </trkpt>
      <trkpt lat="43.58168" lon="1.31418">
        <ele>173.2</ele>
        <time>2022-07-12T15:37:22Z</time>
      </trkpt>
      <trkpt lat="43.58171" lon="1.31422">
        <ele>173.2</ele>
        <time>2022-07-12T15:37:23Z</time>
      </trkpt>
      <trkpt lat="43.58201" lon="1.31462">
        <ele>173.2</ele>
        <time>2022-07-12T15:37:31Z</time>
      </trkpt>
      <trkpt lat="43.58225" lon="1.31492">
        <ele>173.8</ele>
        <time>2022-07-12T15:37:38Z</time>
      </trkpt>
      <trkpt lat="43.58228" lon="1.31496">
        <ele>174</ele>
        <time>2022-07-12T15:37:39Z</time>
      </trkpt>
      <trkpt lat="43.58232" lon="1.31499">
        <ele>174.2</ele>
        <time>2022-07-12T15:37:40Z</time>
      </trkpt>
      <trkpt lat="43.58246" lon="1.31508">
        <ele>175</ele>
        <time>2022-07-12T15:37:44Z</time>
      </trkpt>
      <trkpt lat="43.58248" lon="1.31509">
        <ele>175</ele>
        <time>2022-07-12T15:37:45Z</time>
      </trkpt>
      <trkpt lat="43.58266" lon="1.31526">
        <ele>176</ele>
        <time>2022-07-12T15:37:51Z</time>
      </trkpt>
      <trkpt lat="43.58281" lon="1.31539">
        <ele>177.4</ele>
        <time>2022-07-12T15:37:56Z</time>
      </trkpt>
      <trkpt lat="43.58294" lon="1.31551">
        <ele>178.4</ele>
        <time>2022-07-12T15:38:01Z</time>
      </trkpt>
      <trkpt lat="43.58299" lon="1.31556">
        <ele>178.6</ele>
        <time>2022-07-12T15:38:03Z</time>
      </trkpt>
      <trkpt lat="43.5831" lon="1.31566">
        <ele>179.4</ele>
        <time>2022-07-12T15:38:08Z</time>
      </trkpt>
      <trkpt lat="43.58312" lon="1.31566">
        <ele>179.6</ele>
        <time>2022-07-12T15:38:09Z</time>
      </trkpt>
      <trkpt lat="43.58317" lon="1.3157">
        <ele>180</ele>
        <time>2022-07-12T15:38:12Z</time>
      </trkpt>
      <trkpt lat="43.58326" lon="1.3158">
        <ele>180.6</ele>
        <time>2022-07-12T15:38:18Z</time>
      </trkpt>
      <trkpt lat="43.58327" lon="1.31582">
        <ele>180.6</ele>
        <time>2022-07-12T15:38:19Z</time>
      </trkpt>
      <trkpt lat="43.58337" lon="1.3159">
        <ele>181.8</ele>
        <time>2022-07-12T15:38:25Z</time>
      </trkpt>
      <trkpt lat="43.5834" lon="1.31592">
        <ele>182.4</ele>
        <time>2022-07-12T15:38:27Z</time>
      </trkpt>
      <trkpt lat="43.58344" lon="1.31595">
        <ele>183.2</ele>
        <time>2022-07-12T15:38:30Z</time>
      </trkpt>
      <trkpt lat="43.58351" lon="1.31601">
        <ele>184.6</ele>
        <time>2022-07-12T15:38:35Z</time>
      </trkpt>
      <trkpt lat="43.58358" lon="1.31607">
        <ele>185.4</ele>
        <time>2022-07-12T15:38:39Z</time>
      </trkpt>
      <trkpt lat="43.58359" lon="1.31609">
        <ele>185.8</ele>
        <time>2022-07-12T15:38:40Z</time>
      </trkpt>
      <trkpt lat="43.58362" lon="1.31612">
        <ele>186.2</ele>
        <time>2022-07-12T15:38:42Z</time>
      </trkpt>
      <trkpt lat="43.58366" lon="1.31617">
        <ele>187</ele>
        <time>2022-07-12T15:38:44Z</time>
      </trkpt>
      <trkpt lat="43.58374" lon="1.31624">
        <ele>188</ele>
        <time>2022-07-12T15:38:48Z</time>
      </trkpt>
      <trkpt lat="43.58378" lon="1.31627">
        <ele>188.4</ele>
        <time>2022-07-12T15:38:50Z</time>
      </trkpt>
      <trkpt lat="43.58383" lon="1.31633">
        <ele>189</ele>
        <time>2022-07-12T15:38:53Z</time>
      </trkpt>
      <trkpt lat="43.58389" lon="1.3164">
        <ele>190.2</ele>
        <time>2022-07-12T15:38:57Z</time>
      </trkpt>
      <trkpt lat="43.58394" lon="1.31645">
        <ele>190.6</ele>
        <time>2022-07-12T15:38:59Z</time>
      </trkpt>
      <trkpt lat="43.58403" lon="1.31652">
        <ele>191.4</ele>
        <time>2022-07-12T15:39:04Z</time>
      </trkpt>
      <trkpt lat="43.58405" lon="1.31655">
        <ele>191.6</ele>
        <time>2022-07-12T15:39:05Z</time>
      </trkpt>
      <trkpt lat="43.58414" lon="1.31668">
        <ele>192.6</ele>
        <time>2022-07-12T15:39:10Z</time>
      </trkpt>
      <trkpt lat="43.58419" lon="1.31674">
        <ele>193</ele>
        <time>2022-07-12T15:39:12Z</time>
      </trkpt>
      <trkpt lat="43.58432" lon="1.31689">
        <ele>193.6</ele>
        <time>2022-07-12T15:39:17Z</time>
      </trkpt>
      <trkpt lat="43.58438" lon="1.31697">
        <ele>193.8</ele>
        <time>2022-07-12T15:39:19Z</time>
      </trkpt>
      <trkpt lat="43.5846" lon="1.31723">
        <ele>194.6</ele>
        <time>2022-07-12T15:39:26Z</time>
      </trkpt>
      <trkpt lat="43.58471" lon="1.31735">
        <ele>194.6</ele>
        <time>2022-07-12T15:39:29Z</time>
      </trkpt>
      <trkpt lat="43.58486" lon="1.31751">
        <ele>195</ele>
        <time>2022-07-12T15:39:33Z</time>
      </trkpt>
      <trkpt lat="43.58509" lon="1.31782">
        <ele>195.2</ele>
        <time>2022-07-12T15:39:39Z</time>
      </trkpt>
      <trkpt lat="43.5855" lon="1.3183">
        <ele>195</ele>
        <time>2022-07-12T15:39:48Z</time>
      </trkpt>
      <trkpt lat="43.58584" lon="1.3186">
        <ele>194.8</ele>
        <time>2022-07-12T15:39:55Z</time>
      </trkpt>
      <trkpt lat="43.58621" lon="1.31894">
        <ele>195.6</ele>
        <time>2022-07-12T15:40:03Z</time>
      </trkpt>
      <trkpt lat="43.58644" lon="1.31933">
        <ele>195.4</ele>
        <time>2022-07-12T15:40:09Z</time>
      </trkpt>
      <trkpt lat="43.58663" lon="1.31962">
        <ele>194.6</ele>
        <time>2022-07-12T15:40:14Z</time>
      </trkpt>
      <trkpt lat="43.58671" lon="1.31972">
        <ele>194.4</ele>
        <time>2022-07-12T15:40:16Z</time>
      </trkpt>
      <trkpt lat="43.5868" lon="1.31988">
        <ele>194.2</ele>
        <time>2022-07-12T15:40:19Z</time>
      </trkpt>
      <trkpt lat="43.58682" lon="1.31995">
        <ele>194</ele>
        <time>2022-07-12T15:40:20Z</time>
      </trkpt>
      <trkpt lat="43.58686" lon="1.32019">
        <ele>193.8</ele>
        <time>2022-07-12T15:40:23Z</time>
      </trkpt>
      <trkpt lat="43.58687" lon="1.32052">
        <ele>193.8</ele>
        <time>2022-07-12T15:40:27Z</time>
      </trkpt>
      <trkpt lat="43.58687" lon="1.32088">
        <ele>193.6</ele>
        <time>2022-07-12T15:40:31Z</time>
      </trkpt>
      <trkpt lat="43.58686" lon="1.32105">
        <ele>193.6</ele>
        <time>2022-07-12T15:40:33Z</time>
      </trkpt>
      <trkpt lat="43.58679" lon="1.32185">
        <ele>194</ele>
        <time>2022-07-12T15:40:43Z</time>
      </trkpt>
      <trkpt lat="43.58676" lon="1.32225">
        <ele>194.2</ele>
        <time>2022-07-12T15:40:49Z</time>
      </trkpt>
      <trkpt lat="43.58677" lon="1.32233">
        <ele>194.2</ele>
        <time>2022-07-12T15:40:51Z</time>
      </trkpt>
      <trkpt lat="43.58678" lon="1.32233">
        <ele>194.2</ele>
        <time>2022-07-12T15:40:52Z</time>
      </trkpt>
      <trkpt lat="43.58678" lon="1.32231">
        <ele>194</ele>
        <time>2022-07-12T15:40:56Z</time>
      </trkpt>
      <trkpt lat="43.58678" lon="1.32231">
        <ele>193.8</ele>
        <time>2022-07-12T15:40:57Z</time>
      </trkpt>
    </trkseg>
  </trk>
</gpx>